[[{"header":{"parameterUnit":"m.s-1","parameterCategory":1,"la1":30.6,"la2":28.766,"lo1":-90.7593,"lo2":-88.6598,"dy":0.0162,"dx":0.0183,"nx":116,"ny":114,"refTime":"2023-07-23T18:00:00:Z","depth":0,"parameterNumber":2,"parameterNumberName":"U-component_of_WINDS"},"data":[0.0,0.0,0.0,0.0,0.0,0.0,0.0,0.0,0.0,0.0,0.0,0.0,0.0,0.0,0.0,0.0,0.0,0.0,0.0,0.0,0.0,0.0,0.0,0.0,0.0,0.0,0.0,0.0,0.0,0.0,0.0,0.0,0.0,0.0,0.0,0.0,0.0,0.0,0.0,0.0,0.0,0.0,0.0,0.0,0.0,0.0,0.0,0.0,0.0,0.0,0.0,0.0,0.0,0.0,0.0,0.0,0.0,0.0,0.0,0.0,0.0,0.0,0.0,0.0,0.0,0.0,0.0,0.0,0.0,0.0,0.0,0.0,0.0,0.0,0.0,0.0,0.0,0.0,0.0,0.0,0.0,0.0,0.0,0.0,0.0,0.0,0.0,0.0,0.0,0.0,0.0,0.0,0.0,0.0,0.0,0.0,0.0,0.0,0.0,0.0,0.0,0.0,0.0,0.0,0.0,0.0,0.0,0.0,0.0,0.0,0.0,0.0,0.0,0.0,0.0,0.0,0.0,0.0,0.0,0.0,0.0,0.0,0.0,0.0,0.0,0.0,0.0,0.0,0.0,0.0,0.0,0.0,0.0,0.0,0.0,0.0,0.0,0.0,0.0,0.0,0.0,0.0,0.0,0.0,0.0,0.0,0.0,0.0,0.0,0.0,0.0,0.0,0.0,0.0,0.0,0.0,0.0,0.0,0.0,0.0,0.0,0.0,0.0,0.0,0.0,0.0,0.0,0.0,0.0,0.0,0.0,0.0,0.0,0.0,0.0,0.0,0.0,0.0,0.0,0.0,0.0,0.0,0.0,0.0,0.0,0.0,0.0,0.0,0.0,0.0,0.0,0.0,0.0,0.0,0.0,0.0,0.0,0.0,0.0,0.0,0.0,0.0,0.0,0.0,0.0,0.0,0.0,0.0,0.0,0.0,0.0,0.0,0.0,0.0,0.0,0.0,0.0,0.0,0.0,0.0,0.0,0.0,0.0,0.0,0.0,0.0,0.0,0.0,0.0,0.0,0.0,0.0,0.0,0.0,0.0,0.0,0.0,0.0,0.0,0.0,0.0,0.0,0.0,0.0,0.0,0.0,0.0,0.0,0.0,0.0,0.0,0.0,0.0,0.0,0.0,0.0,0.0,0.0,0.0,0.0,0.0,0.0,0.0,0.0,0.0,0.0,0.0,0.0,0.0,0.0,0.0,0.0,0.0,0.0,0.0,0.0,0.0,0.0,0.0,0.0,0.0,0.0,0.0,0.0,0.0,0.0,0.0,0.0,0.0,0.0,0.0,0.0,0.0,0.0,0.0,0.0,0.0,0.0,0.0,0.0,0.0,0.0,0.0,0.0,0.0,0.0,0.0,0.0,0.0,0.0,0.0,0.0,0.0,0.0,0.0,0.0,0.0,0.0,0.0,0.0,0.0,0.0,0.0,0.0,0.0,0.0,0.0,0.0,0.0,0.0,0.0,0.0,0.0,0.0,0.0,0.0,0.0,0.0,0.0,0.0,0.0,0.0,0.0,0.0,0.0,0.0,0.0,0.0,0.0,0.0,0.0,0.0,0.0,0.0,0.0,0.0,0.0,0.0,0.0,0.0,0.0,0.0,0.0,0.0,0.0,0.0,0.0,0.0,0.0,0.0,0.0,0.0,0.0,0.0,0.0,0.0,0.0,0.0,0.0,0.0,0.0,0.0,0.0,0.0,0.0,0.0,0.0,0.0,0.0,0.0,0.0,0.0,0.0,0.0,0.0,0.0,0.0,0.0,0.0,0.0,0.0,0.0,0.0,0.0,0.0,0.0,0.0,0.0,0.0,0.0,0.0,0.0,0.0,0.0,0.0,0.0,0.0,0.0,0.0,0.0,0.0,0.0,0.0,0.0,0.0,0.0,0.0,0.0,0.0,0.0,0.0,0.0,0.0,0.0,0.0,0.0,0.0,0.0,0.0,0.0,0.0,0.0,0.0,0.0,0.0,0.0,0.0,0.0,0.0,0.0,0.0,0.0,0.0,0.0,0.0,0.0,0.0,0.0,0.0,0.0,0.0,0.0,0.0,0.0,0.0,0.0,0.0,0.0,0.0,0.0,0.0,0.0,0.0,0.0,0.0,0.0,0.0,0.0,0.0,0.0,0.0,0.0,0.0,0.0,0.0,0.0,0.0,0.0,0.0,0.0,0.0,0.0,0.0,0.0,0.0,0.0,0.0,0.0,0.0,0.0,0.0,0.0,0.0,0.0,0.0,0.0,0.0,0.0,0.0,0.0,0.0,0.0,0.0,0.0,0.0,0.0,0.0,0.0,0.0,0.0,0.0,0.0,0.0,0.0,0.0,0.0,0.0,0.0,0.0,0.0,0.0,0.0,0.0,0.0,0.0,0.0,0.0,0.0,0.0,0.0,0.0,0.0,0.0,0.0,0.0,0.0,0.0,0.0,0.0,0.0,0.0,0.0,0.0,0.0,0.0,0.0,0.0,0.0,0.0,0.0,0.0,0.0,0.0,0.0,0.0,0.0,0.0,0.0,0.0,0.0,0.0,0.0,0.0,0.0,0.0,0.0,0.0,0.0,0.0,0.0,0.0,0.0,0.0,0.0,0.0,0.0,0.0,0.0,0.0,0.0,0.0,0.0,0.0,0.0,0.0,0.0,0.0,0.0,0.0,0.0,0.0,0.0,0.0,0.0,0.0,0.0,0.0,0.0,0.0,0.0,0.0,0.0,0.0,0.0,0.0,0.0,0.0,0.0,0.0,0.0,0.0,0.0,0.0,0.0,0.0,0.0,0.0,0.0,0.0,0.0,0.0,0.0,0.0,0.0,0.0,0.0,0.0,0.0,0.0,0.0,0.0,0.0,0.0,0.0,0.0,0.0,0.0,0.0,0.0,0.0,0.0,0.0,0.0,0.0,0.0,0.0,0.0,0.0,0.0,0.0,0.0,0.0,0.0,0.0,0.0,0.0,0.0,0.0,0.0,0.0,0.0,0.0,0.0,0.0,0.0,0.0,0.0,0.0,0.0,0.0,0.0,0.0,0.0,0.0,0.0,0.0,0.0,0.0,0.0,0.0,0.0,0.0,0.0,0.0,0.0,0.0,0.0,0.0,0.0,0.0,0.0,0.0,0.0,0.0,0.0,0.0,0.0,0.0,0.0,0.0,0.0,0.0,0.0,0.0,0.0,0.0,0.0,0.0,0.0,0.0,0.0,0.0,0.0,0.0,0.0,0.0,0.0,0.0,0.0,0.0,0.0,0.0,0.0,0.0,0.0,0.0,0.0,0.0,0.0,0.0,0.0,0.0,0.0,0.0,0.0,0.0,0.0,0.0,0.0,0.0,0.0,0.0,0.0,0.0,0.0,0.0,0.0,0.0,0.0,0.0,0.0,0.0,0.0,0.0,0.0,0.0,0.0,0.0,0.0,0.0,0.0,0.0,0.0,0.0,0.0,0.0,0.0,0.0,0.0,0.0,0.0,0.0,0.0,0.0,0.0,0.0,0.0,0.0,0.0,0.0,0.0,0.0,0.0,0.0,0.0,0.0,0.0,0.0,0.0,0.0,0.0,0.0,0.0,0.0,0.0,0.0,0.0,0.0,0.0,0.0,0.0,0.0,0.0,0.0,0.0,0.0,0.0,0.0,0.0,0.0,0.0,0.0,0.0,0.0,0.0,0.0,0.0,0.0,0.0,0.0,0.0,0.0,0.0,0.0,0.0,0.0,0.0,0.0,0.0,0.0,0.0,0.0,0.0,0.0,0.0,0.0,0.0,0.0,0.0,0.0,0.0,0.0,0.0,0.0,0.0,0.0,0.0,0.0,0.0,0.0,0.0,0.0,0.0,0.0,0.0,0.0,0.0,0.0,0.0,0.0,0.0,0.0,0.0,0.0,0.0,0.0,0.0,0.0,0.0,0.0,0.0,0.0,0.0,0.0,0.0,0.0,0.0,0.0,0.0,0.0,0.0,0.0,0.0,0.0,0.0,0.0,0.0,0.0,0.0,0.0,0.0,0.0,0.0,0.0,0.0,0.0,0.0,0.0,0.0,0.0,0.0,0.0,0.0,0.0,0.0,0.0,0.0,0.0,0.0,0.0,0.0,0.0,0.0,0.0,0.0,0.0,0.0,0.0,0.0,0.0,0.0,0.0,0.0,0.0,0.0,0.0,0.0,0.0,0.0,0.0,0.0,0.0,0.0,0.0,0.0,0.0,0.0,0.0,0.0,0.0,0.0,0.0,0.0,0.0,0.0,0.0,0.0,0.0,0.0,0.0,0.0,0.0,0.0,0.0,0.0,0.0,0.0,0.0,0.0,0.0,0.0,0.0,0.0,0.0,0.0,0.0,0.0,0.0,0.0,0.0,0.0,0.0,0.0,0.0,0.0,0.0,0.0,0.0,0.0,0.0,0.0,0.0,0.0,0.0,0.0,0.0,0.0,0.0,0.0,0.0,0.0,0.0,0.0,0.0,0.0,0.0,0.0,0.0,0.0,0.0,0.0,0.0,0.0,0.0,0.0,0.0,0.0,0.0,0.0,0.0,0.0,0.0,0.0,0.0,0.0,0.0,0.0,0.0,0.0,0.0,0.0,0.0,0.0,0.0,0.0,0.0,0.0,0.0,0.0,0.0,0.0,0.0,0.0,0.0,0.0,0.0,0.0,0.0,0.0,0.0,0.0,0.0,0.0,0.0,0.0,0.0,0.0,0.0,0.0,0.0,0.0,0.0,0.0,0.0,0.0,0.0,0.0,0.0,0.0,0.0,0.0,0.0,0.0,0.0,0.0,0.0,0.0,0.0,0.0,0.0,0.0,0.0,0.0,0.0,0.0,0.0,0.0,0.0,0.0,0.0,0.0,0.0,0.0,0.0,0.0,0.0,0.0,0.0,0.0,0.0,0.0,0.0,0.0,0.0,0.0,0.0,0.0,0.0,0.0,0.0,0.0,0.0,0.0,0.0,0.0,0.0,0.0,0.0,0.0,0.0,0.0,0.0,0.0,0.0,0.0,0.0,0.0,0.0,0.0,0.0,0.0,0.0,0.0,0.0,0.0,0.0,0.0,0.0,0.0,0.0,0.0,0.0,0.0,0.0,0.0,0.0,0.0,0.0,0.0,0.0,0.0,0.0,0.0,0.0,0.0,0.0,0.0,0.0,0.0,0.0,0.0,0.0,0.0,0.0,0.0,0.0,0.0,0.0,0.0,0.0,0.0,0.0,0.0,0.0,0.0,0.0,0.0,0.0,0.0,0.0,0.0,0.0,0.0,0.0,0.0,0.0,0.0,0.0,0.0,0.0,0.0,0.0,0.0,0.0,0.0,0.0,0.0,0.0,0.0,0.0,0.0,0.0,0.0,0.0,0.0,0.0,0.0,0.0,0.0,0.0,0.0,0.0,0.0,0.0,0.0,0.0,0.0,0.0,0.0,0.0,0.0,0.0,0.0,0.0,0.0,0.0,0.0,0.0,0.0,0.0,0.0,0.0,0.0,0.0,0.0,0.0,0.0,0.0,0.0,0.0,0.0,0.0,0.0,0.0,0.0,0.0,0.0,0.0,0.0,0.0,0.0,0.0,0.0,0.0,0.0,0.0,0.0,0.0,0.0,0.0,0.0,0.0,0.0,0.0,0.0,0.0,0.0,0.0,0.0,0.0,0.0,0.0,0.0,0.0,0.0,0.0,0.0,0.0,0.0,0.0,0.0,0.0,0.0,0.0,0.0,0.0,0.0,0.0,0.0,0.0,0.0,0.0,0.0,0.0,0.0,0.0,0.0,0.0,0.0,0.0,0.0,0.0,0.0,0.0,0.0,0.0,0.0,0.0,0.0,0.0,0.0,0.0,0.0,0.0,0.0,0.0,0.0,0.0,0.0,0.0,0.0,0.0,0.0,0.0,0.0,0.0,0.0,0.0,0.0,0.0,0.0,0.0,0.0,0.0,0.0,0.0,0.0,0.0,0.0,0.0,0.0,0.0,0.0,0.0,0.0,0.0,0.0,0.0,0.0,0.0,0.0,0.0,0.0,0.0,0.0,0.0,0.0,0.0,0.0,0.0,0.0,0.0,0.0,0.0,0.0,0.0,0.0,0.0,0.0,0.0,0.0,0.0,0.0,0.0,0.0,0.0,0.0,0.0,0.0,0.0,1.2181,0.0,0.0,0.0,0.0,0.0,0.0,0.0,0.0,0.0,0.0,0.0,0.0,0.0,0.0,0.0,0.0,0.0,0.0,0.0,0.0,0.0,0.0,0.0,0.0,0.0,0.0,0.0,0.0,0.0,0.0,0.0,0.0,0.0,0.0,0.0,0.0,0.0,0.0,0.0,0.0,0.0,0.0,0.0,0.0,0.0,0.0,0.0,0.0,0.0,0.0,0.0,0.0,0.0,0.0,0.0,0.0,0.0,0.0,0.0,0.0,0.0,0.0,0.0,0.0,0.0,0.0,0.0,0.0,0.0,0.0,0.0,0.0,0.0,0.0,0.0,0.0,0.0,0.0,0.0,0.0,0.0,0.0,0.0,0.0,0.0,0.0,0.0,0.0,0.0,0.0,0.0,0.0,0.0,0.0,0.0,0.0,0.0,0.0,0.0,0.0,0.0,0.0,0.0,0.0,0.0,0.0,0.0,0.0,0.0,0.0,0.0,0.0,0.0,0.0,0.0,0.0,1.2295,0.0,0.0,0.0,0.0,0.0,0.0,0.0,0.0,0.0,0.0,0.0,0.0,0.0,0.0,0.0,0.0,0.0,0.0,0.0,0.0,0.0,0.0,0.0,0.0,0.0,0.0,0.0,0.0,0.0,0.0,0.0,0.0,0.0,0.0,0.0,0.0,0.0,0.0,0.0,0.0,0.0,0.0,0.0,0.0,0.0,0.0,0.0,0.0,0.0,0.0,0.0,0.0,0.0,0.0,0.0,0.0,0.0,0.0,0.0,0.0,0.0,0.0,0.0,0.0,0.0,0.0,0.0,0.0,0.0,0.0,0.0,0.0,0.0,0.0,0.0,0.0,0.0,0.0,0.0,0.0,0.0,0.0,0.0,0.0,0.0,0.0,0.0,0.0,0.0,0.0,0.0,0.0,0.0,0.0,0.0,0.0,0.0,0.0,0.0,0.0,0.0,0.0,0.0,0.0,0.0,0.0,0.0,0.0,1.0656,1.0617,1.0891,1.0891,1.0657,1.0223,1.1339,1.1729,1.1633,1.2426,0.0,0.0,0.0,0.0,0.0,0.0,0.0,0.0,0.0,0.0,0.0,0.0,0.0,0.0,0.0,0.0,0.0,0.0,0.0,0.0,0.0,0.0,0.0,0.0,0.0,0.0,0.0,0.0,0.0,0.0,0.0,0.0,0.0,0.0,0.0,0.0,0.0,0.0,0.3232,0.3652,0.3854,0.3894,0.0,0.0,0.0,0.0,0.0,0.0,0.0,0.0,0.0,0.0,0.0,0.0,0.0,0.0,0.0,0.0,0.0,0.0,0.0,0.0,0.0,0.0,0.0,0.0,0.0,0.0,0.0,0.0,0.0,0.0,0.0,0.0,0.0,0.0,0.0,0.0,0.0,0.0,0.0,0.0,0.0,0.0,0.0,0.0,0.7537,0.8171,0.0,0.0,0.0,0.0,0.0,0.0,0.0,0.0,0.0,0.0,0.0,0.0,0.0,1.0244,1.01,0.9953,0.9897,1.0002,0.9698,0.9645,0.9726,0.9726,0.9569,0.9308,1.0229,0.0,1.0677,1.0812,0.0,0.0,0.0,0.0,0.0,0.0,0.0,0.0,0.0,0.0,0.0,0.0,0.0,0.0,0.0,0.0,0.0,0.0,0.0,0.0,0.0,0.0,0.0,0.0,0.0,0.0,0.0,0.0,0.0,0.0,0.0,0.0,0.0,0.0,0.0,0.0,0.0,0.2719,0.3333,0.3619,0.3913,0.4286,0.4431,0.4976,0.5733,0.5776,0.0,0.0,0.0,0.0,0.0,0.0,0.0,0.0,0.0,0.0,0.0,0.0,0.0,0.0,0.0,0.0,0.0,0.0,0.0,0.0,0.0,0.0,0.0,0.0,0.0,0.0,0.0,0.0,0.0,0.0,0.0,0.0,0.0,0.0,0.0,0.0,0.0,0.0,0.0,0.7516,0.7764,0.7688,0.8181,0.8716,0.0,0.0,0.0,0.0,0.0,0.0,0.0,0.0,0.0,0.9701,0.967,0.9656,0.9767,0.9441,0.9423,0.9701,0.9567,0.9434,0.9251,0.9306,0.9257,0.9196,0.9718,1.0098,1.0352,1.0764,1.0974,1.1107,0.0,0.0,0.0,0.0,1.2859,1.3331,0.0,0.0,0.0,0.0,0.0,0.0,0.0,0.0,0.0,0.0,0.0,0.0,0.0,0.0,0.0,-0.0256,0.0,0.0,0.0,0.0,0.0,0.0,0.0,0.0,0.0,0.0,0.0,0.0,0.0,0.0,0.3298,0.3604,0.4048,0.4601,0.4719,0.5127,0.5766,0.5893,0.601,0.0,0.0,0.0,0.0,0.0,0.0,0.0,0.0,0.0,0.0,0.0,0.0,0.0,0.0,0.0,0.0,0.0,0.0,0.0,0.0,0.0,0.0,0.0,0.0,0.0,0.0,0.0,0.0,0.0,0.0,0.0,0.0,0.0,0.0,0.0,0.0,0.0,0.0,0.6962,0.7273,0.7093,0.7591,0.8319,0.0,0.0,0.0,0.0,0.0,0.0,1.0179,0.9787,0.9684,0.9966,0.9538,0.9386,0.9589,0.9252,0.9227,0.946,0.9414,0.9266,0.9047,0.9082,0.9059,0.9009,0.9326,0.9616,0.9877,1.0842,1.1027,1.0725,1.1136,1.1378,1.159,1.1834,1.2303,1.2791,0.0,0.0,0.0,0.0,0.0,0.0,0.0,0.0,0.0,0.0,0.0,0.0,0.0,0.0,0.0717,0.0041,0.1719,0.2058,0.0,0.0,0.0,0.0,0.0,0.0,0.0,0.0,0.0,0.0,0.0,0.0,0.0,0.0,0.4224,0.4542,0.5031,0.5525,0.5937,0.5396,0.5627,0.6363,0.0,0.0,0.0,0.0,0.0,0.0,0.0,0.0,0.0,0.0,0.0,0.0,0.0,0.0,0.0,0.0,0.0,0.0,0.0,0.0,0.0,0.0,0.0,0.0,0.0,0.0,0.0,0.0,0.0,0.0,0.0,0.0,0.0,0.0,0.0,0.0,0.0,0.0,0.0,0.7209,0.7092,0.0,0.0,0.0,0.0,1.102,1.0704,1.0505,1.0733,1.0082,0.9896,1.0343,1.0082,0.9919,0.9813,0.9651,0.9393,0.9051,0.8901,0.881,0.883,0.8817,0.8662,0.8443,0.8909,0.8996,0.8878,1.0392,1.0865,1.0654,1.1064,1.0974,1.0777,1.1669,1.1976,1.2014,0.0,0.0,0.0,0.0,0.0,0.0,0.0,0.0,0.0,0.0,0.0,0.0,0.0,-0.0777,0.0466,0.1773,0.1367,0.0753,0.0041,0.0,0.0,0.0,0.0,0.0,0.0,0.0,0.0,0.0,0.0,0.0,0.0,0.0,0.0,0.0,0.4287,0.4703,0.5266,0.5566,0.5709,0.5809,0.5881,0.5895,0.0,0.0,0.0,0.0,0.0,0.0,0.0,0.0,0.0,0.0,0.0,0.0,0.0,0.0,0.0,0.0,0.0,0.0,0.0,0.0,0.0,0.0,0.0,0.0,0.0,0.0,0.0,0.0,0.0,0.0,0.0,0.0,0.0,0.0,0.0,0.0,0.0,0.7802,0.7812,0.0,1.0069,0.9831,0.9956,1.0945,1.0481,1.0308,1.0573,0.998,0.9775,1.0055,0.9962,0.9852,0.9743,0.9501,0.92,0.8857,0.8804,0.8804,0.8804,0.8804,0.8751,0.8651,0.8817,0.886,0.892,1.0871,1.15,1.1113,1.0565,1.0711,1.1251,1.1307,1.1664,1.2082,0.0,0.0,0.0,0.0,0.0,0.0,0.0,0.0,0.0,0.0,0.0,-0.0837,-0.0079,-0.0269,-0.0,0.1111,0.0481,-0.0,-0.0,0.0,0.0,0.0,0.0,0.0,0.0,0.0,0.0,0.0,0.0,0.0,0.0,0.0,0.0,0.0,0.0,0.435,0.4664,0.5471,0.5784,0.5817,0.5765,0.609,0.6557,0.0,0.0,0.0,0.0,0.0,0.0,0.0,0.0,0.0,0.0,0.0,0.0,0.0,0.0,0.0,0.0,0.0,0.0,0.0,0.0,0.0,0.0,0.0,0.0,0.0,0.0,0.0,0.0,0.0,0.0,0.0,0.0,0.0,0.0,0.0,0.7512,0.8174,0.823,0.8742,1.0011,0.9919,1.0033,1.0798,1.059,1.0486,1.0562,1.0082,0.9895,1.002,0.988,0.9826,0.9826,0.9482,0.9128,0.8951,0.8851,0.8804,0.8804,0.8804,0.8804,0.8804,0.8804,0.8804,0.8962,1.1209,1.171,1.1057,1.0618,1.0771,1.1243,1.1238,1.1598,1.2076,0.0,0.0,0.0,0.0,0.0,0.0,0.0,0.0,0.0,0.0,-0.0116,-0.0,-0.0036,-0.007,-0.062,-0.1967,-0.0839,-0.004,-0.0,-0.0,0.0,0.0,0.0,0.0,0.0,0.0,0.0,0.0,0.0,0.0,0.0,0.0,0.0,0.0,0.0,0.0,0.4333,0.5021,0.5708,0.6335,0.5564,0.6013,0.6982,0.0,0.0,0.0,0.0,0.0,0.0,0.0,0.0,0.0,0.0,0.0,0.0,0.0,0.0,0.0,0.0,0.0,0.0,0.0,0.0,0.0,0.0,0.0,0.0,0.0,0.0,0.0,0.0,0.0,0.0,0.0,0.0,0.0,0.7708,0.7771,0.7974,0.8357,0.8327,0.8591,0.9437,0.957,0.9926,1.0655,1.1067,1.1065,1.0728,1.0348,1.0185,1.0281,0.9848,0.9768,1.0066,0.9597,0.931,0.9196,0.8951,0.8804,0.8804,0.8804,0.8804,0.8804,0.8804,0.8804,0.8962,1.1108,1.1351,1.0434,1.1156,1.1049,1.0591,1.137,1.1688,1.1747,0.0,0.0,0.0,0.0,0.0,0.0,0.0,0.0,0.0,0.0,-0.0184,-0.0196,-0.0753,-0.1232,-0.1473,-0.138,-0.1478,-0.1104,-0.008,0.0,0.0,0.0,0.0,0.0,0.0,0.0,0.0,0.0,0.0,0.0,0.0,0.0,0.0,0.0,0.0,0.0,0.432,0.4515,0.5048,0.5734,0.5416,0.5694,0.6211,0.0,0.0,0.0,0.0,0.0,0.0,0.0,0.0,0.0,0.0,0.0,0.0,0.0,0.0,0.0,0.0,0.0,0.0,0.0,0.0,0.0,0.0,0.0,0.0,0.0,0.0,0.0,0.0,0.0,0.0,0.0,0.0,0.7832,0.779,0.803,0.8306,0.8508,0.8997,0.9479,0.9957,1.0091,1.0195,1.047,1.0382,1.0329,1.0182,1.0114,0.9869,0.9378,0.9711,0.9674,0.9334,0.9383,0.9408,0.9323,0.8997,0.8804,0.8804,0.8804,0.8804,0.8804,0.8804,0.8804,0.8857,0.9472,0.9517,0.9354,1.0327,1.0474,1.0131,1.0039,1.0035,1.0099,0.0,0.0,0.0,0.0,0.0,0.0,0.0,0.0,0.0,0.0,-0.0845,-0.0925,-0.107,-0.1688,-0.1935,-0.1465,-0.1958,-0.1815,-0.0798,0.0,0.0,0.0,0.0,0.0,0.0,0.0,0.0,0.0,0.0,0.0,0.0,0.0,0.0,0.0,0.0,0.0,0.0,0.4495,0.4754,0.5067,0.5068,0.5557,0.6194,0.5784,0.5934,0.6411,0.6724,0.7194,0.7643,0.7504,0.0,0.0,0.0,0.0,0.0,0.0,0.0,0.0,0.0,0.0,0.0,0.0,0.0,0.0,0.0,0.0,0.0,0.0,0.0,0.0,0.0,0.0,0.0,0.0,0.8497,0.8614,0.8627,0.8664,0.8707,0.8939,0.9363,0.9741,0.9905,0.9964,0.9937,0.9805,0.9872,0.9781,0.9465,0.9618,0.9472,0.8924,0.9198,0.9262,0.8988,0.8979,0.9085,0.9382,0.9046,0.8871,0.8804,0.8804,0.8804,0.8804,0.8804,0.8804,0.8804,0.8804,0.8804,0.0,0.0,0.0,0.0,0.0,0.9567,0.9399,0.0,0.0,0.0,0.0,0.0,0.0,0.0,0.0,0.0,0.0,0.0,-0.1763,-0.1184,-0.1701,-0.2013,-0.1904,-0.227,-0.2297,0.0,0.0,0.0,0.0,0.0,0.0,0.0,0.0,0.0,0.0,0.0,0.0,0.0,0.0,0.0,0.0,0.0,0.0,0.0,0.4665,0.4719,0.4518,0.4687,0.5425,0.6443,0.6028,0.6235,0.678,0.7147,0.7253,0.731,0.7904,0.0,0.0,0.0,0.0,0.0,0.0,0.0,0.0,0.0,0.0,0.0,0.0,0.0,0.0,0.0,0.0,0.0,0.0,0.0,0.0,0.0,0.0,0.0,0.0,0.923,0.9592,0.9774,0.9258,0.9005,0.9254,0.9389,0.9444,0.9322,0.9328,0.9166,0.8809,0.914,0.9116,0.8559,0.0,0.0,0.0,0.0,0.8484,0.8731,0.8373,0.852,0.9135,0.8884,0.8722,0.8579,0.8712,0.8804,0.8804,0.8804,0.8804,0.8804,0.8804,0.8804,0.891,0.9865,0.9997,0.9739,0.9968,0.9671,0.9234,0.0,0.0,0.0,0.0,0.0,0.0,0.0,0.0,0.0,-0.0869,-0.1122,-0.1373,-0.1348,-0.1604,-0.1791,-0.1827,-0.2197,-0.2492,0.0,0.0,0.0,0.0,0.0,0.0,0.0,0.0,0.0,0.0,0.0,0.0,0.0,0.0,0.0,0.0,0.0,0.0,0.0,0.4217,0.4608,0.4757,0.4683,0.5077,0.5607,0.5202,0.5319,0.5883,0.6673,0.7318,0.7881,0.8246,0.8704,0.9084,0.8781,0.0,0.0,0.0,0.0,0.0,0.0,0.0,0.0,0.0,0.0,0.0,0.0,0.0,0.0,0.0,0.0,0.0,0.0,0.0,0.0,0.9519,0.9428,0.9439,0.976,0.8912,0.8391,0.8646,0.8746,0.8505,0.7825,0.7762,0.7658,0.7453,0.7549,0.7544,0.7395,0.7644,0.7469,0.685,0.7316,0.7381,0.6915,0.7302,0.7556,0.7691,0.0,0.0,0.7287,0.8309,0.8804,0.8804,0.8804,0.8804,0.8804,0.8804,0.8804,0.8804,0.9008,0.8909,0.8696,0.8877,0.8712,0.8641,0.0,0.0,0.0,0.0,0.0,0.0,0.0,0.0,0.0,0.0,-0.0967,-0.1056,-0.1329,-0.1667,-0.1886,-0.191,-0.2166,0.0,0.0,0.0,0.0,0.0,0.0,0.0,0.0,0.0,0.0,0.0,0.0,0.0,0.0,0.0,0.0,0.0,0.0,0.0,0.0,0.3821,0.472,0.4771,0.4838,0.4913,0.5138,0.5125,0.5254,0.5531,0.6292,0.6719,0.7067,0.7779,0.8087,0.8169,0.844,0.818,0.7741,0.0,0.0,0.0,0.0,0.0,0.0,0.0,0.0,0.0,0.0,0.0,0.0,0.0,0.0,0.8369,0.0,0.0,1.0037,1.0594,1.0194,0.9943,1.0133,0.9138,0.8346,0.822,0.8261,0.8083,0.7521,0.7512,0.7274,0.6792,0.7044,0.709,0.6863,0.722,0.714,0.6534,0.6806,0.6783,0.6274,0.6651,0.6935,0.7162,0.7115,0.7066,0.7017,0.7345,0.767,0.7996,0.854,0.8804,0.8804,0.8804,0.8804,0.8804,0.8804,0.8631,0.842,0.8416,0.8263,0.8171,0.0,0.0,0.0,0.0,0.0,0.0,0.0,0.0,0.0,0.0,0.0,-0.0847,-0.1493,-0.1886,-0.2087,0.0,0.0,0.0,0.0,0.0,0.0,0.0,0.0,0.0,0.0,0.0,0.0,0.0,0.0,0.0,0.0,0.0,0.0,0.0,0.0,0.0,0.0,0.2868,0.4125,0.4282,0.459,0.4701,0.4864,0.5219,0.5248,0.5226,0.5784,0.5843,0.5875,0.6885,0.6939,0.6738,0.7756,0.7964,0.7782,0.7615,0.7368,0.0,0.0,0.0,0.0,0.0,0.0,0.0,0.0,0.0,0.8269,0.8697,0.8956,0.9316,0.9916,1.0463,1.0925,1.126,1.0723,1.0263,1.008,0.9029,0.8164,0.766,0.7673,0.7619,0.7353,0.73,0.7013,0.6266,0.6717,0.6785,0.6394,0.6911,0.6915,0.6402,0.6402,0.6321,0.6073,0.6266,0.657,0.688,0.714,0.7269,0.715,0.6452,0.6426,0.6972,0.8268,0.8804,0.8804,0.8804,0.8804,0.8804,0.8804,0.8664,0.845,0.8363,0.8227,0.8092,0.0,0.0,0.0,0.0,0.0,0.0,0.0,0.0,0.0,0.0,0.0,0.0,0.0,0.0,0.0,0.0,0.0,0.0,0.0,0.0,0.0,0.0,0.0,0.0,0.0,0.0,0.0,0.0,0.0,0.0,0.0,0.0,0.0,0.0,0.0,0.0,0.0,0.0386,0.1403,0.2807,0.3279,0.4036,0.4832,0.479,0.4697,0.4611,0.5014,0.5068,0.5049,0.5806,0.6068,0.6205,0.7607,0.7466,0.7003,0.784,0.0,0.6844,0.6523,0.6401,0.6482,0.6812,0.7361,0.8086,0.0,0.0,1.0071,1.0345,1.0659,1.0803,1.0659,1.1244,1.1526,1.0718,1.0247,0.9591,0.8679,0.7594,0.6848,0.6655,0.6992,0.6883,0.6076,0.594,0.5786,0.57,0.5768,0.5776,0.5724,0.592,0.593,0.5731,0.5728,0.5641,0.547,0.6063,0.6441,0.6465,0.6958,0.7298,0.7414,0.6417,0.605,0.6372,0.8049,0.8804,0.8804,0.8804,0.8804,0.8804,0.8804,0.8784,0.8758,0.8849,0.8919,0.8996,0.0,0.0,0.0,0.0,0.0,0.0,0.0,0.0,0.0,0.0,0.0,0.0,0.0,0.0,0.0,0.0,0.0,0.0,0.0,0.0,0.0,0.0,0.0,0.0,0.0,0.0,0.0,0.0,0.0,0.0,0.0,0.0,0.0,0.0,0.0,0.0,-0.0,-0.0,0.0395,0.1199,0.2679,0.3967,0.4896,0.4739,0.4563,0.437,0.4439,0.4342,0.0,0.0,0.4569,0.5285,0.6331,0.642,0.623,0.686,0.6891,0.0,0.6951,0.6956,0.0,0.0,0.8196,0.8965,0.9705,1.0146,1.0538,1.1081,1.1401,1.16,1.1642,1.2047,1.1987,0.0,1.0329,0.9465,0.8317,0.7311,0.658,0.6254,0.6328,0.6261,0.5817,0.5674,0.5552,0.5464,0.5616,0.5711,0.5711,0.5939,0.5959,0.5722,0.5711,0.5555,0.523,0.5639,0.5963,0.6314,0.6595,0.6999,0.7437,0.6924,0.6834,0.7069,0.8262,0.8804,0.8804,0.8804,0.8804,0.8804,0.8804,0.8804,0.8811,0.8857,0.891,0.891,0.0,0.0,0.0,0.0,0.0,0.0,0.0,0.0,0.0,0.0,0.0,0.0,0.0,0.0,0.0,0.0,0.0,0.0,0.0,0.0,0.0,0.0,0.0,0.0,0.0,0.0,0.0,0.0,0.0,0.0,0.0,0.0,0.0,0.0,0.0,0.0,-0.0,-0.0,-0.0,0.0159,0.1709,0.3458,0.4916,0.4351,0.3916,0.3712,0.3989,0.3715,0.0,0.0,0.3388,0.4254,0.5083,0.5179,0.5171,0.585,0.6275,0.659,0.7102,0.0,0.0,0.8116,0.8953,0.9807,1.0231,1.0603,1.0913,1.1599,1.179,1.1885,1.2008,1.1917,1.1621,1.0545,0.9745,0.8883,0.7785,0.6983,0.6341,0.5983,0.5835,0.5716,0.5606,0.5577,0.5559,0.5488,0.5681,0.582,0.5864,0.6115,0.6139,0.5874,0.5786,0.5586,0.526,0.5672,0.61,0.6536,0.7053,0.7564,0.8043,0.7925,0.7869,0.7877,0.8533,0.8804,0.8804,0.8804,0.8804,0.8804,0.8804,0.8804,0.8804,0.8804,0.8804,0.8804,0.0,0.0,0.0,0.0,0.0,0.0,0.0,0.0,0.0,0.0,0.0,0.0,0.0,0.0,0.0,0.0,0.0,0.0,0.0,0.0,0.0,0.0,0.0,0.0,0.0,0.0,0.0,0.0,0.0,0.0,0.0,0.0,0.0,0.0,0.0,0.0,-0.0,-0.0,-0.0,-0.0,0.0074,0.2087,0.483,0.32,0.2421,0.2334,0.3509,0.0,0.0,0.0,0.2865,0.3291,0.41,0.3899,0.0,0.5231,0.5849,0.0,0.0,0.0,0.7957,0.8723,0.9586,1.0481,1.1124,1.1508,1.1761,1.2275,1.2056,1.1577,1.1257,1.0534,0.9673,0.8751,0.802,0.7349,0.6526,0.6163,0.5867,0.5727,0.5352,0.5105,0.0,0.5378,0.5644,0.5779,0.5796,0.5867,0.6017,0.6173,0.6186,0.6027,0.5745,0.5589,0.5576,0.6638,0.7243,0.7377,0.8753,0.9542,0.9709,0.9468,0.8965,0.8368,0.8699,0.8804,0.8804,0.8804,0.8804,0.8804,0.8804,0.8804,0.8804,0.8804,0.8804,0.8804,0.0,0.0,0.0,0.0,0.0,0.0,0.0,0.0,0.0,0.0,0.0,0.0,0.0,0.0,0.0,0.0,0.0,0.0,0.0,0.0,0.0,0.0,0.0,0.0,0.0,0.0,0.0,0.0,0.0,0.0,0.0,0.0,0.0,0.0,0.0,-0.0,-0.0,-0.0,-0.0,-0.0,-0.0,0.0663,0.173,0.2268,0.2323,0.2263,0.0,0.0,0.0,0.0,0.0,0.0,0.245,0.0,0.0,0.4058,0.4938,0.5901,0.0,0.0,0.822,0.9484,1.0379,1.1039,1.1455,1.177,1.1786,1.1526,1.1364,1.1025,1.0419,0.9774,0.8988,0.8166,0.7561,0.6939,0.6004,0.5808,0.5588,0.5277,0.5115,0.0,0.0,0.0,0.0,0.5297,0.548,0.5682,0.5874,0.6122,0.619,0.6034,0.6157,0.6195,0.6264,0.6836,0.7502,0.8166,0.9087,0.9521,0.9532,0.9522,0.9247,0.8832,0.925,0.9279,0.9037,0.8696,0.8757,0.9037,0.8696,0.8641,0.8858,0.9245,0.9145,0.8804,0.0,0.0,0.0,0.0,0.0,0.0,0.0,0.0,0.0,0.0,0.0,0.0,0.0,0.0,0.0,0.0,0.0,0.0,0.0,0.0,0.0,0.0,0.0,0.0,0.0,0.0,0.0,0.0,0.0,0.0,0.0,0.0,0.0,0.0,0.0,-0.0421,-0.0374,-0.0436,-0.0315,-0.0,-0.0,-0.0419,-0.0933,0.0163,0.0666,0.0,0.0,0.0,0.0,0.0,0.0,0.0,0.0,0.1707,0.2474,0.3056,0.4165,0.5471,0.6854,0.7701,0.8448,0.9721,1.0744,1.1494,1.166,1.1573,1.1303,1.0651,1.0396,0.9908,0.8824,0.8225,0.7731,0.7039,0.6447,0.5901,0.5472,0.5342,0.519,0.4988,0.5133,0.5243,0.0,0.0,0.0,0.5242,0.5461,0.5689,0.5962,0.6152,0.6367,0.6565,0.6595,0.6835,0.7116,0.7466,0.8095,0.8888,0.935,0.9409,0.9082,0.9511,0.9385,0.8846,0.9426,0.9579,0.9329,0.8882,0.8783,0.8984,0.8764,0.8682,0.8828,0.9489,0.9446,0.9118,0.0,0.0,0.0,0.0,0.0,0.0,0.0,0.0,0.0,0.0,0.0,0.0,0.0,0.0,0.0,0.0,0.0,0.0,0.0,0.0,0.0,0.0,0.0,0.0,0.0,0.0,0.0,0.0,0.0,0.0,0.0,0.0,0.0,0.0,0.0,-0.1219,-0.1219,-0.1323,-0.0899,-0.0106,-0.0053,-0.1161,-0.2835,-0.2886,0.0,0.0,0.0,0.0,0.0,0.0,0.0,0.0,0.0,0.0,0.1494,0.2236,0.346,0.4807,0.6128,0.7459,0.865,0.9405,1.0645,1.1591,1.1666,1.1083,1.0385,0.9664,0.9145,0.832,0.0,0.0,0.5787,0.5317,0.46,0.432,0.4905,0.4815,0.4787,0.0,0.0,0.0,0.0,0.0,0.0,0.5676,0.0,0.5937,0.6395,0.6409,0.6718,0.7561,0.726,0.742,0.815,0.8538,0.9028,0.9484,0.9676,0.934,0.8528,0.9463,0.9379,0.8463,0.9363,0.9719,0.9563,0.9286,0.8928,0.8663,0.8991,0.8928,0.8733,0.9473,0.9706,0.9744,0.0,0.0,0.0,0.0,0.0,0.0,0.0,0.0,0.0,0.0,0.0,0.0,0.0,0.0,0.0,0.0,0.0,0.0,0.0,0.0,0.0,0.0,0.0,0.0,0.0,0.0,0.0,0.0,0.0,0.0,0.0,0.0,0.0,0.0,-0.2351,-0.2452,-0.2456,-0.2474,-0.2213,-0.1709,0.0,-0.1106,-0.1657,0.0,0.0,0.0,0.0,0.0,0.0,0.0,0.0,0.0,0.0,0.0259,0.0404,0.0589,0.2783,0.5188,0.5396,0.6337,0.7799,0.9438,1.0123,1.0427,1.0771,1.05,0.9679,0.8292,0.7678,0.7016,0.0,0.0,0.0,0.4924,0.4556,0.0,0.4811,0.4868,0.0,0.588,0.0,0.6464,0.7074,0.737,0.0,0.0,0.6367,0.641,0.7869,0.7483,0.7557,0.8399,0.8284,0.8467,0.8845,0.9136,0.935,0.9484,0.9548,0.9512,0.9439,0.9819,0.9538,0.8737,0.9865,0.9648,0.8404,0.8457,0.865,0.8956,0.8578,0.8842,0.9499,1.0113,1.006,0.9805,0.0,0.0,0.0,0.0,0.0,0.0,0.0,0.0,0.0,0.0,0.0,0.0,0.0,0.0,0.0,0.0,0.0,0.0,0.0,0.0,0.0,0.0,0.0,0.0,0.0,0.0,0.0,0.0,0.0,0.0,0.0,0.0,0.0,0.0,-0.2498,-0.26,-0.265,0.0,0.0,0.0,0.0,0.0,0.0,0.0,0.0,0.0,0.0,0.0,0.0,0.0,0.0,-0.1142,-0.0267,-0.0,-0.0,-0.0,0.0,0.3335,0.4844,0.5808,0.6763,0.8341,0.8943,0.9156,0.9354,0.8866,0.7964,0.6648,0.6383,0.0,0.0,0.0,0.0,0.0,0.0,0.0,0.4534,0.4994,0.5601,0.0,0.7057,0.0,0.8249,0.8608,0.8944,0.0,0.7859,0.7399,0.8529,0.8259,0.8399,0.9236,0.9238,0.9401,0.9783,0.982,0.9766,0.9658,0.9782,0.9527,0.9022,0.9472,0.9128,0.8301,0.0,0.956,0.8657,0.8915,0.9124,0.9289,0.91,0.9285,0.9669,1.0372,1.0416,1.0174,0.0,0.0,0.0,0.0,0.0,0.0,0.0,0.0,0.0,0.0,0.0,0.0,0.0,0.0,0.0,0.0,0.0,0.0,0.0,0.0,0.0,0.0,0.0,0.0,0.0,0.0,0.0,0.0,0.0,0.0,0.0,0.0,0.0,0.0,0.0,0.0,0.0,0.0,0.0,0.0,0.0,0.0,0.0,0.0,0.0,0.0,0.0,0.0,0.0,0.0,-0.2081,-0.2587,-0.0598,-0.0,-0.0,-0.0,-0.0,0.0661,0.388,0.5205,0.5885,0.6669,0.7455,0.7909,0.7685,0.6945,0.6005,0.5096,0.0,0.4956,0.3281,0.0,0.4293,0.3623,0.0,0.3871,0.448,0.5297,0.6097,0.6756,0.7974,0.8975,0.9533,0.9752,1.0269,1.1221,0.9687,0.888,0.9101,0.8961,0.9216,0.9932,1.0018,1.0211,1.0707,1.0453,1.0143,0.9787,0.9989,0.938,0.8027,0.8868,0.8587,0.7587,0.8935,0.939,0.9244,0.9773,0.9818,0.9558,0.9897,0.9886,0.9716,1.0364,1.0624,1.0624,0.0,0.0,0.0,0.0,0.0,0.0,0.0,0.0,0.0,0.0,0.0,0.0,0.0,0.0,0.0,0.0,0.0,0.0,0.0,0.0,0.0,0.0,0.0,0.0,0.0,0.0,0.0,0.0,0.0,0.0,0.0,0.0,0.0,0.0,0.0,0.0,0.0,0.0,0.0,0.0,0.0,0.0,0.0,0.0,0.0,0.0,0.0,0.0,0.0,0.0,-0.209,-0.2565,-0.0591,-0.0,-0.0,-0.0,-0.0,0.0173,0.0797,0.3304,0.5711,0.5759,0.6128,0.6663,0.6991,0.6304,0.0,0.0,0.0,0.3828,0.3055,0.3529,0.0,0.4153,0.0,0.0,0.0,0.0,0.7054,0.0,0.0,0.0,0.0,0.0,0.0,0.0,0.0,1.0861,1.1306,1.0286,0.9947,1.0473,1.0532,1.0587,1.0616,1.0423,0.995,0.9205,0.9414,0.9081,0.8178,0.8508,0.821,0.7587,0.8935,0.0,0.7907,0.9151,0.9539,0.9512,0.9597,0.9926,1.0428,1.0555,1.0624,1.0624,0.0,0.0,0.0,0.0,0.0,0.0,0.0,0.0,0.0,0.0,0.0,0.0,0.0,0.0,0.0,0.0,0.0,0.0,0.0,0.0,0.0,0.0,0.0,0.0,0.0,0.0,0.0,0.0,0.0,0.0,0.0,0.0,0.0,0.0,0.0,0.0,0.0,0.0,0.0,0.0,0.0,0.0,0.0,0.0,0.0,0.0,0.0,0.0,0.0,0.0,-0.1418,-0.1226,-0.0313,-0.0,0.0305,0.2058,0.1392,0.0423,0.2358,0.3554,0.4457,0.531,0.5465,0.5473,0.546,0.0,0.0,0.0,0.0,0.3517,0.301,0.0,0.0,0.0,0.0,0.0,0.0,0.0,0.0,0.0,0.0,0.0,0.0,0.0,0.0,0.0,0.0,1.1479,1.1721,1.1088,1.0738,1.0876,1.09,1.0686,1.0205,1.0132,0.9802,0.9307,0.9098,0.891,0.8845,0.8565,0.8312,0.8102,0.9069,0.9134,0.8619,0.9652,1.0104,1.0104,1.0104,1.0295,1.0624,1.0624,1.0624,1.0624,0.0,0.0,0.0,0.0,0.0,0.0,0.0,0.0,0.0,0.0,0.0,0.0,0.0,0.0,0.0,0.0,0.0,0.0,0.0,0.0,0.0,0.0,0.0,0.0,0.0,0.0,0.0,0.0,0.0,0.0,0.0,0.0,0.0,0.0,0.0,0.0,0.0,0.0,0.0,0.0,0.0,0.0,0.0,0.0,0.0,0.0,0.0,0.0,0.0,0.0,-0.0747,-0.0,-0.0,0.0345,0.1306,0.3936,0.3034,0.172,0.4242,0.4204,0.3829,0.5117,0.5151,0.467,0.4189,0.3708,0.0,0.0,0.3173,0.3347,0.3084,0.0,0.0,0.0,0.0,0.0,0.0,0.0,0.0,0.0,0.0,0.0,0.0,0.0,0.0,0.0,0.0,1.1504,1.1443,1.1498,1.1401,1.1123,1.1111,1.0812,1.0143,1.0143,0.9969,0.9626,0.9191,0.9098,0.9259,0.8847,0.8626,0.8554,0.9198,0.9518,0.9582,1.0301,1.0624,1.0624,1.0624,1.0624,1.0624,1.0624,1.0624,1.0624,0.0,0.0,0.0,0.0,0.0,0.0,0.0,0.0,0.0,0.0,0.0,0.0,0.0,0.0,0.0,0.0,0.0,0.0,0.0,0.0,0.0,0.0,0.0,0.0,0.0,0.0,0.0,0.0,0.0,0.0,0.0,0.0,0.0,0.0,0.0,0.0,0.0,0.0,0.0,0.0,0.0,0.0,0.0,0.0,0.0,0.0,0.0,0.0,0.0,0.0,0.0,-0.0,-0.0,0.1519,0.3334,0.3637,0.0,0.0,0.3426,0.428,0.5424,0.5371,0.5029,0.4542,0.4061,0.0,0.0,0.2965,0.2957,0.3087,0.3476,0.3961,0.0,0.0,0.0,0.0,0.0,0.0,0.0,0.0,0.0,0.0,0.0,0.0,0.0,0.0,0.0,1.1419,1.1166,1.1395,1.1401,1.1123,1.1111,1.1037,1.0962,1.0962,1.0726,1.011,1.0254,0.9845,0.8943,0.9093,0.8921,0.8554,0.9198,0.9518,0.0,1.0301,1.0624,1.0624,1.0624,1.0624,1.0624,1.0624,1.0624,1.0624,0.0,0.0,0.0,0.0,0.0,0.0,0.0,0.0,0.0,0.0,0.0,0.0,0.0,0.0,0.0,0.0,0.0,0.0,0.0,0.0,0.0,0.0,0.0,0.0,0.0,0.0,0.0,0.0,0.0,0.0,0.0,0.0,0.0,0.0,0.0,0.0,0.0,0.0,0.0,0.0,0.0,0.0,0.0,0.0,0.0,0.0,0.0,0.0,0.0,0.0,0.0,0.0,0.0235,0.1391,0.0,0.0,0.4165,0.4643,0.4151,0.4801,0.5491,0.5325,0.4901,0.4505,0.4341,0.0,0.0,0.3299,0.3303,0.3391,0.3565,0.422,0.4847,0.0,0.0,0.0,0.0,0.0,0.0,0.0,0.0,0.0,0.0,0.0,0.0,0.0,0.0,1.1999,1.1123,1.1377,1.1401,1.1123,1.1111,1.0887,1.0368,1.0368,1.0293,0.9992,0.976,0.9726,1.0025,0.9759,0.9694,0.9779,1.004,1.0168,0.0,1.0491,1.0624,1.0624,1.0624,1.0624,1.0624,1.0624,1.0624,1.0624,0.0,0.0,0.0,0.0,0.0,0.0,0.0,0.0,0.0,0.0,0.0,0.0,0.0,0.0,0.0,0.0,0.0,0.0,0.0,0.0,0.0,0.0,0.0,0.0,0.0,0.0,0.0,0.0,0.0,0.0,0.0,0.0,0.0,0.0,0.0,0.0,0.0,0.0,0.0,0.0,0.0,0.0,0.0,0.0,0.0,0.0,0.0,0.0,0.0,0.0,0.0,0.0,0.0,0.0,0.0,0.0,0.3686,0.4125,0.4431,0.4923,0.5243,0.5026,0.4784,0.4555,0.0,0.0,0.3429,0.3551,0.3697,0.3829,0.3829,0.4439,0.5072,0.0,0.0,0.0,0.0,0.0,0.0,0.0,0.0,0.0,0.0,0.0,0.0,0.0,1.2576,1.273,1.1855,1.1973,1.1765,1.1117,1.1111,1.0812,1.0293,1.0218,1.0293,1.0368,0.9906,1.0092,1.0805,1.0459,1.0367,1.0498,1.0561,1.0624,0.0,1.0624,1.0624,1.0624,1.0624,1.0624,1.0624,1.0624,1.0624,1.0624,0.0,0.0,0.0,0.0,0.0,0.0,0.0,0.0,0.0,0.0,0.0,0.0,0.0,0.0,0.0,0.0,0.0,0.0,0.0,0.0,0.0,0.0,0.0,0.0,0.0,0.0,0.0,0.0,0.0,0.0,0.0,0.0,0.0,0.0,0.0,0.0,0.0,0.0,0.0,0.0,0.0,0.0,0.0,0.0,0.0,0.0,0.0,0.0,0.0,0.0,0.0,0.0,0.0,0.0,0.0,0.0,0.316,0.3454,0.3822,0.4295,0.4704,0.4507,0.4534,0.4537,0.0,0.0,0.4257,0.3728,0.3965,0.4272,0.4272,0.4661,0.5208,0.5885,0.0,0.0,0.0,0.0,0.0,0.0,0.0,0.0,0.0,0.0,0.0,0.0,1.3202,0.0,1.3462,1.3462,1.2732,1.1186,1.1111,1.1111,1.1111,1.1111,1.1186,1.1409,1.1409,1.1203,1.088,1.1011,1.0769,1.0308,1.0498,1.0624,0.0,1.0624,1.0624,1.0624,1.0624,1.0624,1.0624,1.0624,1.0624,1.0624,0.0,0.0,0.0,0.0,0.0,0.0,0.0,0.0,0.0,0.0,0.0,0.0,0.0,0.0,0.0,0.0,0.0,0.0,0.0,0.0,0.0,0.0,0.0,0.0,0.0,0.0,0.0,0.0,0.0,0.0,0.0,0.0,0.0,0.0,0.0,0.0,0.0,0.0,0.0,0.0,0.0,0.0,0.0,0.0,0.0,0.0,0.0,0.0,0.0,0.0,0.0,0.0,0.0,0.0,0.0,0.0,0.0,0.0,0.4062,0.4532,0.491,0.5024,0.4973,0.4945,0.5107,0.0,0.3891,0.406,0.4184,0.4316,0.4316,0.4927,0.5566,0.5777,0.5908,0.0,0.0,0.0,0.0,0.0,0.0,0.0,0.0,0.0,0.0,0.0,1.4216,1.4286,1.3542,1.3535,1.3244,1.2725,1.2218,1.1929,1.1929,1.1335,1.1111,1.118,1.1004,1.0808,1.0667,1.0547,1.0331,1.011,1.0308,1.0371,1.0428,1.0561,1.0624,1.0624,1.0624,1.0624,1.0624,1.0624,1.0624,1.0624,0.0,0.0,0.0,0.0,0.0,0.0,0.0,0.0,0.0,0.0,0.0,0.0,0.0,0.0,0.0,0.0,0.0,0.0,0.0,0.0,0.0,0.0,0.0,0.0,0.0,0.0,0.0,0.0,0.0,0.0,0.0,0.0,0.0,0.0,0.0,0.0,0.0,0.0,0.0,0.0,0.0,0.0,0.2673,0.0,0.0,0.0,0.0,0.0,0.0,0.0,0.0,0.0,0.0,0.0,0.0,0.0,0.3819,0.0,0.0,0.445,0.4738,0.5039,0.5085,0.511,0.5299,0.4841,0.4443,0.4578,0.4748,0.4836,0.4705,0.5318,0.5809,0.5809,0.0,0.0,0.0,0.0,0.0,0.0,0.0,0.0,0.0,0.0,0.0,1.42,1.4951,1.5154,1.4425,1.4338,1.4338,1.4338,1.3317,1.2592,1.2305,1.1781,1.1409,1.1105,1.0846,1.0657,1.0459,1.0264,1.0118,0.9983,1.0117,1.0238,0.0,1.0364,1.0434,1.0498,1.0371,1.0434,1.0498,1.0498,1.0561,1.0611,0.0,0.0,0.0,0.0,0.0,0.0,0.0,0.0,0.0,0.0,0.0,0.0,0.0,0.0,0.0,0.0,0.0,0.0,0.0,0.0,0.0,0.0,0.0,0.0,0.0,0.0,0.0,0.2762,0.2926,0.3023,0.3109,0.0,0.0,0.0,0.0,0.0,0.0,0.0,0.0,0.0,0.0,0.0,0.0,0.0,0.0,0.0,0.0,0.0,0.0,0.0,0.0,0.0,0.0,0.0,0.0,0.0,0.0,0.0,0.0,0.0,0.0,0.0,0.5017,0.5162,0.5162,0.5425,0.0,0.5188,0.5443,0.5658,0.5351,0.5663,0.6019,0.6019,0.0,0.0,0.0,0.0,0.0,0.0,0.0,0.0,0.0,0.0,0.0,1.468,1.528,1.572,1.572,1.5745,1.5762,1.5762,1.4394,1.3317,1.2445,1.2445,1.199,1.123,1.0961,1.0692,1.0429,1.03,1.0164,0.0,0.9983,1.018,1.0498,1.0174,1.011,1.0238,1.0047,1.011,1.0308,1.0308,1.0428,1.0521,0.0,0.0,0.0,0.0,0.0,0.0,0.0,0.0,0.0,0.0,0.0,0.0,0.0,0.0,0.0,0.0,0.0,0.0,0.0,0.0,0.0,0.0,0.0,0.0,0.0,0.0,0.0,0.3309,0.3744,0.4039,0.4151,0.4664,0.0,0.0,0.0,0.0,0.0,0.0,0.0,0.0,0.0,0.0,0.0,0.0,0.0,0.0,0.4338,0.4434,0.0,0.0,0.0,0.0,0.0,0.0,0.0,0.0,0.4567,0.5043,0.5014,0.0,0.5247,0.5608,0.5749,0.5793,0.0,0.5571,0.0,0.0,0.0,0.0,0.0,0.0,0.0,0.0,0.0,0.0,0.0,0.0,0.0,0.0,0.0,0.0,0.0,0.0,0.0,1.4664,1.4874,1.4949,1.4949,1.5206,1.5352,1.5352,1.5283,1.4848,1.4099,1.3528,1.2984,1.2458,1.2207,1.1899,1.1532,1.0782,1.0424,1.0364,0.9989,0.9932,0.9996,0.9989,1.0047,1.0047,1.0047,1.0047,1.0047,1.0047,1.0174,1.0358,0.0,0.0,0.0,0.0,0.0,0.0,0.0,0.0,0.0,0.0,0.0,0.0,0.0,0.0,0.0,0.0,0.0,0.0,0.0,0.0,0.0,0.0,0.0,0.0,0.0,0.0,0.0,0.0,0.0,0.4134,0.0,0.0,0.0,0.0,0.0,0.0,0.0,0.0,0.0,0.0,0.4244,0.0,0.0,0.0,0.0,0.0,0.5086,0.5206,0.0,0.5206,0.5126,0.5055,0.0,0.0,0.0,0.0,0.5263,0.5661,0.5762,0.5676,0.5649,0.5984,0.6062,0.6062,0.0,0.0,0.0,0.0,0.0,0.0,0.0,0.0,0.0,0.0,0.0,0.0,0.0,0.0,0.0,0.0,0.0,0.0,0.0,0.0,1.4815,1.5002,1.4815,1.4684,1.4684,1.4863,1.4975,1.4975,1.518,1.5083,1.4601,1.4024,1.3517,1.2917,1.2436,1.1918,1.1428,1.0809,1.0358,1.018,0.9804,0.974,0.9862,0.9798,0.9798,0.9926,0.9798,0.9983,1.0301,1.0053,1.0238,1.0724,0.0,0.0,0.0,0.0,0.0,0.0,0.0,0.0,0.0,0.0,0.0,0.0,0.0,0.0,0.0,0.0,0.0,0.0,0.0,0.0,0.0,0.0,0.0,0.0,0.0,0.0,0.0,0.0,0.0,0.0,0.0,0.0,0.5387,0.0,0.0,0.0,0.0,0.0,0.0,0.0,0.508,0.0,0.0,0.0,0.0,0.0,0.0,0.0,0.0,0.5936,0.5905,0.5874,0.5874,0.0,0.0,0.0,0.0,0.0,0.6384,0.6098,0.5877,0.6229,0.6227,0.627,0.0,0.0,0.0,0.0,0.0,0.0,0.0,0.0,0.0,0.0,0.0,0.0,0.0,0.0,0.0,0.0,0.0,0.0,0.0,1.4655,1.4827,1.5268,1.4956,1.4698,1.4642,1.4685,1.4655,1.4598,1.4658,1.4706,1.4592,1.4311,1.3799,1.3048,1.2351,1.1732,1.1163,1.0655,1.0231,0.9862,0.0,0.0,0.9926,0.9606,0.9612,0.974,0.9548,0.9926,1.0555,0.9989,1.0301,1.0954,0.0,0.0,0.0,0.0,0.0,0.0,0.0,0.0,0.0,0.0,0.0,0.0,0.0,0.0,0.0,0.0,0.0,0.0,0.0,0.0,0.0,0.0,0.0,0.0,0.0,0.0,0.0,0.0,0.0,0.0,0.4803,0.5847,0.6639,0.0,0.0,0.0,0.6435,0.5714,0.5574,0.5773,0.5552,0.0,0.0,0.0,0.0,0.0,0.0,0.0,0.0,0.6659,0.6468,0.6222,0.6222,0.0,0.0,0.0,0.0,0.0,0.6471,0.6548,0.6718,0.6846,0.6852,0.6852,0.0,0.0,0.0,0.0,0.0,0.0,0.0,0.0,0.0,0.0,0.0,0.0,0.0,0.0,0.0,0.0,0.0,0.0,0.0,1.4145,1.449,1.4962,1.4902,1.4731,1.4317,1.4622,1.4612,1.4187,1.4504,1.4669,1.4713,1.4654,1.4402,1.3944,1.3036,1.2505,1.222,1.0919,1.0345,1.0364,0.0,0.9548,0.9548,0.9548,0.9548,0.9548,0.9484,0.9612,0.967,0.9612,0.974,1.0047,0.0,0.0,0.0,0.0,0.0,0.0,0.0,0.0,0.0,0.0,0.0,0.0,0.0,0.0,0.0,0.0,0.0,0.0,0.0,0.0,0.0,0.0,0.0,0.0,0.0,0.0,0.0,0.0,0.0,0.5365,0.5947,0.6464,0.7018,0.752,0.0,0.0,0.6889,0.6374,0.6344,0.6656,0.0,0.0,0.0,0.0,0.0,0.0,0.0,0.0,0.0,0.0,0.7065,0.6945,0.6945,0.0,0.0,0.0,0.0,0.0,0.676,0.682,0.6966,0.7086,0.7073,0.7188,0.0,0.0,0.0,0.0,0.0,0.0,0.0,0.0,0.0,0.0,0.0,0.0,0.0,0.0,0.0,0.0,0.0,0.0,1.4783,1.4436,1.4488,1.5254,1.4588,1.4172,1.4189,1.4109,1.4013,1.3776,1.3956,1.405,1.405,1.3592,1.3418,1.3371,1.279,1.2039,1.1142,1.0584,1.0155,0.9849,0.0,0.9484,0.9484,0.9484,0.9484,0.9484,0.9484,0.9734,1.0047,1.0231,1.011,0.9989,0.0,0.0,0.0,0.0,0.0,0.0,0.0,0.0,0.0,0.0,0.0,0.0,0.0,0.0,0.0,0.0,0.0,0.0,0.0,0.0,0.0,0.0,0.0,0.0,0.0,0.0,0.5129,0.553,0.5568,0.6091,0.7072,0.6876,0.7073,0.0,0.0,0.0,0.7285,0.7029,0.7098,0.7412,0.0,0.0,0.0,0.0,0.0,0.0,0.0,0.0,0.0,0.0,0.0,0.0,0.0,0.0,0.0,0.7412,0.7235,0.7024,0.7097,0.7128,0.7177,0.7326,0.0,0.0,0.0,0.0,0.0,0.0,0.0,0.0,0.0,0.0,0.0,0.0,0.0,0.0,0.0,0.0,0.0,0.0,0.0,1.5186,1.5633,1.4902,1.4784,1.5798,1.4588,1.3992,1.4359,1.3941,1.3631,1.3511,1.3511,1.3511,1.3511,1.2887,1.2647,1.2727,1.2017,1.1142,1.0085,1.0021,0.9709,0.9338,0.9414,0.9484,0.9484,0.9484,0.9484,0.9484,0.9484,0.9862,1.0364,1.0611,1.0428,1.011,0.0,0.0,0.0,0.0,0.0,0.0,0.0,0.0,0.0,0.0,0.0,0.0,0.0,0.0,0.0,0.0,0.0,0.0,0.0,0.0,0.0,0.0,0.0,0.0,0.0,0.4999,0.5018,0.5057,0.5777,0.6628,0.7531,0.6961,0.7073,0.7695,0.0,0.0,0.7559,0.7549,0.753,0.748,0.746,0.0,0.0,0.0,0.0,0.0,0.0,0.0,0.0,0.0,0.0,0.0,0.0,0.0,0.748,0.7412,0.7373,0.7377,0.7434,0.746,0.7549,0.7861,0.0,0.0,0.0,0.0,0.0,0.0,0.0,0.0,0.0,0.0,0.0,0.0,0.0,0.0,0.0,0.0,0.0,0.0,1.4972,1.5186,1.5633,1.5196,1.5254,1.6259,1.5371,1.4834,1.4834,1.4419,1.3941,1.3502,1.3511,1.3511,1.3511,1.3442,1.3086,1.2482,1.078,1.0085,1.0275,0.9454,0.9145,0.9338,0.9414,0.9484,0.9484,0.9484,0.9484,0.9484,0.9484,0.9676,0.9868,0.9868,1.0053,1.0308,0.0,0.0,0.0,0.0,0.0,0.0,0.0,0.0,0.0,0.0,0.0,0.0,0.0,0.0,0.0,0.0,0.0,0.0,0.0,0.0,0.0,0.0,0.0,0.532,0.532,0.539,0.5526,0.5683,0.6192,0.6668,0.7111,0.6949,0.0,0.0,0.0,0.0,0.8298,0.8315,0.8259,0.8127,0.8213,0.807,0.0,0.0,0.0,0.0,0.0,0.0,0.0,0.0,0.7928,0.7928,0.0,0.0,0.7889,0.7753,0.7588,0.745,0.7348,0.7564,0.7835,0.7904,0.0,0.0,0.0,0.0,0.0,0.0,0.0,0.0,0.0,0.0,0.0,0.0,0.0,0.0,0.0,0.0,0.0,1.4994,1.4972,1.506,1.5233,1.4564,1.4564,1.546,1.4165,1.3548,1.411,1.3501,1.2989,1.2817,1.2398,1.2225,1.2299,1.135,1.0813,1.0754,1.0719,1.0275,0.9454,0.9268,0.9122,0.9045,0.9342,0.9382,0.9238,0.9412,0.9484,0.9484,0.9612,0.9676,0.9676,0.9989,1.0117,1.0174,0.0,0.0,0.0,0.0,0.0,0.0,0.0,0.0,0.0,0.0,0.0,0.0,0.0,0.0,0.0,0.0,0.0,0.0,0.0,0.0,0.0,0.0,0.0,0.5494,0.531,0.5573,0.5704,0.5692,0.5755,0.6091,0.6709,0.0,0.0,0.0,0.0,0.0,0.0,0.0,0.8871,0.8717,0.8745,0.854,0.0,0.0,0.0,0.0,0.0,0.0,0.0,0.0,0.8187,0.0,0.0,0.0,0.0,0.0,0.7831,0.7695,0.7662,0.7918,0.8203,0.0,0.0,0.0,0.0,0.0,0.0,0.0,0.0,0.0,0.0,0.0,0.0,0.0,0.0,0.0,0.0,0.0,1.4831,1.4976,1.4759,1.4676,1.4819,1.4131,1.3961,1.4556,1.3368,1.2885,1.3476,1.2822,1.2389,1.2389,1.188,1.1656,1.1728,1.0587,0.9948,0.984,1.0608,1.0192,0.8845,0.897,0.898,0.8898,0.9122,0.9166,0.9138,0.9184,0.928,0.9415,0.9542,0.9597,0.9612,0.9989,1.0117,1.0117,0.0,0.0,0.0,0.0,0.0,0.0,0.0,0.0,0.0,0.0,0.0,0.0,0.0,0.0,0.0,0.0,0.0,0.0,0.0,0.0,0.0,0.0,0.0,0.5451,0.491,0.5426,0.5401,0.4794,0.4271,0.4853,0.6489,0.6041,0.0,0.0,0.0,0.0,0.0,0.0,0.9339,0.9178,0.891,0.886,0.8915,0.0,0.0,0.0,0.0,0.0,0.0,0.0,0.8187,0.0,0.0,0.0,0.0,0.0,0.8093,0.8184,0.8511,0.8601,0.0,0.0,0.0,0.0,0.0,0.0,0.0,0.0,0.0,0.0,0.0,0.0,0.0,0.0,0.0,0.0,0.0,0.0,1.4469,1.4925,1.4205,1.389,1.4337,1.3951,1.3727,1.3771,1.3304,1.3032,1.3077,1.2648,1.2381,1.2381,1.2103,1.1991,1.1991,1.172,1.1099,1.0193,1.0193,0.9615,0.851,0.851,0.8651,0.8868,0.8729,0.8825,0.9101,0.8783,0.8831,0.9126,0.9126,0.9363,0.9804,0.9798,0.9983,1.0301,0.0,0.0,0.0,0.0,0.0,0.0,0.0,0.0,0.0,0.0,0.0,0.0,0.0,0.0,0.0,0.0,0.0,0.0,0.0,0.0,0.0,0.0,0.0,0.0,0.0,0.0,0.4937,0.4521,0.4748,0.5393,0.0,0.0,0.0,0.9149,0.0,0.0,0.0,0.0,1.0042,0.9473,0.9555,0.9463,0.9304,0.0,0.0,0.0,0.0,0.0,0.0,0.0,0.0,0.0,0.0,0.0,0.0,0.8096,0.8217,0.8521,0.8539,0.0,0.0,0.0,0.0,0.0,0.0,0.0,0.0,0.0,0.0,0.0,0.0,0.0,0.0,0.0,0.0,0.0,0.0,1.391,1.3869,1.4014,1.3803,1.3567,1.3442,1.3082,1.2881,1.2881,1.222,1.1963,1.222,1.1653,1.1341,1.1341,1.0598,1.0219,1.0325,0.9456,0.8984,0.8943,0.8616,0.8484,0.8622,0.8622,0.8562,0.8473,0.8633,0.8615,0.8543,0.8831,0.9053,0.9132,0.9248,0.9425,0.9588,0.9775,0.9822,0.9822,0.0,0.0,0.0,0.0,0.0,0.0,0.0,0.0,0.0,0.0,0.0,0.0,0.0,0.0,0.0,0.0,0.0,0.0,0.0,0.0,0.0,0.0,0.0,0.0,0.0,0.5323,0.5087,0.0,0.0,0.0,0.0,0.0,0.0,0.9627,0.0,1.0125,0.0,0.0,1.0381,0.9802,0.9854,0.979,0.971,0.0,0.0,0.0,0.0,0.0,0.0,0.0,0.0,0.0,0.0,0.0,0.0,0.8637,0.8837,0.9287,0.939,0.0,0.0,0.0,0.0,0.0,0.0,0.0,0.0,0.0,0.0,0.0,0.0,0.0,0.0,0.0,0.0,1.3621,1.3621,1.3621,1.3621,1.3621,1.3334,1.3132,1.3016,1.255,1.2274,1.2274,1.1819,1.1569,1.1678,1.1175,1.0922,1.0922,1.0095,0.9673,0.9777,0.8981,0.856,0.8474,0.8362,0.8323,0.8306,0.8369,0.8339,0.8297,0.8453,0.8375,0.8159,0.8477,0.8729,0.8975,0.9095,0.9199,0.9361,0.9636,0.9564,0.9462,0.0,0.0,0.0,0.0,0.0,0.0,0.0,0.0,0.0,0.0,0.0,0.0,0.0,0.0,0.0,0.0,0.0,0.0,0.0,0.0,0.0,0.0,0.0,0.0,0.0,0.0,0.0,0.0,0.0,0.0,0.0,0.0,0.7686,0.9873,0.0,1.0225,0.0,1.0719,1.0476,1.0072,0.9956,0.9943,1.0059,1.0466,0.0,0.0,0.0,0.0,0.0,0.0,0.0,0.0,0.0,0.0,0.9775,0.9514,0.9761,1.0255,0.0,0.0,0.0,0.0,0.0,0.0,0.0,0.0,0.0,0.0,0.0,0.0,0.0,0.0,0.0,0.0,1.3658,1.3668,1.3621,1.3621,1.3621,1.3621,1.3007,1.2706,1.2929,1.2353,1.1927,1.1828,1.1828,1.1628,1.1226,1.1023,1.0871,1.082,1.0308,0.9999,0.9947,0.9673,0.9249,0.8626,0.8942,0.8573,0.7723,0.7895,0.8088,0.8255,0.8255,0.8123,0.7907,0.7925,0.8213,0.8645,0.8645,0.8801,0.9089,0.9266,0.9273,0.9157,0.0,0.0,0.0,0.0,0.0,0.0,0.0,0.0,0.0,0.0,0.0,0.0,0.0,0.0,0.0,0.0,0.0,0.0,0.0,0.0,0.0,0.0,0.0,0.0,0.0,0.0,0.0,0.0,0.0,0.0,0.0,0.0,0.0,1.0421,0.0,1.0803,1.1374,1.0966,1.0476,1.0059,1.0544,1.0494,1.0187,1.0548,1.0631,0.0,0.0,0.0,0.0,0.0,0.0,0.0,0.948,0.9607,0.9536,1.0162,1.0407,1.0601,0.0,0.0,0.0,0.0,0.0,0.0,0.0,0.0,0.0,0.0,0.0,0.0,0.0,0.0,0.0,0.0,1.4233,1.4093,1.3658,1.3621,1.3621,1.3621,1.3478,1.3142,1.2657,1.2471,1.2026,1.1175,1.1124,1.0972,1.0675,1.082,1.0667,1.0205,1.0249,1.0087,0.9673,0.9316,0.8949,0.8573,0.8302,0.8037,0.7723,0.8103,0.8193,0.7985,0.7985,0.7955,0.7919,0.8123,0.8273,0.8375,0.8375,0.8531,0.8794,0.8876,0.8928,0.8927,0.0,0.0,0.0,0.0,0.0,0.0,0.0,0.0,0.0,0.0,0.0,0.0,0.0,0.0,0.0,0.0,0.0,0.0,0.0,0.0,0.0,0.0,0.0,0.0,0.0,0.0,0.0,0.0,0.0,0.0,0.0,0.0,0.0,1.001,0.0,1.0498,1.0973,1.0791,1.0422,1.0046,1.0617,1.0762,1.0702,1.1427,1.1538,1.1277,1.1203,0.0,0.0,0.0,0.0,0.0,0.0,0.0,1.0414,1.0772,1.1078,1.141,0.0,0.0,0.0,0.0,0.0,0.0,0.0,0.0,0.0,0.0,0.0,0.0,0.0,0.0,0.0,1.4158,1.4036,1.382,1.332,1.3476,1.3621,1.3621,1.342,1.3228,1.3045,1.2715,1.2323,1.1819,1.1669,1.1377,1.0922,1.0871,1.0616,0.9999,0.9984,0.9873,0.9614,0.9413,0.9099,0.8791,0.8521,0.8256,0.7943,0.8109,0.8055,0.7901,0.7901,0.7901,0.7913,0.8045,0.8177,0.8291,0.8397,0.8545,0.8643,0.8496,0.8361,0.8306,0.0,0.0,0.0,0.0,0.0,0.0,0.0,0.0,0.0,0.0,0.0,0.0,0.0,0.0,0.0,0.0,0.0,0.0,0.0,0.0,0.0,0.0,0.0,0.0,0.0,0.0,0.0,0.0,0.0,0.0,0.0,0.0,0.0,0.9428,0.0,0.0,1.0286,1.0399,1.0316,1.0146,1.0646,1.0997,1.1309,1.2381,1.2396,1.1963,1.2418,1.1944,1.1105,1.1061,0.0,0.0,0.0,0.0,1.1439,1.1547,1.178,1.213,0.0,0.0,0.0,0.0,0.0,0.0,0.0,0.0,0.0,0.0,0.0,0.0,0.0,0.0,0.0,1.3806,1.3598,1.334,1.2865,1.3207,1.3496,1.359,1.3311,1.3256,1.361,1.2997,1.2618,1.2657,1.2314,1.1819,1.1217,1.0964,1.0557,0.9947,0.9829,0.9718,0.9614,0.9614,0.9413,0.9008,0.8903,0.8639,0.8168,0.8008,0.7901,0.7901,0.7788,0.7735,0.7741,0.7628,0.7749,0.7941,0.8102,0.8157,0.8157,0.804,0.779,0.7563,0.0,0.0,0.0,0.0,0.0,0.0,0.0,0.0,0.0,0.0,0.0,0.0,0.0,0.0,0.0,0.0,0.0,0.0,0.4543,0.0,0.0,0.9344,0.9187,0.0,0.0,0.0,0.0,0.0,0.0,0.0,0.0,0.0,0.0,0.9428,0.0,0.0,0.0,1.0005,1.015,1.056,1.1161,1.1475,1.1687,1.2385,1.2653,1.2633,1.2539,1.245,1.2321,1.2105,1.1465,0.0,0.0,0.0,1.1339,1.2705,1.2479,0.0,0.0,0.0,0.0,0.0,0.0,0.0,0.0,0.0,0.0,0.0,0.0,0.0,0.0,0.0,0.0,1.3828,1.3346,1.2925,1.2444,1.273,1.3156,1.3606,1.3605,1.36,1.3779,1.3256,1.2725,1.2169,1.1543,1.104,1.0728,1.0541,1.0241,0.9666,1.0087,1.0087,0.9614,0.9614,0.9413,0.9008,0.854,0.8275,0.8168,0.8008,0.7901,0.7848,0.7408,0.7192,0.7192,0.6647,0.644,0.647,0.6524,0.6519,0.6628,0.7328,0.7203,0.6858,0.0,0.0,0.0,0.0,0.0,0.0,0.0,0.0,0.0,0.0,0.0,0.0,0.0,0.0,0.0,0.0836,0.2586,0.4644,0.7063,0.865,0.9665,1.0028,0.9621,0.9426,0.0,0.0,0.0,0.0,0.0,0.0,0.0,1.0476,1.0306,0.0,0.0,0.0,0.0,0.0,0.0,1.0725,1.1609,1.2021,1.2228,1.2871,1.3154,1.3233,1.3233,1.3167,1.3027,1.2914,1.2543,1.2225,1.2586,0.0,0.0,0.0,0.0,0.0,0.0,0.0,0.0,0.0,0.0,0.0,0.0,0.0,0.0,0.0,0.0,0.0,0.0,0.0,1.4234,1.3084,1.2918,1.2753,1.235,1.2648,1.3066,1.3602,1.3637,1.361,1.3695,1.3457,1.317,1.2812,1.2521,1.2089,1.1534,1.1443,1.0998,1.0087,1.03,1.0293,1.0035,0.9769,0.9413,0.9008,0.8586,0.8321,0.8168,0.7895,0.7842,0.7901,0.7628,0.7574,0.7521,0.6918,0.6701,0.6696,0.6421,0.6367,0.648,0.6961,0.702,0.6918,0.0,0.0,0.0,0.0,0.0,0.0,0.0,0.0,0.0,0.0,0.0,0.0,0.0,0.0,0.0,0.0,0.3094,0.5513,0.9404,0.984,1.0127,1.0521,1.0086,0.9897,1.0041,0.0,0.0,0.0,0.0,0.0,1.1092,1.1443,1.1243,0.0,1.0255,0.0,0.0,0.0,0.0,0.0,0.0,1.2239,0.0,0.0,1.3331,1.35,1.3822,1.3833,1.3672,1.351,1.3365,1.3285,1.3135,1.3101,0.0,0.0,0.0,0.0,0.0,0.0,0.0,0.0,0.0,0.0,0.0,0.0,0.0,0.0,0.0,0.0,0.0,0.0,1.3521,1.2452,1.2316,1.2233,1.1965,1.241,1.2931,1.3411,1.3523,1.3668,1.381,1.3668,1.3563,1.3467,1.3218,1.2774,1.2197,1.1751,1.1113,1.0226,1.0124,1.0074,1.0074,0.9784,0.9413,0.9008,0.8738,0.8362,0.7889,0.7616,0.7456,0.7408,0.7628,0.7628,0.7408,0.6864,0.6534,0.6426,0.6095,0.6041,0.6154,0.6534,0.6642,0.6593,0.0,0.0,0.0,0.0,0.0,0.0,0.0,0.0,0.0,0.0,0.0,0.0,0.0,-0.0973,-0.0546,0.033,0.3297,0.6747,1.0653,1.1047,1.1006,1.0705,1.0726,0.0,1.0758,0.0,0.0,0.0,0.0,0.0,1.1832,1.1754,1.1907,1.2239,1.1455,1.078,1.0276,0.0,0.0,0.0,0.0,0.0,0.0,0.0,0.0,0.0,0.0,1.4373,1.4432,1.3796,1.3581,1.3581,1.3581,1.3702,1.3802,0.0,0.0,0.0,0.0,0.0,0.0,0.0,0.0,0.0,0.0,0.0,0.0,0.0,0.0,0.0,0.0,0.0,0.0,1.2289,1.1513,1.0992,1.1002,1.1747,1.251,1.2997,1.3355,1.381,1.4326,1.3905,1.3621,1.361,1.2667,1.2061,1.2012,1.0565,0.9733,0.9634,0.9395,0.9247,0.9247,0.9475,0.9413,0.9008,0.8738,0.8084,0.7165,0.7015,0.6632,0.6145,0.6858,0.681,0.6263,0.566,0.5117,0.4629,0.4739,0.4798,0.4908,0.5727,0.5673,0.5289,0.0,0.0,0.0,0.0,0.0,0.0,0.0,0.0,0.0,0.0,0.0,0.0,0.0,-0.0932,0.0345,0.3438,0.7258,1.0132,1.1614,1.1564,1.1394,1.1265,1.1219,1.1194,1.1269,1.15,0.0,0.0,0.0,1.243,1.2349,1.2555,1.2716,1.2817,1.1952,1.1567,1.161,1.2237,0.0,0.0,0.0,0.0,0.0,0.0,0.0,0.0,0.0,0.0,1.5332,1.5078,1.48,1.4564,1.4564,1.4658,1.469,1.4084,0.0,0.0,0.0,0.0,0.0,0.0,0.0,0.0,0.0,0.0,0.0,0.0,0.0,0.0,0.0,0.0,0.0,1.1495,1.1308,1.1414,1.1736,1.21,1.2569,1.3278,1.3507,1.3668,1.3858,1.3716,1.3621,1.3621,1.2861,1.2203,1.175,1.0737,0.9803,0.8974,0.8879,0.874,0.8557,0.9095,0.9093,0.858,0.7818,0.7331,0.7058,0.647,0.615,0.6036,0.6367,0.6372,0.6154,0.555,0.5171,0.5007,0.4684,0.4684,0.4904,0.5614,0.5832,0.5832,0.0,0.0,0.0,0.0,0.0,0.0,0.0,0.0,0.0,0.0,0.0,0.0,0.0,0.0,0.2796,0.6487,0.9633,1.1626,1.2097,1.2009,1.1951,1.1993,1.1925,1.2038,1.2361,1.2337,0.0,0.0,0.0,0.0,0.0,0.0,1.3129,1.3012,1.2426,1.2291,0.0,0.0,0.0,1.329,0.0,0.0,1.4036,0.0,0.0,0.0,0.0,0.0,0.0,1.5566,1.5037,1.4499,1.4945,0.0,0.0,0.0,0.0,0.0,0.0,0.0,0.0,0.0,0.0,0.0,0.0,0.0,0.0,0.0,0.0,0.0,0.0,0.0,0.0,1.1195,1.1115,1.1239,1.1624,1.1804,1.2176,1.2853,1.3189,1.3276,1.3218,1.3218,1.311,1.2807,1.2157,0.0,1.0955,1.0056,0.9105,0.8165,0.8112,0.8031,0.7802,0.826,0.819,0.753,0.686,0.6465,0.6253,0.5714,0.5386,0.5164,0.5496,0.5719,0.5828,0.5218,0.5003,0.4952,0.446,0.4515,0.4952,0.5395,0.5723,0.5887,0.0,0.0,0.0,0.0,0.0,0.0,0.0,0.0,0.0,0.0,0.0,0.0,0.0,0.0,0.0,0.9119,1.0118,1.1091,1.2195,1.2522,1.2718,1.2847,1.2847,1.3228,1.407,1.3603,0.0,0.0,0.0,0.0,0.0,0.0,1.3082,0.0,1.2896,1.2872,1.2888,0.0,1.4094,1.3941,0.0,1.2419,1.3502,0.0,0.0,0.0,1.5081,1.5473,0.0,1.5179,0.0,0.0,0.0,0.0,0.0,0.0,0.0,0.0,0.0,0.0,0.0,0.0,0.0,0.0,0.0,0.0,0.0,0.0,0.0,0.0,0.0,0.0,0.0,1.1502,1.0899,1.0438,1.0438,1.0871,1.1271,1.1553,1.2258,1.2609,1.2346,1.2346,1.2031,1.1208,1.046,0.9914,0.9541,0.8259,0.739,0.7135,0.7096,0.7046,0.693,0.7022,0.6635,0.578,0.5935,0.555,0.4691,0.4846,0.4349,0.3469,0.4187,0.4791,0.5222,0.4611,0.4395,0.4408,0.3962,0.4236,0.4897,0.5014,0.5183,0.5297,0.0,0.0,0.0,0.0,0.0,0.0,0.0,0.0,0.0,0.0,0.0,0.0,0.0,0.0,0.0,1.2089,1.3091,1.3675,1.3848,1.4028,1.4063,1.3969,1.3852,1.3905,1.4084,1.3984,0.0,0.0,0.0,0.0,0.0,0.0,0.0,0.0,1.299,1.3234,1.3611,1.3952,0.0,0.0,1.4213,1.4541,0.0,0.0,0.0,0.0,0.0,1.6762,1.6388,0.0,1.5728,1.5207,0.0,0.0,0.0,0.0,0.0,0.0,1.368,0.0,0.0,0.0,0.0,0.0,0.0,0.0,0.0,0.0,0.0,0.0,0.0,0.0,0.0,0.0,1.1335,1.1175,1.0944,1.0928,1.0927,1.0969,1.1157,1.1167,1.0859,1.0941,1.0841,0.0,0.9399,0.8482,0.7812,0.6196,0.5252,0.5169,0.5279,0.5343,0.541,0.6007,0.599,0.5375,0.5573,0.5344,0.4688,0.4467,0.4245,0.3971,0.3907,0.4181,0.468,0.4067,0.3846,0.3849,0.3683,0.3901,0.4284,0.4787,0.5124,0.5297,0.0,0.0,0.0,0.0,0.0,0.0,0.0,0.0,0.0,0.0,0.0,0.0,0.0,0.0,0.0,1.3737,1.4336,1.4592,1.4483,1.453,1.4672,1.4844,1.4772,1.4806,1.4917,1.4846,0.0,0.0,0.0,0.0,0.0,0.0,0.0,0.0,0.0,0.0,0.0,0.0,0.0,0.0,1.4529,0.0,0.0,1.555,1.592,0.0,0.0,0.0,1.6413,1.6263,1.6069,0.0,0.0,0.0,0.0,0.0,0.0,0.0,0.0,0.0,0.0,0.0,0.0,0.0,1.2481,1.2419,1.2246,0.0,1.1697,0.0,0.0,0.0,0.0,0.0,1.0895,1.0427,1.0525,1.0072,0.9684,0.9716,0.9841,0.969,0.8974,0.9202,0.9046,0.832,0.7685,0.6942,0.5991,0.4935,0.436,0.436,0.4321,0.4286,0.4389,0.4803,0.4827,0.4346,0.4616,0.4624,0.4298,0.4245,0.4082,0.3858,0.3685,0.368,0.3738,0.3347,0.3514,0.3959,0.3683,0.3901,0.4398,0.468,0.5018,0.5297,0.0,0.0,0.0,0.0,0.0,0.0,0.0,0.0,0.0,0.0,0.0,0.0,0.0,0.0,0.0,0.0,1.4529,1.46,1.4576,1.4576,0.0,1.5565,1.5565,1.5718,1.608,1.5811,0.0,0.0,0.0,0.0,0.0,0.0,0.0,0.0,0.0,0.0,0.0,0.0,0.0,1.5006,1.4034,1.4569,0.0,0.0,1.483,1.6148,1.574,1.5812,1.6011,1.5682,1.574,0.0,0.0,0.0,0.0,0.0,1.5507,0.0,0.0,0.0,0.0,0.0,0.0,0.0,1.2329,1.2347,1.1868,1.0249,1.0926,0.0,0.0,0.0,0.0,0.0,0.9981,0.9028,0.9594,0.8804,0.8136,0.8187,0.846,0.8182,0.7014,0.7245,0.6993,0.5718,0.5575,0.5038,0.3843,0.3884,0.3932,0.3932,0.3693,0.3605,0.3718,0.3737,0.3595,0.3171,0.3568,0.3746,0.3796,0.4024,0.386,0.3469,0.3516,0.3292,0.2903,0.2847,0.3403,0.4239,0.3793,0.407,0.4791,0.4743,0.4912,0.5242,0.9366,0.0,0.0,0.0,0.0,0.0,0.0,0.0,0.0,0.0,0.0,0.0,0.0,0.0,0.0,0.0,0.0,1.5902,1.5604,1.5713,1.5868,1.6126,1.6034,1.5985,1.6024,1.5968,0.0,0.0,0.0,0.0,0.0,0.0,0.0,0.0,0.0,0.0,0.0,0.0,0.0,1.4443,1.5034,0.0,1.5849,1.5637,1.5783,1.6067,1.5726,1.5697,1.5885,1.6026,1.587,1.5637,0.0,0.0,0.0,1.6416,0.0,0.0,0.0,0.0,0.0,0.0,0.0,0.0,1.2618,1.193,1.1319,0.0,1.0708,0.0,0.0,0.0,0.0,0.0,0.9896,0.9523,0.9036,0.8635,0.8018,0.7116,0.689,0.6498,0.5702,0.5647,0.5287,0.4512,0.301,0.1739,0.0753,0.1288,0.1647,0.1647,0.2049,0.2546,0.3057,0.3805,0.3847,0.3129,0.4031,0.4216,0.3796,0.3635,0.3749,0.4027,0.3239,0.3347,0.4125,0.3627,0.3292,0.307,0.3458,0.3793,0.4073,0.4522,0.4798,0.5011,0.9976,0.0,0.0,0.0,0.0,0.0,0.0,0.0,0.0,0.0,0.0,0.0,0.0,0.0,0.0,0.0,0.0,0.0,0.0,0.0,1.6052,1.6231,1.6737,1.678,1.6367,1.6737,0.0,0.0,0.0,0.0,0.0,0.0,0.0,0.0,0.0,0.0,0.0,0.0,1.5216,1.5964,1.561,0.0,1.5687,1.6437,1.654,1.6347,1.6361,1.6112,1.5856,1.6222,1.6234,0.0,0.0,1.7036,1.7246,0.0,1.6914,1.6593,0.0,0.0,0.0,1.4847,0.0,0.0,0.0,1.1799,1.1339,1.1791,1.1096,1.0291,0.9982,0.0,0.9338,0.987,0.8941,0.8255,0.8548,0.8086,0.7301,0.6211,0.5914,0.529,0.3915,0.3936,0.3559,0.2381,0.1079,-0.0045,-0.1012,-0.0633,-0.0181,0.0277,0.1085,0.1657,0.202,0.2569,0.2668,0.2267,0.3453,0.3902,0.3691,0.3747,0.3913,0.4079,0.3405,0.3514,0.4015,0.3738,0.3403,0.3236,0.3793,0.4128,0.4298,0.4519,0.4739,0.4897,1.0656,0.0,0.0,0.0,0.0,0.0,0.0,0.0,0.0,0.0,0.0,0.0,0.0,0.0,0.0,0.0,0.0,0.0,0.0,0.0,0.0,1.6381,1.748,1.7828,1.7332,1.7839,1.7387,0.0,0.0,0.0,0.0,0.0,0.0,0.0,0.0,0.0,0.0,0.0,0.0,1.7055,0.0,1.5792,1.5983,1.7171,1.7223,1.6712,1.6877,1.6499,1.605,1.6445,1.6649,1.6853,1.7213,1.7644,0.0,0.0,0.0,0.0,0.0,0.0,0.0,0.0,0.0,1.3677,0.0,0.0,0.0,1.2235,1.1581,0.0,0.0,0.0,0.0,0.0,0.0,0.0,0.0,0.7941,0.0,0.5609,0.535,0.4511,0.2623,0.246,0.1912,0.0402,-0.0268,-0.1046,-0.1888,-0.1925,-0.1506,-0.0613,0.0138,0.0679,0.0906,0.1236,0.1334,0.1169,0.2426,0.3214,0.3585,0.3749,0.3802,0.3799,0.3516,0.3514,0.3627,0.3738,0.3793,0.3849,0.4294,0.4574,0.4632,0.4519,0.4625,0.4791,1.1848,0.0,0.0,0.0,0.0,0.0,0.0,0.0,0.0,0.0,0.0,0.0,0.0,0.0,0.0,0.0,0.0,0.0,1.6312,0.0,0.0,0.0,1.8124,1.8962,1.9515,1.9036,1.8432,1.7729,0.0,0.0,0.0,0.0,0.0,0.0,1.5632,0.0,0.0,0.0,1.6873,0.0,1.703,1.7822,0.0,1.8282,1.7844,1.6908,1.6449,1.6467,1.6698,0.0,1.7067,1.7404,0.0,1.8311,1.9185,1.8128,0.0,0.0,0.0,0.0,0.0,0.0,1.4836,0.0,0.0,0.0,1.1709,1.2551,0.0,0.0,0.0,0.0,0.0,0.0,0.0,0.0,0.9268,0.9189,0.8332,0.5646,0.5255,0.4568,0.297,0.1596,0.0446,-0.0312,-0.0894,-0.1435,-0.1981,-0.2199,-0.202,-0.1308,-0.1342,-0.0894,0.0095,0.0964,0.0999,0.0159,0.1368,0.2563,0.3583,0.2798,0.2685,0.3186,0.2905,0.3125,0.3627,0.4184,0.4405,0.4405,0.446,0.4519,0.4519,0.4519,0.4519,0.4574,1.3073,0.0,0.0,0.0,0.0,0.0,0.0,0.0,0.0,0.0,0.0,0.0,0.0,0.0,0.0,0.0,0.0,1.5731,0.0,0.0,0.0,0.0,1.8979,1.9605,1.9508,1.9677,1.924,1.8114,1.7832,0.0,0.0,0.0,0.0,0.0,1.6697,0.0,1.6661,0.0,1.8288,0.0,0.0,0.0,0.0,1.9452,1.9005,1.8377,1.7753,1.7562,1.7716,0.0,1.8554,0.0,0.0,0.0,0.0,0.0,0.0,0.0,0.0,0.0,0.0,0.0,0.0,0.0,1.4693,0.0,1.3343,0.0,0.0,0.0,0.0,0.0,0.0,0.0,1.2306,0.0,0.0,0.0,0.8885,0.0,0.0,0.0,0.2879,0.1799,0.0907,0.004,-0.0171,-0.0481,-0.104,-0.1309,-0.1315,-0.107,-0.1133,-0.1272,-0.1526,-0.0099,0.1083,0.207,0.1177,0.1756,0.3583,0.319,0.3021,0.313,0.3408,0.3408,0.3125,0.3738,0.3959,0.3959,0.3959,0.4184,0.4519,0.4519,0.4519,0.4519,0.0,0.0,0.0,0.0,0.0,0.0,0.0,0.0,0.0,0.0,0.0,0.0,1.7712,1.6917,0.0,0.0,1.608,1.5882,0.0,0.0,1.7946,0.0,0.0,0.0,0.0,2.0319,1.9969,1.8714,1.8507,0.0,0.0,0.0,0.0,0.0,0.0,1.7744,1.7149,0.0,0.0,1.7503,1.8279,1.9372,2.0494,1.9823,1.9468,1.9227,1.8594,1.8392,1.8531,1.9151,1.9454,0.0,2.1116,0.0,0.0,0.0,0.0,0.0,1.9391,0.0,0.0,0.0,0.0,0.0,0.0,0.0,0.0,0.0,0.0,0.0,0.0,0.0,0.0,0.0,0.0,1.3047,0.0,0.0,0.0,0.0,0.0,0.0,0.0,0.2262,0.1433,0.0589,0.0789,0.0557,-0.031,-0.0552,-0.0681,-0.0752,-0.1186,-0.1648,-0.2111,-0.1123,0.0456,0.2622,0.1526,0.1734,0.3135,0.3474,0.3416,0.3074,0.3524,0.3299,0.2683,0.3183,0.3347,0.3347,0.3347,0.3627,0.4015,0.4184,0.4239,0.4239,1.5912,1.5496,0.0,0.0,0.0,0.0,0.0,0.0,0.0,0.0,0.0,0.0,0.0,0.0,0.0,0.0,0.0,1.5375,1.7074,0.0,1.9271,0.0,0.0,2.0991,0.0,2.1119,2.0747,2.0039,2.0039,0.0,0.0,0.0,0.0,0.0,0.0,1.9095,1.8207,2.0616,1.8768,1.4631,1.9238,2.0862,2.0374,0.0,1.8671,1.8763,1.8214,0.0,0.0,1.8656,1.9088,0.0,0.0,0.0,0.0,0.0,0.0,0.0,0.0,0.0,0.0,1.8377,0.0,0.0,0.0,0.0,1.5655,0.0,0.0,0.0,0.0,0.0,0.0,0.0,0.0,0.0,0.0,0.0,0.0,0.0,0.0,0.0,0.0,0.2822,0.1601,0.1101,0.1694,0.1389,-0.011,-0.0413,-0.0577,-0.072,-0.2236,-0.2328,-0.0859,-0.168,-0.1383,0.0159,0.2403,0.2938,0.1902,0.3086,0.3365,0.2905,0.2631,0.2521,0.2521,0.2683,0.2736,0.2736,0.2736,0.2736,0.2847,0.3403,0.3627,0.3572,0.0,0.0,0.0,0.0,0.0,0.0,0.0,1.6626,0.0,0.0,0.0,0.0,0.0,1.5555,1.521,0.0,0.0,1.55,1.6341,1.7711,0.0,0.0,0.0,2.1214,0.0,0.0,2.0893,2.0342,2.0308,1.9995,0.0,0.0,0.0,0.0,0.0,1.981,0.0,0.0,0.0,0.0,0.0,1.9835,1.9171,0.0,1.9119,1.9406,1.9071,1.8989,0.0,1.9507,2.0147,2.0882,2.1419,2.2288,2.3095,2.2893,2.245,2.1889,0.0,0.0,2.0145,1.9083,0.0,0.0,0.0,0.0,0.0,0.0,0.0,0.0,0.0,0.0,0.0,0.0,0.0,0.0,0.0,0.0,0.0,0.0,0.0,0.0,0.0,0.0,0.0,0.2721,0.2627,0.187,0.0093,-0.0039,-0.0223,-0.0674,-0.1261,-0.1318,-0.0735,-0.0586,0.0152,0.1384,0.2104,0.2603,0.3021,0.3418,0.336,0.2905,0.2907,0.2517,0.1902,0.2069,0.2125,0.2125,0.2125,0.2347,0.2736,0.2903,0.3128,0.3352,1.6359,0.0,0.0,0.0,0.0,0.0,0.0,0.0,0.0,0.0,1.6231,0.0,1.5273,0.0,1.4813,0.0,1.4774,1.5244,1.6361,1.7187,0.0,1.9712,2.04,0.0,0.0,0.0,2.1087,2.0646,2.063,2.0395,0.0,0.0,0.0,0.0,0.0,0.0,1.8334,0.0,1.9332,0.0,0.0,1.8522,0.0,0.0,1.8746,1.9639,0.0,1.925,1.9109,1.9752,2.0304,2.0908,2.19,2.2701,2.3374,2.3631,2.3097,2.2341,2.2017,2.1652,0.0,2.0281,2.0131,0.0,1.91,0.0,1.8855,0.0,0.0,0.0,0.0,0.0,0.0,0.0,0.0,0.0,0.0,1.4349,0.0,0.0,0.0,0.0,0.0,0.0,0.5291,0.3721,0.349,0.2692,0.0,0.0883,0.0499,-0.0179,-0.0331,-0.0332,-0.0225,0.0144,0.0895,0.2015,0.2324,0.2839,0.3585,0.3585,0.3413,0.313,0.2907,0.2404,0.179,0.1568,0.1456,0.1456,0.1456,0.1734,0.2069,0.2291,0.2404,0.2629,0.0,0.0,0.0,0.0,1.6526,0.0,0.0,0.0,1.652,0.0,1.5799,1.5419,1.493,1.42,1.3997,1.4585,1.4062,1.4715,1.7035,1.6746,0.0,0.0,2.0019,2.0336,2.1246,0.0,0.0,0.0,2.1007,0.0,0.0,0.0,0.0,0.0,2.2214,0.0,1.9241,2.0322,1.9365,1.7156,1.7451,1.7232,1.6718,1.6499,1.7622,1.9273,1.9214,1.9008,1.8878,1.9259,1.9534,1.9908,2.099,2.1836,2.2513,2.2892,2.3077,2.3077,2.2625,2.2349,2.2131,2.1844,2.1485,0.0,0.0,0.0,2.01,0.0,0.0,0.0,0.0,0.0,0.0,0.0,0.0,0.0,0.0,0.0,0.0,0.0,0.0,0.0,0.0,0.686,0.5203,0.4223,0.4314,0.0,0.0,0.2233,0.1623,0.0808,0.0531,0.0484,0.0763,0.0467,0.0824,0.1964,0.3044,0.358,0.3574,0.3583,0.3585,0.3527,0.2631,0.2184,0.2128,0.1233,0.0898,0.0898,0.0898,0.0898,0.0953,0.1568,0.1624,0.1514,1.7294,1.7537,1.7766,0.0,1.7873,1.7558,0.0,0.0,0.0,0.0,1.4852,1.4232,1.3241,1.3047,1.3204,1.3742,1.4016,0.0,0.0,0.0,0.0,2.0219,2.1016,2.1637,2.2091,2.1953,2.1807,2.1718,0.0,0.0,2.1413,0.0,0.0,0.0,0.0,0.0,2.0375,2.0527,1.9973,1.897,1.8566,1.8442,1.8506,0.0,1.796,1.7749,1.6393,1.6745,1.7838,1.7748,1.8638,2.0002,2.1348,2.2302,2.2965,2.3171,2.3032,2.2773,2.2493,2.2231,2.1968,2.1655,2.1468,2.1318,0.0,0.0,0.0,0.0,0.0,0.0,0.0,0.0,0.0,0.0,0.0,0.0,0.0,0.0,0.0,1.311,0.0,0.0,1.0399,0.756,0.5903,0.626,0.5892,0.0,0.0,0.0,0.2946,0.2225,0.1519,0.1428,0.1953,0.1555,0.1715,0.2596,0.3064,0.3337,0.3452,0.3542,0.3585,0.3527,0.2631,0.2184,0.2128,0.1233,0.0898,0.0898,0.0898,0.0898,0.0954,0.1289,0.1736,0.2235,1.7789,0.0,0.0,1.8182,0.0,0.0,1.6833,1.641,0.0,1.5056,1.4449,0.0,1.3227,1.3107,1.3313,1.3803,1.4518,0.0,1.7015,0.0,0.0,2.0381,2.1085,2.1692,2.2136,2.2141,0.0,2.2164,0.0,0.0,2.2169,0.0,0.0,0.0,0.0,2.2692,0.0,2.1279,2.0445,1.9349,1.9841,1.9343,0.0,1.7832,1.7563,1.7173,1.5473,1.6027,1.7491,1.7342,1.8195,1.9556,2.0639,2.1632,2.2468,2.2659,2.246,2.2175,2.2141,2.2102,2.2001,2.1919,2.1816,2.1703,2.1511,2.1132,2.0935,0.0,2.12,2.1141,0.0,0.0,0.0,0.0,0.0,0.0,0.0,0.0,0.0,0.0,1.2662,0.0,1.0975,0.8509,0.7256,0.806,0.6684,0.0,0.0,0.0,0.4564,0.3837,0.3675,0.354,0.3385,0.3064,0.3027,0.3378,0.3425,0.3426,0.3482,0.3553,0.3471,0.3246,0.2691,0.2242,0.1903,0.1177,0.0898,0.0898,0.0898,0.0898,0.0954,0.1178,0.168,0.2235,0.0,0.0,0.0,0.0,0.0,0.0,0.0,1.5877,0.0,1.4853,0.0,1.391,1.3874,1.3631,1.3729,1.4319,0.0,1.6368,1.7833,1.8155,1.9014,2.0591,2.0812,2.1211,2.1876,2.232,2.2544,0.0,0.0,0.0,0.0,0.0,0.0,0.0,0.0,0.0,0.0,2.1982,2.0754,1.9292,2.0928,1.9865,1.7274,1.7081,1.7197,1.7283,1.6053,1.6417,1.7449,1.7424,1.8004,1.8912,1.9612,2.0654,2.1609,2.1852,2.1691,2.1483,2.1753,2.1869,2.1967,2.2197,2.2096,2.1849,2.1326,2.1121,2.1042,2.1113,2.1056,2.1316,2.2468,0.0,0.0,0.0,0.0,0.0,0.0,0.0,0.0,0.0,0.0,0.0,1.1153,0.9621,0.8827,0.9266,0.0,0.0,0.0,0.0,0.6271,0.5599,0.6041,0.5898,0.4921,0.4646,0.4412,0.422,0.3929,0.3715,0.3564,0.3519,0.3244,0.2738,0.2583,0.2188,0.1567,0.112,0.0898,0.0898,0.0842,0.0842,0.0954,0.1178,0.1513,0.1902,0.0,0.0,0.0,0.0,0.0,1.6796,1.5685,1.489,1.4225,1.3664,1.3458,1.3301,1.3101,1.3031,1.3483,1.4613,1.517,0.0,0.0,0.0,0.0,2.0861,2.1302,2.1801,2.2367,2.3,2.3313,0.0,0.0,0.0,0.0,0.0,0.0,0.0,0.0,0.0,2.2953,2.1194,0.0,2.1002,2.0643,1.9648,1.8511,1.9326,1.8845,1.7802,1.8317,1.7963,1.7206,1.6922,1.763,1.8823,1.9893,2.0732,2.1354,2.1399,2.129,2.1243,2.1705,2.1366,2.1038,2.1395,2.1101,2.0638,2.0369,2.0206,2.0055,1.9791,2.0622,2.1217,2.0588,0.0,0.0,0.0,0.0,0.0,0.0,0.0,0.0,0.0,0.0,1.2501,1.2025,1.0826,0.967,0.0,0.0,0.0,0.0,0.0,0.7615,0.0,0.6789,0.6507,0.0,0.0,0.5088,0.4815,0.439,0.3915,0.334,0.3149,0.2571,0.1733,0.179,0.1734,0.1567,0.112,0.0898,0.0842,0.0449,0.0673,0.1234,0.1175,0.1567,0.2127,0.0,0.0,0.0,0.0,0.0,0.0,0.0,1.4234,1.3826,1.3594,1.3545,1.3552,1.3515,1.3777,1.4175,1.4698,1.5919,1.6938,1.7671,1.8624,1.8876,1.8283,1.886,1.8932,1.831,1.86,1.8799,1.8887,0.0,0.0,0.0,0.0,0.0,0.0,0.0,2.3275,0.0,0.0,0.0,2.1442,2.0591,2.0052,1.9846,2.0244,1.982,1.8978,1.9053,1.843,1.7545,1.7276,1.7748,1.8531,1.9074,1.9849,2.0532,2.0532,2.0465,2.0431,2.0682,2.0732,2.0635,2.0291,2.0239,2.0039,1.9108,1.8863,1.8745,1.8578,1.944,2.0194,2.0221,2.0118,0.0,0.0,0.0,0.0,0.0,0.0,1.4244,0.0,0.0,0.0,0.0,0.0,0.0,0.0,0.0,0.0,0.0,0.0,0.8875,0.0,0.0,0.0,0.7407,0.0,0.6026,0.5149,0.4558,0.39,0.3063,0.2447,0.1959,0.151,0.1008,0.0952,0.1232,0.1009,0.0785,0.0617,0.0393,0.0617,0.1122,0.1174,0.1621,0.224,0.0,1.9035,0.0,0.0,1.6493,0.0,1.3767,1.3353,1.331,1.354,1.3679,1.38,1.3943,1.4424,1.4739,1.4723,1.6428,1.7356,1.7095,1.8297,1.8335,1.6728,1.6476,1.5843,1.4725,1.4035,1.3819,0.0,0.0,0.0,0.0,0.0,0.0,0.0,0.0,0.0,0.0,0.0,2.1635,2.1272,2.0663,2.0527,2.0695,2.0376,2.0154,1.9894,1.9111,1.8416,1.7866,1.7653,1.7841,1.8187,1.8461,1.9132,1.9823,1.9965,1.9945,1.9945,2.0158,2.0283,2.0203,1.948,1.9358,1.898,1.7422,1.7036,1.6983,1.6794,1.7708,1.8844,1.9983,2.0162,0.0,0.0,0.0,0.0,0.0,0.0,0.0,0.0,0.0,0.0,1.0561,0.0,0.0,0.0,0.0,0.0,0.9012,0.0,0.0,0.0,0.0,0.916,0.7916,0.0,0.6844,0.5446,0.4801,0.3797,0.2458,0.1736,0.1288,0.1007,0.0336,0.0336,0.0785,0.0785,0.0617,0.028,0.0224,0.0505,0.1008,0.1119,0.1566,0.2127,0.0,0.0,0.0,0.0,0.0,0.0,1.1932,1.1697,1.2014,1.2638,1.3052,1.3308,1.3467,1.3928,1.4399,1.4762,1.5801,1.6968,1.8247,1.8245,1.869,1.9722,1.6456,1.495,1.5649,1.2802,1.1743,0.0,0.0,1.4818,0.0,0.0,0.0,0.0,0.0,0.0,0.0,2.1289,2.1039,2.0761,2.0761,2.0662,2.0444,1.9687,1.9528,1.9549,1.8593,1.8064,1.7773,1.7666,1.7626,1.7867,1.8936,1.953,1.9929,2.0545,2.0613,2.0681,2.1401,2.0454,1.9294,1.9607,1.8198,1.6388,1.4966,1.4597,1.4317,1.3543,1.5271,1.7382,1.8861,1.9074,1.9023,0.0,0.0,0.0,0.0,0.0,1.4332,1.3227,0.0,0.0,1.1437,1.1267,0.0,0.0,1.0172,0.0,0.0,0.0,0.0,1.0452,0.9915,0.9292,0.8613,0.8107,0.7259,0.602,0.545,0.3738,0.1061,0.1006,0.0336,-0.0617,-0.0056,0.028,0.0449,0.0449,0.028,-0.0,-0.0449,0.0168,0.123,0.0894,0.1229,0.1846,0.0,0.0,0.0,0.0,0.0,0.0,0.0,1.0546,1.2343,1.3895,1.3888,1.3769,1.3809,1.4404,1.4818,1.4922,1.6224,1.5289,1.1082,1.1387,0.9429,0.4287,0.2687,0.2133,0.258,0.2237,0.2941,0.0,0.0,0.0,0.0,0.0,0.0,0.0,0.0,2.1616,2.0735,2.0569,2.0193,1.9687,1.9793,1.9965,2.0115,1.917,1.9082,1.9259,1.8129,1.7424,1.7001,1.6646,1.6896,1.753,1.8461,1.9066,1.9591,2.028,2.0599,2.0634,2.0338,1.9882,1.9141,1.7796,1.7072,1.607,1.3704,1.3152,1.2847,1.1804,1.3527,1.5959,1.8257,1.8536,1.8349,1.8215,0.0,0.0,0.0,0.0,0.0,1.2251,0.0,1.2233,0.0,1.14,0.0,0.0,0.0,0.0,0.0,0.0,0.0,1.01,0.0,0.8222,0.7223,0.6648,0.5504,0.3869,0.3429,0.2228,0.0447,0.0224,-0.028,-0.101,-0.0393,-0.0224,-0.0336,-0.0056,-0.0056,-0.028,-0.0449,-0.0112,0.0504,0.0336,0.0839,0.1621,0.078,0.0,0.2465,0.0,0.5208,0.616,0.5152,0.8018,1.1224,1.3821,1.1388,1.0711,1.421,1.3311,1.242,1.2416,1.1844,0.9079,0.3512,0.3965,0.1554,-0.4923,-0.6318,0.0,-0.6397,-0.5987,-0.46,-0.2173,-0.0965,0.0,0.0,0.0,0.0,0.0,2.1866,2.0735,1.9537,1.9439,1.9082,1.8489,1.8513,1.874,1.903,1.8099,1.7862,1.7846,1.6687,1.5813,1.5198,1.506,1.5452,1.6237,1.7639,1.8579,1.9352,2.0234,2.0797,2.0911,1.9955,1.9632,1.9053,1.6876,1.6077,1.5175,1.259,1.1908,1.1661,1.1148,1.2618,1.4699,1.695,1.7505,1.7504,1.7316,0.0,0.0,0.0,1.4301,0.0,1.1871,1.2051,1.1901,1.082,1.1101,0.0,0.0,0.0,0.0,0.0,0.0,0.0,0.0,0.0,0.0,0.5854,0.483,0.3652,0.2279,0.1223,0.0334,-0.0391,-0.084,-0.1176,-0.1289,-0.112,-0.1064,-0.1008,-0.0672,-0.056,-0.0561,-0.0561,-0.0336,-0.0,0.0056,0.056,0.1175,-0.0964,0.2209,0.3938,0.1642,0.3505,0.403,0.0167,0.3514,0.7782,1.1466,0.3981,0.2755,1.4502,0.9881,0.6021,0.6294,0.0577,-0.2999,-0.2903,-0.2819,-0.2438,0.0,0.0,-0.7753,-0.6818,-0.9125,-0.9093,-0.6513,0.0,0.0,0.2239,0.0,1.6321,2.0369,2.0889,1.9832,1.7733,1.7784,1.7638,1.7276,1.6937,1.6898,1.6954,1.6278,1.5603,1.4817,1.39,1.2877,1.2059,1.2887,1.3145,1.3678,1.6603,1.8293,1.9424,2.0571,2.1366,2.1731,2.1051,2.0102,1.8943,1.745,1.521,1.2944,1.146,1.0747,1.0687,1.1607,1.2657,1.3684,1.4573,1.562,1.6256,1.6157,0.0,0.0,0.0,1.4824,0.0,1.2736,1.179,1.107,1.0742,1.0178,0.0,0.0,0.0,0.0,0.0,0.0,0.0,0.9343,0.7953,0.0,0.503,0.3101,0.2115,0.2055,-0.0503,-0.1741,-0.1797,-0.2404,-0.2347,-0.1846,-0.2402,-0.2122,-0.1285,-0.1285,-0.1119,-0.0898,-0.0898,-0.0505,-0.0,0.0224,0.028,0.0393,-1.2372,-1.1744,-1.1495,-1.0798,-0.8378,-0.6506,-0.6335,-1.0945,-1.3241,-0.9812,-1.3251,-1.235,-0.2707,-0.09,-0.0556,0.0,-0.2515,-0.4862,0.0,-0.9393,-1.2119,-1.6731,-1.8415,-1.8539,-1.699,-1.6673,-1.5192,-1.2389,0.0,0.0,0.0,1.2407,1.6265,1.7353,1.41,1.1985,1.0994,1.2527,1.2803,1.2338,1.3014,1.3561,1.3773,1.2457,1.2035,1.2165,1.1986,1.1421,1.0847,1.1393,1.1608,1.1728,1.2584,1.5573,1.8979,1.9817,2.0398,2.0544,1.9604,1.8584,1.7384,1.5568,1.4744,1.3752,1.1297,0.9872,0.9429,1.0755,1.1571,1.2464,1.3893,1.4858,1.5318,1.5039,1.5576,0.0,1.4422,0.0,1.2977,1.2108,1.1396,1.0853,1.039,0.9853,0.0,0.0,0.0,0.0,0.0,0.0,0.0,0.0,0.5428,0.0,0.2329,0.1326,0.0335,-0.0557,-0.1398,-0.2128,-0.2687,-0.3021,-0.3019,-0.2683,-0.3019,-0.285,-0.2402,-0.2402,-0.2291,-0.2124,-0.2124,-0.1958,-0.168,-0.1624,-0.1343,-0.0839,-1.9252,-2.0233,-2.1079,-1.9482,-1.7766,-1.6346,-1.542,-2.0675,-2.3556,-2.0194,-2.1533,-2.0938,-1.6084,-1.2831,0.0,-0.8021,-0.9824,-1.241,-1.5564,-1.6733,-1.9279,-2.376,-2.4211,-2.3803,-2.2584,-2.1002,0.0,-1.6837,-1.4785,-0.8626,0.14,0.5235,0.7987,0.9644,0.7472,0.6305,0.5996,0.7583,0.8023,0.7734,0.8693,0.9074,0.9004,0.8383,0.8357,0.8607,0.8689,0.8415,0.8074,0.87,0.8841,0.8711,0.9011,1.1415,1.4389,1.5981,1.713,1.7713,1.6698,1.6745,1.6552,1.4356,1.3831,1.326,1.1032,0.974,0.9488,1.1123,1.1589,1.2052,1.3004,1.3523,1.3772,1.3554,1.4036,1.406,1.3032,0.0,1.2365,0.0,0.0,1.042,0.0,0.8975,0.8236,0.0,0.0,0.0,0.0,0.0,0.6728,0.5325,0.3229,0.1434,-0.0,-0.0612,-0.134,-0.2293,-0.2293,-0.2571,-0.313,-0.3466,-0.3522,-0.3411,-0.3795,-0.3674,-0.3186,-0.3227,-0.3049,-0.2681,-0.2627,-0.2573,-0.2465,-0.2411,-0.213,-0.1737,-2.1942,-2.3607,-2.5025,0.0,-2.4063,-2.4313,-2.5526,-2.5699,-2.453,-2.1299,-2.2277,-2.3766,-2.5001,-2.4399,-2.1355,-1.5044,0.0,0.0,-2.4173,-2.3979,-2.3816,-2.3735,-2.4115,-2.421,-2.4036,-2.25,-2.1088,-1.9874,-1.7918,-1.4063,-0.849,-0.8351,-0.5801,-0.1228,0.0964,0.2002,0.2102,0.2802,0.3159,0.3352,0.412,0.3865,0.3149,0.4227,0.4561,0.4371,0.4424,0.4257,0.4152,0.5081,0.5156,0.4923,0.5729,0.6037,0.6672,0.9754,1.2078,1.3518,1.2712,1.4425,1.5855,1.3492,1.2377,1.1576,1.0543,1.0108,1.0423,1.2166,1.2323,1.2058,1.1913,1.1782,1.1737,1.1693,1.1962,1.1925,1.1254,1.184,1.1828,0.0,0.0,0.0,1.0016,0.7695,0.5925,0.0,0.0,0.0,0.0,0.0,0.5255,0.3056,0.1151,-0.0497,-0.1889,-0.2452,-0.2905,-0.313,-0.3186,-0.3186,-0.3241,-0.3799,-0.3971,-0.3928,-0.4562,-0.4428,-0.3702,-0.3812,-0.3444,-0.2792,-0.2687,-0.2633,-0.2577,-0.2357,-0.2247,-0.2305,0.0,0.0,-2.5444,-2.5038,-2.2798,-2.2115,-2.524,-2.5699,-2.5407,-2.4588,-2.4829,-2.5216,-2.5526,-2.5201,-2.4265,-2.2551,-2.3642,-2.4337,-2.4135,-2.4266,-2.4247,-2.4001,-2.4229,-2.4338,-2.4229,-2.3892,-2.3058,-2.1686,-1.6231,-1.2469,-1.0321,-0.8174,-0.6251,-0.4684,-0.6666,-0.7068,-0.6057,-0.4137,-0.3087,-0.2459,-0.0213,0.0537,0.0376,0.1085,0.1312,0.1319,0.1916,0.2143,0.2153,0.2404,0.2615,0.2613,0.19,0.1286,0.1713,0.5924,0.7867,0.878,0.9504,1.0136,1.0748,1.0971,1.0335,0.9585,0.9297,0.9332,0.9614,1.0482,1.0576,1.0517,1.0493,1.0375,1.0148,0.9665,0.9824,1.0019,1.0066,0.9819,0.9585,0.0,0.9023,0.8633,0.8463,0.6785,0.4885,0.0,0.0,0.2859,0.2082,0.1639,0.0981,-0.0,-0.1379,-0.2389,-0.3016,-0.3186,-0.3352,-0.363,-0.4018,-0.4184,-0.4184,-0.4411,-0.4531,-0.4518,-0.4668,-0.4622,-0.4458,-0.4379,-0.416,-0.3858,-0.3802,-0.3694,-0.353,-0.3469,-0.2796,-0.1903,-2.2605,-2.3158,-2.3728,-2.4982,-2.3662,-2.3178,-2.5362,-2.5699,-2.5699,-2.5699,-2.5699,-2.5703,-2.5694,-2.5459,-2.5177,-2.4841,-2.4682,-2.4513,-2.4303,-2.4356,-2.4321,-2.4096,-2.4248,-2.4321,-2.421,-2.421,-2.3913,-2.3317,-1.9731,-1.7775,-1.7359,-1.5055,-1.3427,-1.2486,-1.3168,-1.2332,-1.0284,-0.8508,-0.7332,-0.6445,-0.4214,-0.3474,-0.3536,-0.2534,-0.1938,-0.155,-0.1158,-0.0772,-0.0441,-0.0439,-0.0711,-0.1197,-0.1854,-0.2785,-0.3123,-0.08,0.1669,0.3912,0.4788,0.6022,0.7267,0.8332,0.7856,0.7264,0.7759,0.81,0.8541,0.9044,0.9304,0.9356,0.9096,0.8776,0.8403,0.8153,0.8069,0.8057,0.8075,0.8069,0.8081,0.8218,0.7469,0.6891,0.6593,0.4674,0.2524,0.0331,0.0165,0.0,-0.0771,-0.1704,-0.2088,-0.1814,-0.2936,-0.3677,-0.4073,-0.3965,-0.3965,-0.4128,-0.4353,-0.4519,-0.4519,-0.4574,-0.4622,-0.4585,-0.4688,-0.4688,-0.4585,-0.4515,-0.436,-0.4193,-0.4079,-0.3971,-0.3811,-0.313,-0.2798,-0.2469,-2.2985,-2.2173,-2.1954,-2.4051,-2.4427,-2.4707,-2.5576,-2.5699,-2.5707,-2.5704,-2.5704,-2.5704,-2.5697,-2.5496,-2.5159,-2.4666,-2.4547,-2.4517,-2.4532,-2.4408,-2.4284,-2.4172,-2.4247,-2.4247,-2.4154,-2.4135,-2.4248,-2.4505,-2.4606,-2.4783,-2.4978,-2.3443,-2.1925,-2.0405,-1.8007,-1.5108,-1.1955,-1.0939,-0.9819,-0.8665,-0.6999,-0.6699,-0.7047,-0.5492,-0.4505,-0.4003,-0.4003,-0.3553,-0.2994,-0.3157,-0.4075,-0.5093,-0.5255,-0.6124,-0.7217,-0.7588,-0.476,-0.1271,-0.016,0.2254,0.4639,0.5409,0.5119,0.495,0.5995,0.6645,0.7121,0.7629,0.8004,0.8128,0.767,0.7079,0.6714,0.675,0.647,0.6195,0.6159,0.0,0.6817,0.6617,0.5846,0.5078,0.4631,0.2314,-0.0,-0.2014,-0.2779,-0.3272,-0.3613,-0.4207,-0.4084,-0.3039,-0.3886,-0.4512,-0.4846,-0.4625,-0.4519,-0.4519,-0.4519,-0.4519,-0.4519,-0.4519,-0.4529,-0.456,-0.4609,-0.4596,-0.4563,-0.4495,-0.4355,-0.4141,-0.3913,-0.3805,-0.3699,-0.235,-0.2411,-0.2757,-2.5195,-2.5068,-2.4049,-2.1358,-2.09,-2.1985,-2.5206,-2.5699,-2.5693,-2.5702,-2.5698,-2.5702,-2.5702,-2.5668,-2.551,-2.5204,-2.4757,-2.4566,-2.4742,-2.4564,-2.4479,-2.4526,-2.4321,-2.4247,-2.4355,-2.451,-2.4559,-2.4505,-2.4796,-2.496,-2.4978,-2.4145,-2.2604,-2.0433,-1.8888,-1.59,-1.1955,-1.0922,-0.9636,-0.8069,-0.6112,-0.5968,-0.6735,-0.5269,-0.4893,-0.5058,-0.5058,-0.4728,-0.4343,-0.5324,-0.595,-0.6508,-0.7476,-0.8115,-0.8639,-0.9141,-0.8599,-0.7078,-0.3369,-0.0268,0.1895,0.2082,0.236,0.3023,0.4426,0.4965,0.5371,0.5882,0.6075,0.6166,0.6054,0.5575,0.521,0.5069,0.4794,0.4908,0.5813,0.0,0.5289,0.4484,0.4941,0.456,0.2724,0.1275,-0.0389,-0.2464,-0.2907,-0.3292,-0.3738,-0.4064,-0.4336,-0.4556,-0.4842,-0.4904,-0.4743,-0.4574,-0.4519,-0.4519,-0.4519,-0.4519,-0.4519,-0.4519,-0.4587,-0.465,-0.4545,-0.4618,-0.4721,-0.4379,-0.4166,-0.4048,-0.3925,-0.3758,-0.3538,-0.2627,-0.1566,-0.0561,-2.5699,-2.4199,-2.2349,-2.0615,-2.0326,-2.0909,-2.2633,-2.4497,-2.5703,-2.5691,-2.5662,-2.5644,-2.5639,-2.5457,-2.5372,-2.5498,-2.4898,-2.466,-2.5031,-2.4915,-2.476,-2.461,-2.4441,-2.4362,-2.4343,-2.4473,-2.2547,-1.848,-2.274,-2.0585,-1.2541,-1.6375,-1.6166,-1.2488,-1.1595,-1.0871,-1.0342,-0.9584,-0.8651,-0.7641,-0.6479,-0.618,-0.6303,-0.571,-0.5555,-0.5673,-0.6268,-0.6209,-0.6046,-0.6853,-0.7576,-0.818,-0.8731,-0.8992,-0.9096,-0.9325,-0.8659,-0.75,-0.5788,-0.3266,-0.1046,-0.0991,-0.0441,0.0386,0.1828,0.2432,0.2863,0.3411,0.3695,0.3929,0.4262,0.399,0.3779,0.407,0.3741,0.3516,0.3566,0.3685,0.3572,0.3046,0.2945,0.2447,0.1273,-0.0277,-0.1892,-0.3405,-0.4177,-0.4453,-0.4298,-0.4842,-0.5062,-0.4897,-0.4956,-0.4849,-0.4577,-0.4577,-0.4632,-0.4632,-0.4632,-0.4632,-0.4577,-0.4184,-0.4048,-0.4106,-0.3708,-0.3719,-0.3948,-0.3663,-0.3705,-0.394,-0.3084,-0.3086,-0.3434,-0.2242,-0.084,0.0449,-2.5699,-2.2893,-2.05,-2.05,-2.05,-2.05,-2.05,-2.3456,-2.5673,-2.5705,-2.5648,-2.5601,-2.5601,-2.5331,-2.5305,-2.5666,-2.509,-2.4861,-2.5264,-2.5168,-2.4994,-2.4785,-2.4208,-2.3796,-2.365,-2.3585,-2.0513,-1.4242,-2.0208,-1.6802,-0.4826,-1.0783,-1.129,-0.721,-0.6659,-0.7168,-0.8416,-0.7896,-0.7301,-0.663,-0.6264,-0.6013,-0.5932,-0.5878,-0.5887,-0.6009,-0.6977,-0.7246,-0.7241,-0.8025,-0.8803,-0.9481,-0.974,-0.9747,-0.9644,-0.9651,-0.8456,-0.7164,-0.7281,-0.5562,-0.3666,-0.3429,-0.2824,-0.1998,-0.0944,-0.0222,0.0333,0.089,0.1334,0.1778,0.2338,0.2282,0.2338,0.2954,0.0,0.2233,0.1672,0.1732,0.173,0.1498,0.0724,0.0111,-0.011,-0.1777,-0.3178,-0.407,-0.5007,-0.523,-0.4688,-0.5344,-0.5504,-0.4956,-0.4956,-0.4846,-0.4574,-0.4577,-0.4522,-0.4522,-0.4411,-0.4301,-0.4242,-0.3683,-0.3403,-0.3347,-0.3016,-0.2963,-0.3135,-0.2914,-0.2919,-0.3033,-0.2467,-0.2538,-0.2899,-0.1631,-0.045,0.0566,-2.5699,-2.2893,-2.05,-2.05,-2.05,-2.05,-2.05,-2.3402,-2.563,-2.5681,-2.5648,-2.5601,-2.5601,-2.5621,-2.5664,-2.5707,-2.542,-2.5253,-2.5303,-2.5125,-2.5113,-2.5341,-2.3196,-2.191,-2.1719,-2.129,-1.9764,-1.7111,-1.7971,-1.6766,-1.3664,-1.4367,-1.3652,-1.1809,-1.1269,-0.9422,-0.6755,-0.6279,-0.5454,-0.4391,-0.4122,-0.4677,-0.5563,-0.5171,-0.55,-0.6209,-0.6691,-0.6966,-0.7343,-0.896,-0.9526,-0.9732,-1.0728,-1.1049,-1.1049,-1.0964,-0.9961,-0.86,-0.7427,-0.6357,-0.5437,-0.4878,-0.4275,-0.3729,-0.34,-0.2613,-0.1833,-0.1336,-0.0723,-0.0056,0.0502,0.0559,0.0725,0.1225,0.0,0.0,0.1453,0.0559,-0.0224,-0.0616,-0.1399,-0.1845,-0.1838,-0.2674,-0.3458,-0.3965,-0.4353,-0.457,-0.4519,-0.4791,-0.5011,-0.5069,-0.5069,-0.5014,-0.4901,-0.4353,-0.4076,-0.4021,-0.3466,-0.313,-0.3016,-0.2961,-0.2903,-0.2792,-0.313,-0.3079,-0.2747,-0.2408,-0.1456,-0.0505,-0.2643,-0.2575,-0.1283,-0.1018,-0.0741,-0.0524,-2.5699,-2.2893,-2.1182,-2.3341,-2.3712,-2.3704,-2.3673,-2.4626,-2.5369,-2.5398,-2.5367,-2.5423,-2.5589,-2.5613,-2.5654,-2.5691,-2.5563,-2.5468,-2.5425,-2.5351,-2.5365,-2.5464,-2.3756,-2.19,-1.9982,-1.8999,-1.6321,-1.1825,-1.6093,-1.3001,-0.309,-0.6897,-0.7178,-0.4439,-0.3164,-0.3398,-0.4747,-0.4652,-0.4333,-0.3959,-0.4021,-0.4298,-0.4684,-0.5226,-0.5714,-0.6199,-0.7391,-0.7931,-0.8296,-0.9287,-0.9599,-0.9703,-1.049,-1.049,-1.0182,-1.0079,-0.9621,-0.8988,-0.8408,-0.7176,-0.615,-0.6519,-0.5655,-0.4618,-0.4446,-0.3834,-0.3169,-0.2615,-0.2282,-0.1892,-0.1335,-0.1059,-0.0781,-0.0223,0.0,-0.0559,-0.0948,-0.128,-0.1726,-0.2343,-0.251,-0.2732,-0.306,-0.3511,-0.3962,-0.4515,-0.4515,-0.4519,-0.4519,-0.4736,-0.5011,-0.5242,-0.5242,-0.5128,-0.4897,-0.4401,-0.4125,-0.4125,-0.3408,-0.3074,-0.3019,-0.246,-0.2179,-0.2124,-0.1903,-0.1624,-0.129,-0.1376,-0.0867,-0.0116,-0.1005,-0.072,0.0181,-0.0468,-0.0531,-0.0241,-2.5697,-2.377,-2.2886,-2.5249,-2.5664,-2.5652,-2.5604,-2.5387,-2.5206,-2.5191,-2.5191,-2.5302,-2.5577,-2.5601,-2.5615,-2.5637,-2.5604,-2.5488,-2.5264,-2.4482,-2.4244,-2.4733,-2.3151,-2.1066,-1.8495,-1.7242,-1.4459,-0.9995,-1.4099,-1.0488,0.0172,-0.3959,-0.4449,-0.1875,-0.0948,-0.1931,-0.4291,-0.4236,-0.4125,-0.4018,-0.4076,-0.4024,-0.4076,-0.5062,-0.555,-0.5928,-0.7492,-0.8143,-0.8402,-0.951,-0.9614,-0.9458,-1.019,-0.9984,-0.951,-0.9361,-0.9263,-0.9106,-0.9008,-0.7771,-0.6642,-0.7348,-0.648,-0.5395,-0.5113,-0.4728,-0.4233,-0.3674,-0.3566,-0.3342,-0.2726,-0.251,-0.2233,-0.1838,-0.1896,-0.2233,-0.279,-0.2728,-0.2839,-0.3345,-0.3398,-0.3564,-0.3895,-0.4125,-0.4463,-0.4794,-0.4684,-0.4574,-0.4684,-0.4846,-0.5014,-0.5297,-0.5297,-0.5128,-0.4791,-0.4119,-0.3788,-0.3732,-0.285,-0.2462,-0.2517,-0.1847,-0.1568,-0.1511,-0.1065,-0.0734,-0.0399,-0.0584,-0.0356,-0.012,-0.098,-0.0745,-0.0,-0.0907,-0.1097,-0.0747,-2.5707,-2.5707,-2.5683,-2.56,-2.5601,-2.5601,-2.5601,-2.5429,-2.5273,-2.5203,-2.5191,-2.5302,-2.5577,-2.5601,-2.557,-2.5519,-2.5511,-2.5274,-2.4719,-2.2262,-2.1491,-2.3028,-2.0965,-1.8972,-1.7269,-1.6163,-1.4915,-1.349,-1.1893,-1.0078,-0.8115,-0.8057,-0.7594,-0.687,-0.7524,-0.7052,-0.5806,-0.5324,-0.4893,-0.446,-0.4018,-0.391,-0.4021,-0.4408,-0.4739,-0.5285,-0.6784,-0.7224,-0.7456,-0.9666,-0.9666,-0.8988,-1.0035,-0.9932,-0.9361,-0.9211,-0.9113,-0.9008,-0.9008,-0.8043,-0.7085,-0.7085,-0.6647,-0.6046,-0.5458,-0.5297,-0.5132,-0.4629,-0.4519,-0.4349,-0.3738,-0.3627,-0.3627,-0.3627,-0.3627,-0.3627,-0.3627,-0.3627,-0.3627,-0.3624,-0.4128,-0.446,-0.4233,-0.4622,-0.4846,-0.4688,-0.4691,-0.4798,-0.5069,-0.4956,-0.5014,-0.5297,-0.5297,-0.5022,-0.4519,-0.3453,-0.2841,-0.2681,-0.1456,-0.1066,-0.1291,-0.1178,-0.101,-0.0898,-0.0898,-0.0686,-0.0354,-0.0118,-0.0,-0.0309,-0.3155,-0.3402,-0.212,-0.2559,-0.264,-0.2434,-2.5707,-2.566,-2.5617,-2.5593,-2.5601,-2.5601,-2.5601,-2.5387,-2.5225,-2.5191,-2.5191,-2.5236,-2.5312,-2.5459,-2.5515,-2.5492,-2.5511,-2.5243,-2.4615,-2.333,-2.2678,-2.2799,-2.1318,-1.9808,-1.8274,-1.6925,-1.5712,-1.4617,-1.329,-1.2241,-1.1527,-1.1053,-1.054,-1.0062,-0.9066,-0.8007,-0.6908,-0.6479,-0.6122,-0.5764,-0.5113,-0.4956,-0.5124,-0.5348,-0.5937,-0.673,-0.7486,-0.7972,-0.8455,-0.951,-0.9354,-0.8883,-0.9517,-0.9821,-0.9755,-0.8712,-0.8679,-0.8903,-0.8355,-0.7931,-0.7664,-0.7664,-0.6588,-0.5622,-0.5887,-0.5622,-0.5242,-0.5077,-0.5077,-0.5018,-0.4853,-0.4463,-0.4239,-0.4239,-0.4239,-0.4343,-0.4718,-0.516,-0.5601,-0.5982,-0.5823,-0.566,-0.5605,-0.5171,-0.4901,-0.4846,-0.4743,-0.4798,-0.5069,-0.4956,-0.5014,-0.5297,-0.5187,-0.4793,-0.3929,-0.3556,-0.3178,-0.2681,-0.1681,-0.1234,-0.1291,-0.1066,-0.0954,-0.0898,-0.0898,-0.0858,-0.0708,-0.0181,-0.1178,-0.3132,-0.3988,-0.3502,-0.238,-0.2569,-0.2523,-0.2375,-2.5662,-2.5629,-2.5609,-2.5623,-2.5619,-2.5601,-2.5601,-2.536,-2.5191,-2.5191,-2.5191,-2.5156,-2.5025,-2.5293,-2.5524,-2.5566,-2.5478,-2.5138,-2.4429,-2.3959,-2.3473,-2.291,-2.1702,-2.0348,-1.8878,-1.7477,-1.6409,-1.5632,-1.4446,-1.3852,-1.3794,-1.2781,-1.2087,-1.1675,-1.0689,-0.9526,-0.8332,-0.7858,-0.7191,-0.6524,-0.576,-0.5555,-0.5622,-0.5791,-0.6426,-0.732,-0.7871,-0.8296,-0.8613,-0.9354,-0.9354,-0.904,-0.8995,-0.919,-0.9169,-0.8025,-0.809,-0.8415,-0.7771,-0.7717,-0.7871,-0.7664,-0.681,-0.6055,-0.6154,-0.6105,-0.6,-0.6,-0.6,-0.6028,-0.6161,-0.5771,-0.5546,-0.5749,-0.5599,-0.5686,-0.6201,-0.6562,-0.6931,-0.7235,-0.6719,-0.6298,-0.6109,-0.5401,-0.4967,-0.4973,-0.4869,-0.4949,-0.5233,-0.4942,-0.4959,-0.5187,-0.5194,-0.4706,-0.3574,-0.3608,-0.3194,-0.2266,-0.1495,-0.1144,-0.1258,-0.1016,-0.0898,-0.0898,-0.091,-0.1165,-0.1563,-0.1676,-0.2367,-0.3486,-0.4087,-0.3837,-0.3215,-0.3095,-0.3109,-0.308,-2.5628,-2.5615,-2.5629,-2.5698,-2.564,-2.5595,-2.5577,-2.5361,-2.5191,-2.5191,-2.5191,-2.5063,-2.4738,-2.5171,-2.5537,-2.5657,-2.5441,-2.5,-2.4266,-2.419,-2.3915,-2.3236,-2.2074,-2.0765,-1.9258,-1.7954,-1.7005,-1.6426,-1.5386,-1.4937,-1.5153,-1.369,-1.2725,-1.2209,-1.2236,-1.1375,-0.9887,-0.9245,-0.8205,-0.695,-0.6244,-0.5873,-0.5837,-0.6055,-0.6588,-0.7331,-0.8096,-0.8249,-0.8237,-0.9086,-0.9302,-0.9152,-0.8521,-0.8196,-0.7919,-0.7241,-0.7396,-0.7717,-0.7187,-0.7396,-0.7664,-0.7187,-0.7101,-0.6998,-0.6431,-0.6717,-0.7117,-0.7117,-0.7187,-0.7269,-0.748,-0.7228,-0.7112,-0.7602,-0.7312,-0.7192,-0.7699,-0.779,-0.7768,-0.7659,-0.7115,-0.6638,-0.6289,-0.5596,-0.5174,-0.5079,-0.5015,-0.5115,-0.5296,-0.4911,-0.4827,-0.5005,-0.5197,-0.4639,-0.3426,-0.3527,-0.2958,-0.1663,-0.1136,-0.0943,-0.1177,-0.0968,-0.0898,-0.0843,-0.0872,-0.1439,-0.2473,-0.3773,-0.3481,-0.2415,-0.3761,-0.4303,-0.4233,-0.3961,-0.4028,-0.4233,-2.5683,-2.5683,-2.5682,-2.5691,-2.564,-2.5531,-2.5322,-2.5236,-2.5191,-2.5191,-2.5191,-2.5063,-2.4738,-2.5171,-2.5472,-2.5383,-2.533,-2.5,-2.4266,-2.419,-2.3955,-2.3387,-2.2361,-2.1319,-2.0304,-1.8896,-1.776,-1.6795,-1.6324,-1.5944,-1.5614,-1.4949,-1.4329,-1.3768,-1.3102,-1.2129,-1.083,-0.999,-0.9273,-0.8567,-0.7557,-0.7235,-0.7391,-0.7241,-0.7563,-0.8096,-0.8037,-0.7978,-0.7925,-0.7717,-0.7824,-0.8037,-0.7765,-0.7605,-0.7337,-0.6588,-0.6804,-0.7133,-0.6534,-0.6475,-0.6642,-0.7031,-0.7274,-0.7305,-0.696,-0.717,-0.7415,-0.7415,-0.7619,-0.7766,-0.7645,-0.7613,-0.7496,-0.7483,-0.7398,-0.7495,-0.8075,-0.8316,-0.8534,-0.8951,-0.8527,-0.8149,-0.804,-0.6797,-0.5715,-0.515,-0.5058,-0.4917,-0.4556,-0.4721,-0.4752,-0.4505,-0.4259,-0.3903,-0.3463,-0.2918,-0.2329,-0.1724,-0.1315,-0.112,-0.1177,-0.0968,-0.0729,-0.0506,-0.0814,-0.078,-0.0742,-0.3264,-0.4085,-0.3837,-0.4175,-0.4308,-0.43,-0.4233,-0.4233,-0.43,-2.5707,-2.5707,-2.5707,-2.5707,-2.5629,-2.5522,-2.5415,-2.5145,-2.4953,-2.4953,-2.4953,-2.4898,-2.4723,-2.5115,-2.5388,-2.5313,-2.4987,-2.462,-2.4228,-2.4644,-2.4241,-2.2704,-2.2536,-2.1939,-2.0765,-1.9471,-1.8436,-1.7584,-1.665,-1.6175,-1.6132,-1.5311,-1.4709,-1.4258,-1.36,-1.2677,-1.166,-1.083,-1.0108,-0.9392,-0.8362,-0.7937,-0.7871,-0.7723,-0.8096,-0.8639,-0.8256,-0.8037,-0.7925,-0.7931,-0.7771,-0.7551,-0.7176,-0.6961,-0.6642,-0.5941,-0.6213,-0.6539,-0.5946,-0.6213,-0.6727,-0.7164,-0.7622,-0.7902,-0.777,-0.8161,-0.8528,-0.8528,-0.8695,-0.8893,-0.9075,-0.8936,-0.8877,-0.9187,-0.9059,-0.9023,-0.9333,-0.9413,-0.9551,-0.9609,-0.916,-0.8489,-0.7759,-0.7002,-0.6002,-0.4801,-0.5118,-0.4895,-0.3825,-0.4146,-0.4348,-0.423,-0.3801,-0.3485,-0.3403,-0.2406,-0.1561,-0.1028,-0.1186,-0.117,-0.1108,-0.1015,-0.0764,-0.0412,-0.0426,-0.0311,-0.0126,-0.1628,-0.279,-0.3696,-0.4102,-0.4306,-0.43,-0.43,-0.43,-0.43,-2.5707,-2.5707,-2.5707,-2.5707,-2.5618,-2.5544,-2.5583,-2.5077,-2.4707,-2.4707,-2.461,-2.4594,-2.4692,-2.4981,-2.516,-2.516,-2.4588,-2.439,-2.4714,-2.5034,-2.4365,-2.2551,-2.2672,-2.2252,-2.1052,-1.9854,-1.8921,-1.8214,-1.671,-1.6132,-1.6349,-1.5287,-1.4652,-1.4398,-1.38,-1.3084,-1.2314,-1.151,-1.0677,-0.9835,-0.8935,-0.8415,-0.8137,-0.8137,-0.8521,-0.8956,-0.8474,-0.799,-0.7664,-0.819,-0.7865,-0.7176,-0.6642,-0.6322,-0.605,-0.5513,-0.5727,-0.5996,-0.5517,-0.6082,-0.6973,-0.7274,-0.7886,-0.8456,-0.8519,-0.9163,-0.9773,-0.982,-0.9873,-1.0053,-1.0588,-1.0451,-1.0504,-1.1066,-1.0822,-1.0588,-1.0397,-1.0391,-1.0273,-0.992,-0.9364,-0.8436,-0.7044,-0.6911,-0.6226,-0.4686,-0.5068,-0.48,-0.3457,-0.3614,-0.3866,-0.3988,-0.3707,-0.3367,-0.2845,-0.1586,-0.0602,-0.0,-0.0527,-0.0781,-0.0645,-0.0881,-0.0806,-0.0495,-0.0127,-0.0,-0.0,-0.0,-0.1074,-0.2882,-0.3894,-0.4303,-0.43,-0.4367,-0.4364,-0.4367,-2.5707,-2.5707,-2.5707,-2.5707,-2.5697,-2.5638,-2.5538,-2.5056,-2.4707,-2.4707,-2.4247,-2.4117,-2.4642,-2.4645,-2.4596,-2.4596,-2.4515,-2.5145,-2.6772,-2.449,-2.3705,-2.5111,-2.2848,-2.1552,-2.1591,-2.0172,-1.8954,-1.7946,-1.7173,-1.6448,-1.5881,-1.5164,-1.4892,-1.4915,-1.3695,-1.3025,-1.2677,-1.1392,-1.0694,-1.0438,-0.9614,-0.9256,-0.9204,-0.9204,-0.9204,-0.9054,-0.8249,-0.7295,-0.644,-0.6549,-0.6381,-0.6164,-0.595,-0.59,-0.5791,-0.5622,-0.5677,-0.5791,-0.5622,-0.5742,-0.6103,-0.6521,-0.7554,-0.8575,-0.8956,-0.9538,-1.0134,-1.045,-1.0641,-1.0843,-1.086,-1.1229,-1.129,-1.0548,-1.0657,-1.0607,-1.0073,-0.9947,-0.9849,-0.9812,-0.9349,-0.8676,-0.7812,-0.725,-0.6518,-0.5668,-0.4993,-0.4505,-0.4074,-0.3768,-0.365,-0.3657,-0.4353,-0.3482,-0.1065,-0.0067,0.0738,0.1341,0.1164,0.1012,0.0773,-0.0449,-0.0947,-0.0864,-0.0255,-0.0,-0.0,-0.0,-0.0874,-0.2348,-0.3768,-0.4308,-0.43,-0.4495,-0.4558,-0.4576,-2.5705,-2.5707,-2.5707,-2.5707,-2.564,-2.5561,-2.5515,-2.5043,-2.4578,-2.4247,-2.3961,-2.402,-2.4626,-2.4582,-2.45,-2.45,-2.45,-2.4855,-2.5672,-2.4282,-2.3524,-2.3784,-2.2547,-2.1714,-2.1357,-2.0297,-1.9222,-1.8246,-1.7449,-1.6989,-1.6795,-1.5788,-1.5412,-1.5424,-1.4479,-1.3768,-1.317,-1.1642,-1.1057,-1.1015,-0.9873,-0.9413,-0.9413,-0.9413,-0.9309,-0.9106,-0.862,-0.7664,-0.6712,-0.6712,-0.6386,-0.6005,-0.595,-0.5791,-0.5681,-0.5681,-0.5681,-0.5681,-0.5681,-0.5819,-0.616,-0.6852,-0.7526,-0.8348,-0.9363,-0.9648,-0.9817,-1.0498,-1.0788,-1.1035,-1.1089,-1.1384,-1.156,-1.1211,-1.1235,-1.1149,-1.0621,-1.052,-1.0311,-0.9635,-0.9389,-0.8758,-0.7586,-0.7056,-0.6324,-0.5084,-0.5029,-0.4501,-0.3289,-0.3895,-0.3517,-0.1896,-0.1664,-0.1237,-0.0548,0.1014,0.1947,0.2214,0.2553,0.2277,0.1484,0.0822,0.0069,-0.0745,-0.0946,-0.1555,-0.237,-0.243,-0.2762,-0.3362,-0.4046,-0.4314,-0.43,-0.4495,-0.4625,-0.4634]},{"header":{"parameterUnit":"m.s-1","parameterCategory":1,"la1":30.6,"la2":28.766,"lo1":-90.7593,"lo2":-88.6598,"dy":0.0162,"dx":0.0183,"nx":116,"ny":114,"refTime":"2023-07-23T18:00:00:Z","depth":0,"parameterNumber":3,"parameterNumberName":"V-component_of_WINDS"},"data":[0.0,0.0,0.0,0.0,0.0,0.0,0.0,0.0,0.0,0.0,0.0,0.0,0.0,0.0,0.0,0.0,0.0,0.0,0.0,0.0,0.0,0.0,0.0,0.0,0.0,0.0,0.0,0.0,0.0,0.0,0.0,0.0,0.0,0.0,0.0,0.0,0.0,0.0,0.0,0.0,0.0,0.0,0.0,0.0,0.0,0.0,0.0,0.0,0.0,0.0,0.0,0.0,0.0,0.0,0.0,0.0,0.0,0.0,0.0,0.0,0.0,0.0,0.0,0.0,0.0,0.0,0.0,0.0,0.0,0.0,0.0,0.0,0.0,0.0,0.0,0.0,0.0,0.0,0.0,0.0,0.0,0.0,0.0,0.0,0.0,0.0,0.0,0.0,0.0,0.0,0.0,0.0,0.0,0.0,0.0,0.0,0.0,0.0,0.0,0.0,0.0,0.0,0.0,0.0,0.0,0.0,0.0,0.0,0.0,0.0,0.0,0.0,0.0,0.0,0.0,0.0,0.0,0.0,0.0,0.0,0.0,0.0,0.0,0.0,0.0,0.0,0.0,0.0,0.0,0.0,0.0,0.0,0.0,0.0,0.0,0.0,0.0,0.0,0.0,0.0,0.0,0.0,0.0,0.0,0.0,0.0,0.0,0.0,0.0,0.0,0.0,0.0,0.0,0.0,0.0,0.0,0.0,0.0,0.0,0.0,0.0,0.0,0.0,0.0,0.0,0.0,0.0,0.0,0.0,0.0,0.0,0.0,0.0,0.0,0.0,0.0,0.0,0.0,0.0,0.0,0.0,0.0,0.0,0.0,0.0,0.0,0.0,0.0,0.0,0.0,0.0,0.0,0.0,0.0,0.0,0.0,0.0,0.0,0.0,0.0,0.0,0.0,0.0,0.0,0.0,0.0,0.0,0.0,0.0,0.0,0.0,0.0,0.0,0.0,0.0,0.0,0.0,0.0,0.0,0.0,0.0,0.0,0.0,0.0,0.0,0.0,0.0,0.0,0.0,0.0,0.0,0.0,0.0,0.0,0.0,0.0,0.0,0.0,0.0,0.0,0.0,0.0,0.0,0.0,0.0,0.0,0.0,0.0,0.0,0.0,0.0,0.0,0.0,0.0,0.0,0.0,0.0,0.0,0.0,0.0,0.0,0.0,0.0,0.0,0.0,0.0,0.0,0.0,0.0,0.0,0.0,0.0,0.0,0.0,0.0,0.0,0.0,0.0,0.0,0.0,0.0,0.0,0.0,0.0,0.0,0.0,0.0,0.0,0.0,0.0,0.0,0.0,0.0,0.0,0.0,0.0,0.0,0.0,0.0,0.0,0.0,0.0,0.0,0.0,0.0,0.0,0.0,0.0,0.0,0.0,0.0,0.0,0.0,0.0,0.0,0.0,0.0,0.0,0.0,0.0,0.0,0.0,0.0,0.0,0.0,0.0,0.0,0.0,0.0,0.0,0.0,0.0,0.0,0.0,0.0,0.0,0.0,0.0,0.0,0.0,0.0,0.0,0.0,0.0,0.0,0.0,0.0,0.0,0.0,0.0,0.0,0.0,0.0,0.0,0.0,0.0,0.0,0.0,0.0,0.0,0.0,0.0,0.0,0.0,0.0,0.0,0.0,0.0,0.0,0.0,0.0,0.0,0.0,0.0,0.0,0.0,0.0,0.0,0.0,0.0,0.0,0.0,0.0,0.0,0.0,0.0,0.0,0.0,0.0,0.0,0.0,0.0,0.0,0.0,0.0,0.0,0.0,0.0,0.0,0.0,0.0,0.0,0.0,0.0,0.0,0.0,0.0,0.0,0.0,0.0,0.0,0.0,0.0,0.0,0.0,0.0,0.0,0.0,0.0,0.0,0.0,0.0,0.0,0.0,0.0,0.0,0.0,0.0,0.0,0.0,0.0,0.0,0.0,0.0,0.0,0.0,0.0,0.0,0.0,0.0,0.0,0.0,0.0,0.0,0.0,0.0,0.0,0.0,0.0,0.0,0.0,0.0,0.0,0.0,0.0,0.0,0.0,0.0,0.0,0.0,0.0,0.0,0.0,0.0,0.0,0.0,0.0,0.0,0.0,0.0,0.0,0.0,0.0,0.0,0.0,0.0,0.0,0.0,0.0,0.0,0.0,0.0,0.0,0.0,0.0,0.0,0.0,0.0,0.0,0.0,0.0,0.0,0.0,0.0,0.0,0.0,0.0,0.0,0.0,0.0,0.0,0.0,0.0,0.0,0.0,0.0,0.0,0.0,0.0,0.0,0.0,0.0,0.0,0.0,0.0,0.0,0.0,0.0,0.0,0.0,0.0,0.0,0.0,0.0,0.0,0.0,0.0,0.0,0.0,0.0,0.0,0.0,0.0,0.0,0.0,0.0,0.0,0.0,0.0,0.0,0.0,0.0,0.0,0.0,0.0,0.0,0.0,0.0,0.0,0.0,0.0,0.0,0.0,0.0,0.0,0.0,0.0,0.0,0.0,0.0,0.0,0.0,0.0,0.0,0.0,0.0,0.0,0.0,0.0,0.0,0.0,0.0,0.0,0.0,0.0,0.0,0.0,0.0,0.0,0.0,0.0,0.0,0.0,0.0,0.0,0.0,0.0,0.0,0.0,0.0,0.0,0.0,0.0,0.0,0.0,0.0,0.0,0.0,0.0,0.0,0.0,0.0,0.0,0.0,0.0,0.0,0.0,0.0,0.0,0.0,0.0,0.0,0.0,0.0,0.0,0.0,0.0,0.0,0.0,0.0,0.0,0.0,0.0,0.0,0.0,0.0,0.0,0.0,0.0,0.0,0.0,0.0,0.0,0.0,0.0,0.0,0.0,0.0,0.0,0.0,0.0,0.0,0.0,0.0,0.0,0.0,0.0,0.0,0.0,0.0,0.0,0.0,0.0,0.0,0.0,0.0,0.0,0.0,0.0,0.0,0.0,0.0,0.0,0.0,0.0,0.0,0.0,0.0,0.0,0.0,0.0,0.0,0.0,0.0,0.0,0.0,0.0,0.0,0.0,0.0,0.0,0.0,0.0,0.0,0.0,0.0,0.0,0.0,0.0,0.0,0.0,0.0,0.0,0.0,0.0,0.0,0.0,0.0,0.0,0.0,0.0,0.0,0.0,0.0,0.0,0.0,0.0,0.0,0.0,0.0,0.0,0.0,0.0,0.0,0.0,0.0,0.0,0.0,0.0,0.0,0.0,0.0,0.0,0.0,0.0,0.0,0.0,0.0,0.0,0.0,0.0,0.0,0.0,0.0,0.0,0.0,0.0,0.0,0.0,0.0,0.0,0.0,0.0,0.0,0.0,0.0,0.0,0.0,0.0,0.0,0.0,0.0,0.0,0.0,0.0,0.0,0.0,0.0,0.0,0.0,0.0,0.0,0.0,0.0,0.0,0.0,0.0,0.0,0.0,0.0,0.0,0.0,0.0,0.0,0.0,0.0,0.0,0.0,0.0,0.0,0.0,0.0,0.0,0.0,0.0,0.0,0.0,0.0,0.0,0.0,0.0,0.0,0.0,0.0,0.0,0.0,0.0,0.0,0.0,0.0,0.0,0.0,0.0,0.0,0.0,0.0,0.0,0.0,0.0,0.0,0.0,0.0,0.0,0.0,0.0,0.0,0.0,0.0,0.0,0.0,0.0,0.0,0.0,0.0,0.0,0.0,0.0,0.0,0.0,0.0,0.0,0.0,0.0,0.0,0.0,0.0,0.0,0.0,0.0,0.0,0.0,0.0,0.0,0.0,0.0,0.0,0.0,0.0,0.0,0.0,0.0,0.0,0.0,0.0,0.0,0.0,0.0,0.0,0.0,0.0,0.0,0.0,0.0,0.0,0.0,0.0,0.0,0.0,0.0,0.0,0.0,0.0,0.0,0.0,0.0,0.0,0.0,0.0,0.0,0.0,0.0,0.0,0.0,0.0,0.0,0.0,0.0,0.0,0.0,0.0,0.0,0.0,0.0,0.0,0.0,0.0,0.0,0.0,0.0,0.0,0.0,0.0,0.0,0.0,0.0,0.0,0.0,0.0,0.0,0.0,0.0,0.0,0.0,0.0,0.0,0.0,0.0,0.0,0.0,0.0,0.0,0.0,0.0,0.0,0.0,0.0,0.0,0.0,0.0,0.0,0.0,0.0,0.0,0.0,0.0,0.0,0.0,0.0,0.0,0.0,0.0,0.0,0.0,0.0,0.0,0.0,0.0,0.0,0.0,0.0,0.0,0.0,0.0,0.0,0.0,0.0,0.0,0.0,0.0,0.0,0.0,0.0,0.0,0.0,0.0,0.0,0.0,0.0,0.0,0.0,0.0,0.0,0.0,0.0,0.0,0.0,0.0,0.0,0.0,0.0,0.0,0.0,0.0,0.0,0.0,0.0,0.0,0.0,0.0,0.0,0.0,0.0,0.0,0.0,0.0,0.0,0.0,0.0,0.0,0.0,0.0,0.0,0.0,0.0,0.0,0.0,0.0,0.0,0.0,0.0,0.0,0.0,0.0,0.0,0.0,0.0,0.0,0.0,0.0,0.0,0.0,0.0,0.0,0.0,0.0,0.0,0.0,0.0,0.0,0.0,0.0,0.0,0.0,0.0,0.0,0.0,0.0,0.0,0.0,0.0,0.0,0.0,0.0,0.0,0.0,0.0,0.0,0.0,0.0,0.0,0.0,0.0,0.0,0.0,0.0,0.0,0.0,0.0,0.0,0.0,0.0,0.0,0.0,0.0,0.0,0.0,0.0,0.0,0.0,0.0,0.0,0.0,0.0,0.0,0.0,0.0,0.0,0.0,0.0,0.0,0.0,0.0,0.0,0.0,0.0,0.0,0.0,0.0,0.0,0.0,0.0,0.0,0.0,0.0,0.0,0.0,0.0,0.0,0.0,0.0,0.0,0.0,0.0,0.0,0.0,0.0,0.0,0.0,0.0,0.0,0.0,0.0,0.0,0.0,0.0,0.0,0.0,0.0,0.0,0.0,0.0,0.0,0.0,0.0,0.0,0.0,0.0,0.0,0.0,0.0,0.0,0.0,0.0,0.0,0.0,0.0,0.0,0.0,0.0,0.0,0.0,0.0,0.0,0.0,0.0,0.0,0.0,0.0,0.0,0.0,0.0,0.0,0.0,0.0,0.0,0.0,0.0,0.0,0.0,0.0,0.0,0.0,0.0,0.0,0.0,0.0,0.0,0.0,0.0,0.0,0.0,0.0,0.0,0.0,0.0,0.0,0.0,0.0,0.0,0.0,0.0,0.0,0.0,0.0,0.0,0.0,0.0,0.0,0.0,0.0,0.0,0.0,0.0,0.0,0.0,0.0,0.0,0.0,0.0,0.0,0.0,0.0,0.0,0.0,0.0,0.0,0.0,0.0,0.0,0.0,0.0,0.0,0.0,0.0,0.0,0.0,0.0,0.0,0.0,0.0,0.0,0.0,0.0,0.0,0.0,0.0,0.0,0.0,0.0,0.0,0.0,0.0,0.0,0.0,0.0,0.0,0.0,0.0,0.0,0.0,0.0,0.0,0.0,0.0,0.0,0.0,0.0,0.0,0.0,0.0,0.0,0.0,0.0,0.0,0.0,0.0,0.0,0.0,0.0,0.0,0.0,0.0,0.0,0.0,0.0,0.0,0.0,0.0,0.0,0.0,0.0,0.0,0.0,0.0,0.0,0.0,0.0,0.0,0.0,0.0,0.0,0.0,0.0,0.0,0.0,0.0,0.0,0.0,0.0,0.0,0.0,0.0,0.0,0.0,0.0,0.0,0.0,0.0,0.0,0.0,0.0,0.0,0.0,0.0,0.0,0.0,0.0,0.0,0.0,0.0,0.0,0.0,0.0,0.0,0.0,0.0,0.0,0.0,0.0,0.0,0.0,0.0,0.0,0.0,0.0,0.0,0.0,0.0,0.0,0.0,0.0,0.0,0.0,0.0,0.0,0.0,0.0,0.0,0.0,0.0,0.0,0.0,0.0,0.0,0.0,0.0,0.0,0.0,0.0,0.0,0.0,0.0,0.0,0.0,0.0,0.0,0.0,0.0,0.0,0.0,0.0,0.0,0.0,0.0,0.0,0.0,0.0,0.0,0.0,0.0,0.0,0.0,0.0,0.0,0.0,0.0,0.0,0.0,0.0,0.0,-1.5591,0.0,0.0,0.0,0.0,0.0,0.0,0.0,0.0,0.0,0.0,0.0,0.0,0.0,0.0,0.0,0.0,0.0,0.0,0.0,0.0,0.0,0.0,0.0,0.0,0.0,0.0,0.0,0.0,0.0,0.0,0.0,0.0,0.0,0.0,0.0,0.0,0.0,0.0,0.0,0.0,0.0,0.0,0.0,0.0,0.0,0.0,0.0,0.0,0.0,0.0,0.0,0.0,0.0,0.0,0.0,0.0,0.0,0.0,0.0,0.0,0.0,0.0,0.0,0.0,0.0,0.0,0.0,0.0,0.0,0.0,0.0,0.0,0.0,0.0,0.0,0.0,0.0,0.0,0.0,0.0,0.0,0.0,0.0,0.0,0.0,0.0,0.0,0.0,0.0,0.0,0.0,0.0,0.0,0.0,0.0,0.0,0.0,0.0,0.0,0.0,0.0,0.0,0.0,0.0,0.0,0.0,0.0,0.0,0.0,0.0,0.0,0.0,0.0,0.0,0.0,0.0,-1.5251,0.0,0.0,0.0,0.0,0.0,0.0,0.0,0.0,0.0,0.0,0.0,0.0,0.0,0.0,0.0,0.0,0.0,0.0,0.0,0.0,0.0,0.0,0.0,0.0,0.0,0.0,0.0,0.0,0.0,0.0,0.0,0.0,0.0,0.0,0.0,0.0,0.0,0.0,0.0,0.0,0.0,0.0,0.0,0.0,0.0,0.0,0.0,0.0,0.0,0.0,0.0,0.0,0.0,0.0,0.0,0.0,0.0,0.0,0.0,0.0,0.0,0.0,0.0,0.0,0.0,0.0,0.0,0.0,0.0,0.0,0.0,0.0,0.0,0.0,0.0,0.0,0.0,0.0,0.0,0.0,0.0,0.0,0.0,0.0,0.0,0.0,0.0,0.0,0.0,0.0,0.0,0.0,0.0,0.0,0.0,0.0,0.0,0.0,0.0,0.0,0.0,0.0,0.0,0.0,0.0,0.0,0.0,0.0,-1.8,-1.8023,-1.7859,-1.7859,-1.7476,-1.6848,-1.697,-1.6368,-1.5298,-1.5622,0.0,0.0,0.0,0.0,0.0,0.0,0.0,0.0,0.0,0.0,0.0,0.0,0.0,0.0,0.0,0.0,0.0,0.0,0.0,0.0,0.0,0.0,0.0,0.0,0.0,0.0,0.0,0.0,0.0,0.0,0.0,0.0,0.0,0.0,0.0,0.0,0.0,0.0,-1.7874,-1.7753,-1.8529,-2.0035,0.0,0.0,0.0,0.0,0.0,0.0,0.0,0.0,0.0,0.0,0.0,0.0,0.0,0.0,0.0,0.0,0.0,0.0,0.0,0.0,0.0,0.0,0.0,0.0,0.0,0.0,0.0,0.0,0.0,0.0,0.0,0.0,0.0,0.0,0.0,0.0,0.0,0.0,0.0,0.0,0.0,0.0,0.0,0.0,-1.4792,-1.5696,0.0,0.0,0.0,0.0,0.0,0.0,0.0,0.0,0.0,0.0,0.0,0.0,0.0,-1.8014,-1.8896,-1.9018,-1.953,-2.0394,-2.0562,-2.0566,-2.0506,-2.0506,-2.0061,-1.9298,-1.8937,0.0,-1.598,-1.603,0.0,0.0,0.0,0.0,0.0,0.0,0.0,0.0,0.0,0.0,0.0,0.0,0.0,0.0,0.0,0.0,0.0,0.0,0.0,0.0,0.0,0.0,0.0,0.0,0.0,0.0,0.0,0.0,0.0,0.0,0.0,0.0,0.0,0.0,0.0,0.0,0.0,-1.7663,-1.8432,-1.8835,-1.9673,-2.0833,-2.1302,-2.1342,-2.1029,-2.0653,0.0,0.0,0.0,0.0,0.0,0.0,0.0,0.0,0.0,0.0,0.0,0.0,0.0,0.0,0.0,0.0,0.0,0.0,0.0,0.0,0.0,0.0,0.0,0.0,0.0,0.0,0.0,0.0,0.0,0.0,0.0,0.0,0.0,0.0,0.0,0.0,0.0,0.0,0.0,-1.739,-1.6745,-1.559,-1.7347,-1.8585,0.0,0.0,0.0,0.0,0.0,0.0,0.0,0.0,0.0,-1.9672,-1.9185,-1.9367,-2.0248,-1.9906,-1.9979,-2.0453,-2.0516,-2.0942,-2.1662,-2.1276,-2.0914,-2.0535,-1.9924,-1.9295,-1.858,-1.7226,-1.658,-1.6467,0.0,0.0,0.0,0.0,-1.595,-1.5609,0.0,0.0,0.0,0.0,0.0,0.0,0.0,0.0,0.0,0.0,0.0,0.0,0.0,0.0,0.0,-1.6756,0.0,0.0,0.0,0.0,0.0,0.0,0.0,0.0,0.0,0.0,0.0,0.0,0.0,0.0,-1.9706,-2.0704,-2.1577,-2.2364,-2.3197,-2.289,-2.1708,-2.1249,-2.0789,0.0,0.0,0.0,0.0,0.0,0.0,0.0,0.0,0.0,0.0,0.0,0.0,0.0,0.0,0.0,0.0,0.0,0.0,0.0,0.0,0.0,0.0,0.0,0.0,0.0,0.0,0.0,0.0,0.0,0.0,0.0,0.0,0.0,0.0,0.0,0.0,0.0,0.0,-1.8018,-1.7451,-1.5655,-1.7251,-1.8467,0.0,0.0,0.0,0.0,0.0,0.0,-1.9978,-1.9956,-2.0417,-2.1493,-2.0809,-2.0835,-2.1664,-2.1151,-2.097,-2.1123,-2.1144,-2.1698,-2.2676,-2.2198,-2.187,-2.1616,-2.0947,-2.0622,-2.0477,-1.8684,-1.7476,-1.6835,-1.7314,-1.7273,-1.6942,-1.7059,-1.6627,-1.608,0.0,0.0,0.0,0.0,0.0,0.0,0.0,0.0,0.0,0.0,0.0,0.0,0.0,0.0,-1.729,-1.8984,-1.9161,-1.958,0.0,0.0,0.0,0.0,0.0,0.0,0.0,0.0,0.0,0.0,0.0,0.0,0.0,0.0,-2.4264,-2.512,-2.5883,-2.5182,-2.3379,-2.1843,-2.1563,-2.2009,0.0,0.0,0.0,0.0,0.0,0.0,0.0,0.0,0.0,0.0,0.0,0.0,0.0,0.0,0.0,0.0,0.0,0.0,0.0,0.0,0.0,0.0,0.0,0.0,0.0,0.0,0.0,0.0,0.0,0.0,0.0,0.0,0.0,0.0,0.0,0.0,0.0,0.0,0.0,-1.6288,-1.7336,0.0,0.0,0.0,0.0,-2.0086,-2.0344,-2.0842,-2.1645,-2.1137,-2.159,-2.3231,-2.2513,-2.2543,-2.3545,-2.359,-2.3694,-2.389,-2.3967,-2.4042,-2.4097,-2.406,-2.3639,-2.2887,-2.2331,-2.1452,-2.0419,-2.0286,-1.9703,-1.8926,-1.8689,-1.8174,-1.7586,-1.7969,-1.7507,-1.6765,0.0,0.0,0.0,0.0,0.0,0.0,0.0,0.0,0.0,0.0,0.0,0.0,0.0,-1.7796,-1.7787,-1.8411,-1.8955,-1.9165,-1.8945,0.0,0.0,0.0,0.0,0.0,0.0,0.0,0.0,0.0,0.0,0.0,0.0,0.0,0.0,0.0,-2.7065,-2.7016,-2.6175,-2.4352,-2.3114,-2.2262,-2.1029,-2.0903,0.0,0.0,0.0,0.0,0.0,0.0,0.0,0.0,0.0,0.0,0.0,0.0,0.0,0.0,0.0,0.0,0.0,0.0,0.0,0.0,0.0,0.0,0.0,0.0,0.0,0.0,0.0,0.0,0.0,0.0,0.0,0.0,0.0,0.0,0.0,0.0,0.0,-1.9682,-2.062,0.0,-2.0644,-2.1082,-2.111,-2.0371,-2.1138,-2.198,-2.2805,-2.3368,-2.4194,-2.5365,-2.5129,-2.5172,-2.5549,-2.5077,-2.4606,-2.417,-2.419,-2.419,-2.419,-2.419,-2.4043,-2.3768,-2.3581,-2.3231,-2.2789,-2.2165,-2.1292,-2.0257,-1.8864,-1.8646,-1.9101,-1.8726,-1.8575,-1.8516,0.0,0.0,0.0,0.0,0.0,0.0,0.0,0.0,0.0,0.0,0.0,-1.4742,-1.8008,-1.7615,-1.7246,-1.7543,-1.8353,-1.873,-1.8457,0.0,0.0,0.0,0.0,0.0,0.0,0.0,0.0,0.0,0.0,0.0,0.0,0.0,0.0,0.0,0.0,-2.8676,-2.825,-2.689,-2.5304,-2.355,-2.2092,-2.2147,-2.2867,0.0,0.0,0.0,0.0,0.0,0.0,0.0,0.0,0.0,0.0,0.0,0.0,0.0,0.0,0.0,0.0,0.0,0.0,0.0,0.0,0.0,0.0,0.0,0.0,0.0,0.0,0.0,0.0,0.0,0.0,0.0,0.0,0.0,0.0,0.0,-2.1664,-2.2008,-2.2611,-2.2774,-2.2224,-2.2543,-2.2535,-2.1896,-2.284,-2.383,-2.4734,-2.527,-2.6118,-2.7343,-2.7145,-2.6998,-2.6998,-2.6229,-2.5423,-2.4593,-2.4318,-2.419,-2.419,-2.419,-2.419,-2.419,-2.419,-2.419,-2.4132,-2.3109,-2.2375,-2.1701,-1.997,-1.9532,-1.9872,-1.9762,-1.969,-1.9515,0.0,0.0,0.0,0.0,0.0,0.0,0.0,0.0,0.0,0.0,-1.332,-1.3926,-1.6387,-1.5937,-1.5789,-1.6622,-1.746,-1.832,-1.9199,-1.8477,0.0,0.0,0.0,0.0,0.0,0.0,0.0,0.0,0.0,0.0,0.0,0.0,0.0,0.0,0.0,0.0,-2.9429,-2.922,-2.8058,-2.6138,-2.3631,-2.346,-2.4351,0.0,0.0,0.0,0.0,0.0,0.0,0.0,0.0,0.0,0.0,0.0,0.0,0.0,0.0,0.0,0.0,0.0,0.0,0.0,0.0,0.0,0.0,0.0,0.0,0.0,0.0,0.0,0.0,0.0,0.0,0.0,0.0,0.0,-2.3206,-2.3226,-2.3158,-2.296,-2.3033,-2.2978,-2.2643,-2.3392,-2.4111,-2.4651,-2.5452,-2.6387,-2.7409,-2.6781,-2.724,-2.9034,-2.8399,-2.7972,-2.7846,-2.7101,-2.6291,-2.5439,-2.4593,-2.419,-2.419,-2.419,-2.419,-2.419,-2.419,-2.419,-2.4132,-2.3157,-2.3017,-2.3298,-2.2133,-2.0891,-1.9918,-2.1051,-2.0764,-1.9647,0.0,0.0,0.0,0.0,0.0,0.0,0.0,0.0,0.0,0.0,-1.4022,-1.4979,-1.5685,-1.6105,-1.6418,-1.6603,-1.6889,-1.7426,-1.8301,0.0,0.0,0.0,0.0,0.0,0.0,0.0,0.0,0.0,0.0,0.0,0.0,0.0,0.0,0.0,0.0,0.0,-3.026,-3.0211,-3.0166,-2.9845,-2.6623,-2.5165,-2.468,0.0,0.0,0.0,0.0,0.0,0.0,0.0,0.0,0.0,0.0,0.0,0.0,0.0,0.0,0.0,0.0,0.0,0.0,0.0,0.0,0.0,0.0,0.0,0.0,0.0,0.0,0.0,0.0,0.0,0.0,0.0,0.0,-2.3927,-2.3282,-2.3655,-2.3952,-2.386,-2.4888,-2.5523,-2.5277,-2.5455,-2.5393,-2.4815,-2.5697,-2.639,-2.6699,-2.7787,-2.8661,-2.9297,-2.9024,-2.8913,-2.8942,-2.7444,-2.6567,-2.6328,-2.4888,-2.419,-2.419,-2.419,-2.419,-2.419,-2.419,-2.419,-2.417,-2.3894,-2.3855,-2.3899,-2.3195,-2.2334,-2.1481,-2.1286,-2.0574,-1.9821,0.0,0.0,0.0,0.0,0.0,0.0,0.0,0.0,0.0,0.0,-1.3822,-1.5128,-1.4394,-1.573,-1.6351,-1.5576,-1.6545,-1.7268,-1.7404,0.0,0.0,0.0,0.0,0.0,0.0,0.0,0.0,0.0,0.0,0.0,0.0,0.0,0.0,0.0,0.0,0.0,0.0,-3.1004,-3.1341,-3.1549,-2.9886,-2.8586,-2.7374,-2.4563,-2.3581,-2.3517,-2.2167,-2.1977,-2.2197,-2.1191,0.0,0.0,0.0,0.0,0.0,0.0,0.0,0.0,0.0,0.0,0.0,0.0,0.0,0.0,0.0,0.0,0.0,0.0,0.0,0.0,0.0,0.0,0.0,0.0,-2.5394,-2.5931,-2.5782,-2.5523,-2.5467,-2.5779,-2.6624,-2.7132,-2.7031,-2.701,-2.6936,-2.6756,-2.694,-2.7243,-2.7684,-2.8334,-2.8938,-2.9418,-2.9395,-2.9375,-2.9399,-2.8051,-2.7153,-2.668,-2.5369,-2.4539,-2.419,-2.419,-2.419,-2.419,-2.419,-2.419,-2.419,-2.419,-2.419,0.0,0.0,0.0,0.0,0.0,-2.0752,-1.9817,0.0,0.0,0.0,0.0,0.0,0.0,0.0,0.0,0.0,0.0,0.0,-1.4621,-1.2581,-1.4648,-1.5554,-1.3992,-1.615,-1.7447,0.0,0.0,0.0,0.0,0.0,0.0,0.0,0.0,0.0,0.0,0.0,0.0,0.0,0.0,0.0,0.0,0.0,0.0,0.0,-3.169,-3.2057,-3.2145,-3.2831,-3.242,-3.0978,-2.6911,-2.6222,-2.7195,-2.534,-2.4292,-2.3724,-2.3285,0.0,0.0,0.0,0.0,0.0,0.0,0.0,0.0,0.0,0.0,0.0,0.0,0.0,0.0,0.0,0.0,0.0,0.0,0.0,0.0,0.0,0.0,0.0,0.0,-2.799,-2.8878,-2.9641,-2.8494,-2.7714,-2.8064,-2.8061,-2.8022,-2.8063,-2.8081,-2.8422,-2.9269,-2.8553,-2.8479,-2.9364,0.0,0.0,0.0,0.0,-2.9589,-2.9476,-2.8726,-2.7867,-2.691,-2.5984,-2.5152,-2.4395,-2.4265,-2.419,-2.419,-2.419,-2.419,-2.419,-2.419,-2.419,-2.4151,-2.3671,-2.3552,-2.3512,-2.2521,-2.1221,-1.9916,0.0,0.0,0.0,0.0,0.0,0.0,0.0,0.0,0.0,-0.9237,-1.2822,-1.3936,-1.0066,-1.1983,-1.3377,-1.2997,-1.47,-1.6927,0.0,0.0,0.0,0.0,0.0,0.0,0.0,0.0,0.0,0.0,0.0,0.0,0.0,0.0,0.0,0.0,0.0,0.0,0.0,-3.258,-3.3316,-3.3847,-3.3325,-3.2516,-3.1398,-2.9129,-2.8015,-2.7383,-2.5347,-2.5311,-2.5979,-2.4468,-2.4579,-2.5127,-2.3803,0.0,0.0,0.0,0.0,0.0,0.0,0.0,0.0,0.0,0.0,0.0,0.0,0.0,0.0,0.0,0.0,0.0,0.0,0.0,0.0,-2.8656,-3.0837,-3.2383,-3.243,-3.241,-3.1317,-2.8503,-2.8166,-2.826,-2.8455,-2.8472,-2.8582,-2.8817,-2.8671,-2.8652,-2.8853,-2.9292,-2.968,-2.9969,-2.9899,-2.9883,-2.9954,-2.9017,-2.8447,-2.8209,0.0,0.0,-2.5625,-2.4653,-2.419,-2.419,-2.419,-2.419,-2.419,-2.419,-2.419,-2.419,-2.4094,-2.3672,-2.3105,-2.2827,-2.2116,-2.1387,0.0,0.0,0.0,0.0,0.0,0.0,0.0,0.0,0.0,0.0,-1.2286,-1.3416,-0.9931,-1.225,-1.3857,-1.338,-1.4941,0.0,0.0,0.0,0.0,0.0,0.0,0.0,0.0,0.0,0.0,0.0,0.0,0.0,0.0,0.0,0.0,0.0,0.0,0.0,0.0,-3.3533,-3.4128,-3.4496,-3.4427,-3.3884,-3.2902,-3.1045,-2.9794,-2.879,-2.7252,-2.6948,-2.7081,-2.6051,-2.565,-2.5521,-2.5042,-2.4099,-2.2969,0.0,0.0,0.0,0.0,0.0,0.0,0.0,0.0,0.0,0.0,0.0,0.0,0.0,0.0,-2.5949,0.0,0.0,-3.0439,-3.2126,-3.3605,-3.4677,-3.5049,-3.5019,-3.3789,-3.0676,-3.03,-3.0166,-2.9888,-2.9851,-2.9728,-2.9421,-2.9342,-2.9532,-3.0026,-3.0364,-3.0624,-3.0739,-3.07,-3.0285,-2.9516,-2.9394,-2.8886,-2.7944,-2.7513,-2.6839,-2.5963,-2.4998,-2.4512,-2.4428,-2.4284,-2.419,-2.419,-2.419,-2.419,-2.419,-2.419,-2.3712,-2.2978,-2.2813,-2.21,-2.1425,0.0,0.0,0.0,0.0,0.0,0.0,0.0,0.0,0.0,0.0,0.0,-1.2921,-1.046,-1.2811,-1.4617,0.0,0.0,0.0,0.0,0.0,0.0,0.0,0.0,0.0,0.0,0.0,0.0,0.0,0.0,0.0,0.0,0.0,0.0,0.0,0.0,0.0,0.0,-3.451,-3.4854,-3.4875,-3.5466,-3.5116,-3.4069,-3.2494,-3.1361,-3.0414,-2.9079,-2.809,-2.7345,-2.7108,-2.6125,-2.5148,-2.5976,-2.5647,-2.4681,-2.3093,-2.2845,0.0,0.0,0.0,0.0,0.0,0.0,0.0,0.0,0.0,-2.5078,-2.6767,-2.7771,-2.8886,-3.0745,-3.1964,-3.3375,-3.5442,-3.6199,-3.6697,-3.7294,-3.69,-3.5719,-3.3511,-3.2906,-3.2357,-3.1537,-3.1309,-3.0994,-3.0456,-3.0299,-3.0605,-3.1426,-3.1497,-3.1516,-3.1465,-3.1465,-3.0724,-2.9199,-2.9798,-2.9332,-2.7854,-2.8373,-2.7856,-2.6453,-2.5404,-2.4847,-2.4719,-2.4358,-2.419,-2.419,-2.419,-2.419,-2.419,-2.419,-2.3804,-2.3217,-2.2978,-2.23,-2.1642,0.0,0.0,0.0,0.0,0.0,0.0,0.0,0.0,0.0,0.0,0.0,0.0,0.0,0.0,0.0,0.0,0.0,0.0,0.0,0.0,0.0,0.0,0.0,0.0,0.0,0.0,0.0,0.0,0.0,0.0,0.0,0.0,0.0,0.0,0.0,0.0,0.0,-3.5388,-3.5715,-3.5671,-3.5689,-3.4747,-3.3323,-3.3033,-3.2396,-3.1322,-2.8805,-2.7347,-2.6595,-2.646,-2.6281,-2.635,-2.7665,-2.7622,-2.6836,-2.5645,0.0,-2.2212,-2.2023,-2.214,-2.2422,-2.2997,-2.3708,-2.5261,0.0,0.0,-3.0098,-3.1838,-3.2804,-3.325,-3.2804,-3.4606,-3.6279,-3.6771,-3.8241,-3.9195,-3.8747,-3.8178,-3.7406,-3.6349,-3.4753,-3.3459,-3.2781,-3.2052,-3.1604,-3.152,-3.1507,-3.1546,-3.1655,-3.2334,-3.2391,-3.1693,-3.1674,-3.1193,-3.0251,-3.0138,-2.998,-2.9775,-2.8981,-2.8474,-2.8161,-2.5977,-2.4961,-2.4861,-2.441,-2.419,-2.419,-2.419,-2.419,-2.419,-2.419,-2.4135,-2.4061,-2.3986,-2.3856,-2.3744,0.0,0.0,0.0,0.0,0.0,0.0,0.0,0.0,0.0,0.0,0.0,0.0,0.0,0.0,0.0,0.0,0.0,0.0,0.0,0.0,0.0,0.0,0.0,0.0,0.0,0.0,0.0,0.0,0.0,0.0,0.0,0.0,0.0,0.0,0.0,0.0,-3.6152,-3.6016,-3.6228,-3.6621,-3.6053,-3.4814,-3.3255,-3.2685,-3.0994,-2.8811,-2.7634,-2.666,0.0,0.0,-2.4956,-2.5134,-2.6119,-2.6238,-2.5701,-2.4122,-2.4031,0.0,-2.4441,-2.446,0.0,0.0,-2.7231,-2.9324,-3.1017,-3.1697,-3.2432,-3.4104,-3.5089,-3.5702,-3.5832,-3.7076,-3.8018,0.0,-3.8886,-3.9426,-3.8307,-3.8054,-3.7315,-3.5468,-3.4562,-3.378,-3.2987,-3.2179,-3.1487,-3.0987,-3.1852,-3.2391,-3.2391,-3.368,-3.3795,-3.2449,-3.2391,-3.1506,-2.966,-3.0061,-2.9979,-2.9388,-2.9446,-2.9152,-2.8499,-2.7017,-2.5729,-2.4651,-2.4339,-2.419,-2.419,-2.419,-2.419,-2.419,-2.419,-2.419,-2.4208,-2.417,-2.4151,-2.4151,0.0,0.0,0.0,0.0,0.0,0.0,0.0,0.0,0.0,0.0,0.0,0.0,0.0,0.0,0.0,0.0,0.0,0.0,0.0,0.0,0.0,0.0,0.0,0.0,0.0,0.0,0.0,0.0,0.0,0.0,0.0,0.0,0.0,0.0,0.0,0.0,-3.6543,-3.5918,-3.6016,-3.6503,-3.5584,-3.4338,-3.2896,-3.1458,-2.9251,-2.6834,-2.6301,-2.5236,0.0,0.0,-2.3369,-2.3525,-2.4438,-2.4897,-2.4859,-2.3683,-2.4482,-2.5712,-2.5393,0.0,0.0,-2.7845,-3.047,-3.2844,-3.3206,-3.3888,-3.4875,-3.6236,-3.6831,-3.7128,-3.7233,-3.7795,-3.8009,-3.7389,-3.8372,-3.8861,-3.784,-3.7679,-3.6901,-3.4822,-3.3955,-3.3262,-3.2627,-3.2038,-3.1525,-3.1121,-3.2218,-3.3006,-3.3256,-3.468,-3.4814,-3.3314,-3.2814,-3.1679,-2.9833,-2.9876,-2.9652,-2.9179,-2.9661,-2.9515,-2.876,-2.7636,-2.6146,-2.4425,-2.4266,-2.419,-2.419,-2.419,-2.419,-2.419,-2.419,-2.419,-2.419,-2.419,-2.419,-2.419,0.0,0.0,0.0,0.0,0.0,0.0,0.0,0.0,0.0,0.0,0.0,0.0,0.0,0.0,0.0,0.0,0.0,0.0,0.0,0.0,0.0,0.0,0.0,0.0,0.0,0.0,0.0,0.0,0.0,0.0,0.0,0.0,0.0,0.0,0.0,0.0,-3.4785,-3.4746,-3.4746,-3.4707,-3.3828,-3.2942,-3.1843,-2.922,-2.7668,-2.6675,-2.4969,0.0,0.0,0.0,-2.1765,-2.2021,-2.3552,-2.4615,0.0,-2.6002,-2.559,0.0,0.0,0.0,-2.7749,-3.0171,-3.2625,-3.4824,-3.6384,-3.7349,-3.8171,-3.8931,-3.8529,-3.7573,-3.5975,-3.5848,-3.5786,-3.5097,-3.6552,-3.7808,-3.7978,-3.7327,-3.6524,-3.5656,-3.3323,-3.178,0.0,-3.1715,-3.2006,-3.2776,-3.2872,-3.3276,-3.4122,-3.5007,-3.5084,-3.418,-3.2583,-3.1698,-3.1621,-2.9637,-2.9052,-2.9864,-2.9551,-2.9368,-2.923,-2.7498,-2.5853,-2.4303,-2.4228,-2.419,-2.419,-2.419,-2.419,-2.419,-2.419,-2.419,-2.419,-2.419,-2.419,-2.419,0.0,0.0,0.0,0.0,0.0,0.0,0.0,0.0,0.0,0.0,0.0,0.0,0.0,0.0,0.0,0.0,0.0,0.0,0.0,0.0,0.0,0.0,0.0,0.0,0.0,0.0,0.0,0.0,0.0,0.0,0.0,0.0,0.0,0.0,0.0,-3.1094,-3.2187,-3.2187,-3.2519,-3.291,-3.1465,-3.0364,-2.9343,-2.7289,-2.5284,-2.3505,0.0,0.0,0.0,0.0,0.0,0.0,-2.1501,0.0,0.0,-2.4253,-2.4547,-2.4816,0.0,0.0,-3.1221,-3.3629,-3.5608,-3.7267,-3.8365,-3.8801,-3.8551,-3.7119,-3.6597,-3.5781,-3.3556,-3.3262,-3.3543,-3.4014,-3.5193,-3.6117,-3.6363,-3.6158,-3.5283,-3.3315,-3.2293,0.0,0.0,0.0,0.0,-3.1234,-3.2312,-3.307,-3.3314,-3.4718,-3.5103,-3.4218,-3.2428,-3.1506,-3.1492,-2.9612,-2.9007,-2.9698,-2.9491,-2.9087,-2.8487,-2.7851,-2.6665,-2.5113,-2.5586,-2.5493,-2.4999,-2.5078,-2.5077,-2.4999,-2.5078,-2.4745,-2.4337,-2.5401,-2.5126,-2.419,0.0,0.0,0.0,0.0,0.0,0.0,0.0,0.0,0.0,0.0,0.0,0.0,0.0,0.0,0.0,0.0,0.0,0.0,0.0,0.0,0.0,0.0,0.0,0.0,0.0,0.0,0.0,0.0,0.0,0.0,0.0,0.0,0.0,0.0,0.0,-2.7536,-2.8572,-2.8551,-2.8885,-2.9316,-2.8184,-2.7419,-2.6722,-2.496,-2.3467,0.0,0.0,0.0,0.0,0.0,0.0,0.0,0.0,-2.1103,-2.2147,-2.3612,-2.4888,-2.6591,-2.9988,-3.2077,-3.3884,-3.6279,-3.7779,-3.8802,-3.9364,-3.8758,-3.7555,-3.567,-3.4544,-3.3181,-3.0772,-3.0431,-3.0722,-3.1428,-3.2412,-3.3468,-3.455,-3.4708,-3.4218,-3.2885,-3.2408,-3.1758,0.0,0.0,0.0,-3.1322,-3.2632,-3.3544,-3.3814,-3.4891,-3.521,-3.4578,-3.2781,-3.1813,-3.1771,-2.9943,-2.9191,-2.9531,-2.9429,-2.8959,-2.8161,-2.8019,-2.7257,-2.6059,-2.6436,-2.6319,-2.5807,-2.5613,-2.5689,-2.5908,-2.5633,-2.5393,-2.528,-2.6248,-2.5952,-2.5052,0.0,0.0,0.0,0.0,0.0,0.0,0.0,0.0,0.0,0.0,0.0,0.0,0.0,0.0,0.0,0.0,0.0,0.0,0.0,0.0,0.0,0.0,0.0,0.0,0.0,0.0,0.0,0.0,0.0,0.0,0.0,0.0,0.0,0.0,0.0,-2.4266,-2.4266,-2.4241,-2.4241,-2.4258,-2.4219,-2.4171,-2.3954,-2.2294,0.0,0.0,0.0,0.0,0.0,0.0,0.0,0.0,0.0,0.0,-2.4427,-2.4331,-2.673,-2.9929,-3.2275,-3.3996,-3.5685,-3.8074,-3.9044,-3.9446,-3.9383,-3.7416,-3.5342,-3.4553,-3.2426,-3.0,0.0,0.0,-2.7523,-2.7677,-2.8637,-3.026,-3.2819,-3.3207,-3.3527,0.0,0.0,0.0,0.0,0.0,0.0,-3.3031,0.0,-3.4552,-3.5364,-3.5441,-3.5383,-3.5193,-3.344,-3.2463,-3.2389,-3.0528,-2.953,-2.9407,-2.9344,-2.8961,-2.8334,-2.8077,-2.7631,-2.7047,-2.6811,-2.6704,-2.6636,-2.5864,-2.6114,-2.686,-2.5927,-2.6114,-2.6878,-2.6751,-2.6667,-2.6591,0.0,0.0,0.0,0.0,0.0,0.0,0.0,0.0,0.0,0.0,0.0,0.0,0.0,0.0,0.0,0.0,0.0,0.0,0.0,0.0,0.0,0.0,0.0,0.0,0.0,0.0,0.0,0.0,0.0,0.0,0.0,0.0,0.0,0.0,-2.1905,-2.2386,-2.2424,-2.3051,-2.298,-2.2337,0.0,-2.1104,-2.048,0.0,0.0,0.0,0.0,0.0,0.0,0.0,0.0,0.0,0.0,-2.3729,-2.6423,-2.6986,-2.9576,-3.2756,-3.5056,-3.6881,-3.8336,-3.9313,-3.9142,-3.8577,-3.7873,-3.5735,-3.3208,-3.0676,-2.9162,-2.7377,0.0,0.0,0.0,-2.7572,-2.9178,0.0,-3.3701,-3.464,0.0,-3.5136,0.0,-3.4457,-3.3639,-3.4674,0.0,0.0,-3.3939,-3.4169,-3.4084,-3.483,-3.5174,-3.4982,-3.2617,-3.16,-3.2165,-3.0354,-2.9429,-2.9407,-2.9386,-2.9275,-2.9052,-2.8926,-2.8505,-2.7923,-2.8249,-2.822,-2.7923,-2.7662,-2.7643,-2.7771,-2.7625,-2.7213,-2.6825,-2.7974,-2.764,-2.6756,0.0,0.0,0.0,0.0,0.0,0.0,0.0,0.0,0.0,0.0,0.0,0.0,0.0,0.0,0.0,0.0,0.0,0.0,0.0,0.0,0.0,0.0,0.0,0.0,0.0,0.0,0.0,0.0,0.0,0.0,0.0,0.0,0.0,0.0,-1.8662,-1.9101,-1.9469,0.0,0.0,0.0,0.0,0.0,0.0,0.0,0.0,0.0,0.0,0.0,0.0,0.0,0.0,-2.3781,-2.4491,-2.6543,-2.9004,-3.0566,0.0,-3.5449,-3.7422,-3.8865,-3.988,-4.0099,-3.9128,-3.7773,-3.6496,-3.3677,-3.0521,-2.769,-2.6086,0.0,0.0,0.0,0.0,0.0,0.0,0.0,-3.2261,-3.3418,-3.4391,0.0,-3.5477,0.0,-3.5379,-3.5856,-3.5874,0.0,-3.5088,-3.4808,-3.4207,-3.4735,-3.4982,-3.4771,-3.3313,-3.2516,-3.2505,-3.1145,-3.0281,-2.9946,-2.9885,-2.9762,-2.9511,-2.937,-2.9172,-2.895,0.0,-2.8992,-2.8764,-2.8276,-2.8292,-2.8587,-2.8217,-2.7951,-2.7883,-2.8691,-2.8425,-2.7765,0.0,0.0,0.0,0.0,0.0,0.0,0.0,0.0,0.0,0.0,0.0,0.0,0.0,0.0,0.0,0.0,0.0,0.0,0.0,0.0,0.0,0.0,0.0,0.0,0.0,0.0,0.0,0.0,0.0,0.0,0.0,0.0,0.0,0.0,0.0,0.0,0.0,0.0,0.0,0.0,0.0,0.0,0.0,0.0,0.0,0.0,0.0,0.0,0.0,0.0,-2.3208,-2.5141,-2.7415,-2.9707,-3.1992,-3.4141,-3.6094,-3.7865,-3.9399,-4.0211,-4.0591,-4.0391,-3.8802,-3.6816,-3.5026,-3.1329,-2.7656,-2.5332,0.0,-2.2127,-2.1628,0.0,-2.2087,-2.3887,0.0,-2.5904,-2.9979,-3.1234,-3.2897,-3.6012,-3.5602,-3.5665,-3.7196,-3.6715,-3.6412,-3.6702,-3.647,-3.5951,-3.519,-3.4964,-3.4695,-3.4355,-3.437,-3.3926,-3.2953,-3.2172,-3.1452,-3.0807,-3.0742,-3.0443,-2.9959,-2.97,-2.9702,-2.9872,-2.9456,-2.9334,-2.9319,-2.8384,-2.8513,-2.9198,-2.8341,-2.851,-2.9249,-2.9067,-2.8994,-2.8994,0.0,0.0,0.0,0.0,0.0,0.0,0.0,0.0,0.0,0.0,0.0,0.0,0.0,0.0,0.0,0.0,0.0,0.0,0.0,0.0,0.0,0.0,0.0,0.0,0.0,0.0,0.0,0.0,0.0,0.0,0.0,0.0,0.0,0.0,0.0,0.0,0.0,0.0,0.0,0.0,0.0,0.0,0.0,0.0,0.0,0.0,0.0,0.0,0.0,0.0,-2.4501,-2.6635,-2.7083,-3.0859,-3.5195,-3.5625,-3.7461,-3.957,-4.0578,-4.0843,-4.0636,-3.9721,-3.7629,-3.5096,-3.2539,-2.8731,0.0,0.0,0.0,-2.1438,-2.0753,-2.1668,0.0,-2.386,0.0,0.0,0.0,0.0,-3.3184,0.0,0.0,0.0,0.0,0.0,0.0,0.0,0.0,-3.6667,-3.641,-3.5289,-3.4127,-3.2966,-3.3152,-3.3073,-3.2674,-3.208,-3.18,-3.184,-3.178,-3.1409,-3.0788,-3.0678,-3.0375,-2.9872,-2.9456,0.0,-2.9769,-2.9246,-2.9142,-2.9275,-2.9103,-2.9034,-2.9044,-2.8998,-2.8994,-2.8994,0.0,0.0,0.0,0.0,0.0,0.0,0.0,0.0,0.0,0.0,0.0,0.0,0.0,0.0,0.0,0.0,0.0,0.0,0.0,0.0,0.0,0.0,0.0,0.0,0.0,0.0,0.0,0.0,0.0,0.0,0.0,0.0,0.0,0.0,0.0,0.0,0.0,0.0,0.0,0.0,0.0,0.0,0.0,0.0,0.0,0.0,0.0,0.0,0.0,0.0,-2.3179,-2.5517,-2.8709,-3.1973,-3.4901,-3.625,-3.7513,-3.8767,-3.9989,-4.0626,-4.0694,-3.9666,-3.7119,-3.4075,-3.0968,0.0,0.0,0.0,0.0,-2.0739,-2.0444,0.0,0.0,0.0,0.0,0.0,0.0,0.0,0.0,0.0,0.0,0.0,0.0,0.0,0.0,0.0,0.0,-3.6131,-3.6073,-3.5435,-3.4582,-3.3473,-3.3547,-3.3636,-3.3642,-3.3399,-3.309,-3.2726,-3.2805,-3.2127,-3.0847,-3.0885,-3.0489,-2.9716,-2.9435,-2.9415,-2.957,-2.927,-2.9138,-2.9138,-2.9138,-2.9071,-2.8994,-2.8994,-2.8994,-2.8994,0.0,0.0,0.0,0.0,0.0,0.0,0.0,0.0,0.0,0.0,0.0,0.0,0.0,0.0,0.0,0.0,0.0,0.0,0.0,0.0,0.0,0.0,0.0,0.0,0.0,0.0,0.0,0.0,0.0,0.0,0.0,0.0,0.0,0.0,0.0,0.0,0.0,0.0,0.0,0.0,0.0,0.0,0.0,0.0,0.0,0.0,0.0,0.0,0.0,0.0,-2.1393,-2.373,-2.8906,-3.16,-3.3236,-3.523,-3.6515,-3.7519,-3.8733,-3.9994,-4.0699,-3.9533,-3.6651,-3.3228,-2.9805,-2.6381,0.0,0.0,-2.032,-2.0272,-2.0334,0.0,0.0,0.0,0.0,0.0,0.0,0.0,0.0,0.0,0.0,0.0,0.0,0.0,0.0,0.0,0.0,-3.5404,-3.5219,-3.5386,-3.5089,-3.4234,-3.4197,-3.4293,-3.4517,-3.4517,-3.4202,-3.3569,-3.3711,-3.2805,-3.101,-3.111,-3.0584,-2.9589,-2.9395,-2.9293,-2.9272,-2.9089,-2.8994,-2.8994,-2.8994,-2.8994,-2.8994,-2.8994,-2.8994,-2.8994,0.0,0.0,0.0,0.0,0.0,0.0,0.0,0.0,0.0,0.0,0.0,0.0,0.0,0.0,0.0,0.0,0.0,0.0,0.0,0.0,0.0,0.0,0.0,0.0,0.0,0.0,0.0,0.0,0.0,0.0,0.0,0.0,0.0,0.0,0.0,0.0,0.0,0.0,0.0,0.0,0.0,0.0,0.0,0.0,0.0,0.0,0.0,0.0,0.0,0.0,0.0,-2.2363,-2.4453,-2.783,-3.1072,-3.1313,0.0,0.0,-3.7284,-3.9083,-4.0517,-3.8829,-3.5781,-3.2319,-2.8896,0.0,0.0,-2.0766,-2.0392,-2.0353,-2.0231,-2.0142,0.0,0.0,0.0,0.0,0.0,0.0,0.0,0.0,0.0,0.0,0.0,0.0,0.0,0.0,0.0,-3.5144,-3.4364,-3.507,-3.5089,-3.4234,-3.4197,-3.4221,-3.4245,-3.4245,-3.4279,-3.4405,-3.4342,-3.3505,-3.1976,-3.1974,-3.111,-2.9589,-2.9395,-2.9293,0.0,-2.9089,-2.8994,-2.8994,-2.8994,-2.8994,-2.8994,-2.8994,-2.8994,-2.8994,0.0,0.0,0.0,0.0,0.0,0.0,0.0,0.0,0.0,0.0,0.0,0.0,0.0,0.0,0.0,0.0,0.0,0.0,0.0,0.0,0.0,0.0,0.0,0.0,0.0,0.0,0.0,0.0,0.0,0.0,0.0,0.0,0.0,0.0,0.0,0.0,0.0,0.0,0.0,0.0,0.0,0.0,0.0,0.0,0.0,0.0,0.0,0.0,0.0,0.0,0.0,0.0,-2.1561,-2.3592,0.0,0.0,-3.1109,-3.3567,-3.5068,-3.7743,-3.97,-3.7889,-3.4872,-3.1555,-2.8618,0.0,0.0,-2.0537,-2.028,-2.0265,-2.0215,-2.0069,-2.0188,0.0,0.0,0.0,0.0,0.0,0.0,0.0,0.0,0.0,0.0,0.0,0.0,0.0,0.0,-3.4847,-3.4234,-3.5014,-3.5089,-3.4234,-3.4197,-3.4269,-3.445,-3.445,-3.4473,-3.4561,-3.4607,-3.3642,-3.1797,-3.192,-3.098,-2.9228,-2.916,-2.9115,0.0,-2.9021,-2.8994,-2.8994,-2.8994,-2.8994,-2.8994,-2.8994,-2.8994,-2.8994,0.0,0.0,0.0,0.0,0.0,0.0,0.0,0.0,0.0,0.0,0.0,0.0,0.0,0.0,0.0,0.0,0.0,0.0,0.0,0.0,0.0,0.0,0.0,0.0,0.0,0.0,0.0,0.0,0.0,0.0,0.0,0.0,0.0,0.0,0.0,0.0,0.0,0.0,0.0,0.0,0.0,0.0,0.0,0.0,0.0,0.0,0.0,0.0,0.0,0.0,0.0,0.0,0.0,0.0,0.0,0.0,-2.8001,-3.0306,-3.2039,-3.5027,-3.7309,-3.5762,-3.2995,-3.0028,0.0,0.0,-2.1347,-2.0396,-2.0192,-2.0167,-2.0167,-2.0022,-1.9971,0.0,0.0,0.0,0.0,0.0,0.0,0.0,0.0,0.0,0.0,0.0,0.0,0.0,-3.4789,-3.4275,-3.3947,-3.4526,-3.4659,-3.4216,-3.4197,-3.4293,-3.4473,-3.4495,-3.4473,-3.445,-3.4545,-3.3534,-3.1602,-3.1718,-3.0761,-2.904,-2.9017,-2.8994,0.0,-2.8994,-2.8994,-2.8994,-2.8994,-2.8994,-2.8994,-2.8994,-2.8994,-2.8994,0.0,0.0,0.0,0.0,0.0,0.0,0.0,0.0,0.0,0.0,0.0,0.0,0.0,0.0,0.0,0.0,0.0,0.0,0.0,0.0,0.0,0.0,0.0,0.0,0.0,0.0,0.0,0.0,0.0,0.0,0.0,0.0,0.0,0.0,0.0,0.0,0.0,0.0,0.0,0.0,0.0,0.0,0.0,0.0,0.0,0.0,0.0,0.0,0.0,0.0,0.0,0.0,0.0,0.0,0.0,0.0,-2.4839,-2.8129,-2.8081,-3.0559,-3.2947,-3.2068,-2.9892,-2.7479,0.0,0.0,-2.1158,-2.0365,-2.0161,-2.0098,-2.0098,-1.9991,-2.0138,-2.0866,0.0,0.0,0.0,0.0,0.0,0.0,0.0,0.0,0.0,0.0,0.0,0.0,-3.3949,0.0,-3.3321,-3.3321,-3.3606,-3.4173,-3.4197,-3.4197,-3.4197,-3.4197,-3.4173,-3.4099,-3.4099,-3.3241,-3.1597,-3.1531,-3.0623,-2.9108,-2.904,-2.8994,0.0,-2.8994,-2.8994,-2.8994,-2.8994,-2.8994,-2.8994,-2.8994,-2.8994,-2.8994,0.0,0.0,0.0,0.0,0.0,0.0,0.0,0.0,0.0,0.0,0.0,0.0,0.0,0.0,0.0,0.0,0.0,0.0,0.0,0.0,0.0,0.0,0.0,0.0,0.0,0.0,0.0,0.0,0.0,0.0,0.0,0.0,0.0,0.0,0.0,0.0,0.0,0.0,0.0,0.0,0.0,0.0,0.0,0.0,0.0,0.0,0.0,0.0,0.0,0.0,0.0,0.0,0.0,0.0,0.0,0.0,0.0,0.0,-2.6013,-2.8213,-3.015,-2.9239,-2.7503,-2.574,-2.4553,0.0,-2.0493,-2.0182,-2.0116,-2.0088,-2.0088,-1.9947,-1.99,-2.0145,-2.0107,0.0,0.0,0.0,0.0,0.0,0.0,0.0,0.0,0.0,0.0,0.0,-3.4109,-3.3656,-3.3309,-3.3291,-3.3408,-3.3588,-3.3797,-3.3921,-3.3921,-3.4124,-3.4197,-3.4154,-3.3616,-3.2776,-3.1649,-3.1071,-3.0216,-2.9156,-2.9108,-2.9085,-2.9044,-2.9017,-2.8994,-2.8994,-2.8994,-2.8994,-2.8994,-2.8994,-2.8994,-2.8994,0.0,0.0,0.0,0.0,0.0,0.0,0.0,0.0,0.0,0.0,0.0,0.0,0.0,0.0,0.0,0.0,0.0,0.0,0.0,0.0,0.0,0.0,0.0,0.0,0.0,0.0,0.0,0.0,0.0,0.0,0.0,0.0,0.0,0.0,0.0,0.0,0.0,0.0,0.0,0.0,0.0,0.0,-1.5157,0.0,0.0,0.0,0.0,0.0,0.0,0.0,0.0,0.0,0.0,0.0,0.0,0.0,-2.0606,0.0,0.0,-2.5236,-2.6533,-2.5921,-2.4717,-2.3534,-2.2951,-2.1393,-2.0041,-2.003,-1.9971,-1.995,-1.9981,-1.9847,-1.977,-1.977,0.0,0.0,0.0,0.0,0.0,0.0,0.0,0.0,0.0,0.0,0.0,-3.3862,-3.358,-3.3253,-3.2979,-3.2975,-3.2975,-3.2975,-3.3379,-3.368,-3.3807,-3.3972,-3.4099,-3.4179,-3.338,-3.2558,-3.1718,-3.0898,-3.0021,-2.92,-2.9175,-2.9112,0.0,-2.9067,-2.9062,-2.904,-2.9085,-2.9062,-2.904,-2.904,-2.9017,-2.8957,0.0,0.0,0.0,0.0,0.0,0.0,0.0,0.0,0.0,0.0,0.0,0.0,0.0,0.0,0.0,0.0,0.0,0.0,0.0,0.0,0.0,0.0,0.0,0.0,0.0,0.0,0.0,-1.1288,-1.2072,-1.2471,-1.247,0.0,0.0,0.0,0.0,0.0,0.0,0.0,0.0,0.0,0.0,0.0,0.0,0.0,0.0,0.0,0.0,0.0,0.0,0.0,0.0,0.0,0.0,0.0,0.0,0.0,0.0,0.0,0.0,0.0,0.0,0.0,-2.1733,-2.1096,-2.1096,-2.0425,0.0,-1.9881,-1.9793,-1.9732,-1.9797,-1.9751,-1.9686,-1.9686,0.0,0.0,0.0,0.0,0.0,0.0,0.0,0.0,0.0,0.0,0.0,-3.2588,-3.2398,-3.223,-3.223,-3.2283,-3.2318,-3.2318,-3.2908,-3.3379,-3.3734,-3.3734,-3.3858,-3.4056,-3.3239,-3.2423,-3.1626,-3.0783,-2.9943,0.0,-2.92,-2.9152,-2.904,-2.9134,-2.9156,-2.9112,-2.9178,-2.9156,-2.9108,-2.9108,-2.9044,-2.8906,0.0,0.0,0.0,0.0,0.0,0.0,0.0,0.0,0.0,0.0,0.0,0.0,0.0,0.0,0.0,0.0,0.0,0.0,0.0,0.0,0.0,0.0,0.0,0.0,0.0,0.0,0.0,-1.2034,-1.2151,-1.2159,-1.2142,-1.2644,0.0,0.0,0.0,0.0,0.0,0.0,0.0,0.0,0.0,0.0,0.0,0.0,0.0,0.0,-1.4644,-1.4616,0.0,0.0,0.0,0.0,0.0,0.0,0.0,0.0,-1.75,-1.7734,-1.8877,0.0,-2.0471,-2.0395,-2.0214,-2.0039,0.0,-1.9919,0.0,0.0,0.0,0.0,0.0,0.0,0.0,0.0,0.0,0.0,0.0,0.0,0.0,0.0,0.0,0.0,0.0,0.0,0.0,-3.0744,-3.0665,-3.065,-3.065,-3.1177,-3.1475,-3.1475,-3.2223,-3.277,-3.3014,-3.3273,-3.3174,-3.2666,-3.18,-3.0998,-3.0239,-2.9622,-2.9232,-2.9067,-2.9218,-2.9259,-2.9237,-2.9218,-2.9178,-2.9178,-2.9178,-2.9178,-2.9178,-2.9178,-2.9134,-2.9048,0.0,0.0,0.0,0.0,0.0,0.0,0.0,0.0,0.0,0.0,0.0,0.0,0.0,0.0,0.0,0.0,0.0,0.0,0.0,0.0,0.0,0.0,0.0,0.0,0.0,0.0,0.0,0.0,0.0,-1.1132,0.0,0.0,0.0,0.0,0.0,0.0,0.0,0.0,0.0,0.0,-1.4326,0.0,0.0,0.0,0.0,0.0,-1.4464,-1.44,0.0,-1.44,-1.4781,-1.5218,0.0,0.0,0.0,0.0,-1.6198,-1.6559,-1.7473,-1.8423,-1.9226,-1.9574,-1.9673,-1.9673,0.0,0.0,0.0,0.0,0.0,0.0,0.0,0.0,0.0,0.0,0.0,0.0,0.0,0.0,0.0,0.0,0.0,0.0,0.0,0.0,-3.0042,-2.9927,-3.0042,-3.0106,-3.0106,-3.0475,-3.0703,-3.0703,-3.1124,-3.18,-3.2795,-3.2642,-3.2433,-3.2172,-3.0976,-3.0257,-2.9965,-2.93,-2.9048,-2.9152,-2.9302,-2.9323,-2.9262,-2.9283,-2.9283,-2.924,-2.9283,-2.92,-2.9089,-2.9197,-2.9112,-2.8874,0.0,0.0,0.0,0.0,0.0,0.0,0.0,0.0,0.0,0.0,0.0,0.0,0.0,0.0,0.0,0.0,0.0,0.0,0.0,0.0,0.0,0.0,0.0,0.0,0.0,0.0,0.0,0.0,0.0,0.0,0.0,0.0,-1.1106,0.0,0.0,0.0,0.0,0.0,0.0,0.0,-1.3677,0.0,0.0,0.0,0.0,0.0,0.0,0.0,0.0,-1.4242,-1.4255,-1.4268,-1.4268,0.0,0.0,0.0,0.0,0.0,-1.6524,-1.7462,-1.836,-1.9313,-1.9601,-1.9587,0.0,0.0,0.0,0.0,0.0,0.0,0.0,0.0,0.0,0.0,0.0,0.0,0.0,0.0,0.0,0.0,0.0,0.0,0.0,-2.9074,-2.9577,-2.933,-2.9512,-2.9642,-2.9691,-2.9779,-2.9881,-2.993,-3.0053,-3.0832,-3.2392,-3.1769,-3.1548,-3.1697,-3.0378,-2.9784,-2.9856,-2.9274,-2.9093,-2.9262,0.0,0.0,-2.924,-2.9347,-2.9365,-2.9323,-2.9386,-2.924,-2.8998,-2.9218,-2.9089,-2.8724,0.0,0.0,0.0,0.0,0.0,0.0,0.0,0.0,0.0,0.0,0.0,0.0,0.0,0.0,0.0,0.0,0.0,0.0,0.0,0.0,0.0,0.0,0.0,0.0,0.0,0.0,0.0,0.0,0.0,0.0,-1.0539,-1.1663,-1.2552,0.0,0.0,0.0,-1.3959,-1.4143,-1.4241,-1.4288,-1.4186,0.0,0.0,0.0,0.0,0.0,0.0,0.0,0.0,-1.3962,-1.403,-1.4141,-1.4141,0.0,0.0,0.0,0.0,0.0,-1.6323,-1.6838,-1.7275,-1.8937,-1.935,-1.935,0.0,0.0,0.0,0.0,0.0,0.0,0.0,0.0,0.0,0.0,0.0,0.0,0.0,0.0,0.0,0.0,0.0,0.0,0.0,-2.7317,-2.7687,-2.7413,-2.7446,-2.756,-2.7799,-2.8389,-2.8833,-2.9088,-2.9737,-3.0243,-3.0504,-3.0381,-3.0025,-2.94,-2.9451,-2.9107,-2.8443,-2.8821,-2.9012,-2.9067,0.0,-2.9386,-2.9386,-2.9386,-2.9386,-2.9386,-2.9407,-2.9365,-2.9326,-2.9365,-2.9323,-2.9178,0.0,0.0,0.0,0.0,0.0,0.0,0.0,0.0,0.0,0.0,0.0,0.0,0.0,0.0,0.0,0.0,0.0,0.0,0.0,0.0,0.0,0.0,0.0,0.0,0.0,0.0,0.0,0.0,0.0,-1.1247,-1.1547,-1.2158,-1.2791,-1.3428,0.0,0.0,-1.3741,-1.3987,-1.4001,-1.3877,0.0,0.0,0.0,0.0,0.0,0.0,0.0,0.0,0.0,0.0,-1.3717,-1.3778,-1.3778,0.0,0.0,0.0,0.0,0.0,-1.5547,-1.6265,-1.6923,-1.8221,-1.8916,-1.9353,0.0,0.0,0.0,0.0,0.0,0.0,0.0,0.0,0.0,0.0,0.0,0.0,0.0,0.0,0.0,0.0,0.0,0.0,-2.6396,-2.7009,-2.7247,-2.6825,-2.7149,-2.7369,-2.7404,-2.784,-2.8106,-2.8245,-2.8614,-2.8807,-2.8807,-2.8983,-2.9107,-2.9171,-2.8897,-2.8711,-2.8652,-2.8883,-2.9079,-2.9225,0.0,-2.9407,-2.9407,-2.9407,-2.9407,-2.9407,-2.9407,-2.9304,-2.9178,-2.9093,-2.9156,-2.9218,0.0,0.0,0.0,0.0,0.0,0.0,0.0,0.0,0.0,0.0,0.0,0.0,0.0,0.0,0.0,0.0,0.0,0.0,0.0,0.0,0.0,0.0,0.0,0.0,0.0,0.0,-1.0013,-0.9774,-1.0929,-1.189,-1.2627,-1.2468,-1.2761,0.0,0.0,0.0,-1.3557,-1.3648,-1.3634,-1.351,0.0,0.0,0.0,0.0,0.0,0.0,0.0,0.0,0.0,0.0,0.0,0.0,0.0,0.0,0.0,-1.351,-1.3606,-1.3935,-1.4879,-1.564,-1.6409,-1.7259,0.0,0.0,0.0,0.0,0.0,0.0,0.0,0.0,0.0,0.0,0.0,0.0,0.0,0.0,0.0,0.0,0.0,0.0,0.0,-2.5782,-2.6539,-2.7023,-2.7087,-2.6554,-2.7149,-2.7461,-2.7293,-2.7509,-2.7642,-2.7701,-2.7701,-2.7701,-2.7701,-2.7954,-2.8405,-2.9096,-2.8657,-2.8652,-2.9082,-2.9104,-2.923,-2.9392,-2.9409,-2.9407,-2.9407,-2.9407,-2.9407,-2.9407,-2.9407,-2.9262,-2.9067,-2.8957,-2.9044,-2.9156,0.0,0.0,0.0,0.0,0.0,0.0,0.0,0.0,0.0,0.0,0.0,0.0,0.0,0.0,0.0,0.0,0.0,0.0,0.0,0.0,0.0,0.0,0.0,0.0,0.0,-0.9065,-0.9099,-0.9077,-1.0531,-1.1958,-1.331,-1.2689,-1.2761,-1.3396,0.0,0.0,-1.3429,-1.3412,-1.3445,-1.3495,-1.3528,0.0,0.0,0.0,0.0,0.0,0.0,0.0,0.0,0.0,0.0,0.0,0.0,0.0,-1.3495,-1.351,-1.3509,-1.3729,-1.4669,-1.4962,-1.5223,-1.6028,0.0,0.0,0.0,0.0,0.0,0.0,0.0,0.0,0.0,0.0,0.0,0.0,0.0,0.0,0.0,0.0,0.0,0.0,-2.6064,-2.5782,-2.6539,-2.6859,-2.6825,-2.6274,-2.6759,-2.7038,-2.7038,-2.7261,-2.7509,-2.7683,-2.7701,-2.7701,-2.7701,-2.7713,-2.7904,-2.8201,-2.8832,-2.9082,-2.9016,-2.9314,-2.9453,-2.9392,-2.9409,-2.9407,-2.9407,-2.9407,-2.9407,-2.9407,-2.9407,-2.9344,-2.928,-2.928,-2.9197,-2.9108,0.0,0.0,0.0,0.0,0.0,0.0,0.0,0.0,0.0,0.0,0.0,0.0,0.0,0.0,0.0,0.0,0.0,0.0,0.0,0.0,0.0,0.0,0.0,-0.8811,-0.8811,-0.9382,-0.962,-0.9505,-1.0565,-1.1666,-1.2762,-1.2472,0.0,0.0,0.0,0.0,-1.2962,-1.2928,-1.2964,-1.307,-1.3016,-1.3105,0.0,0.0,0.0,0.0,0.0,0.0,0.0,0.0,-1.326,-1.326,0.0,0.0,-1.326,-1.3295,-1.3412,-1.3579,-1.3966,-1.4844,-1.5714,-1.6028,0.0,0.0,0.0,0.0,0.0,0.0,0.0,0.0,0.0,0.0,0.0,0.0,0.0,0.0,0.0,0.0,0.0,-2.5078,-2.4795,-2.4696,-2.498,-2.5353,-2.5353,-2.4862,-2.5555,-2.5888,-2.5586,-2.5935,-2.6195,-2.6279,-2.6436,-2.6517,-2.6526,-2.6903,-2.7102,-2.7126,-2.8291,-2.9016,-2.9314,-2.9394,-2.9153,-2.8686,-2.9186,-2.9091,-2.8645,-2.9184,-2.9407,-2.9407,-2.9365,-2.9344,-2.9344,-2.9218,-2.9175,-2.9134,0.0,0.0,0.0,0.0,0.0,0.0,0.0,0.0,0.0,0.0,0.0,0.0,0.0,0.0,0.0,0.0,0.0,0.0,0.0,0.0,0.0,0.0,0.0,-0.8542,-0.8335,-0.9184,-0.9447,-0.911,-0.9438,-1.0444,-1.198,0.0,0.0,0.0,0.0,0.0,0.0,0.0,-1.2553,-1.2684,-1.2665,-1.2781,0.0,0.0,0.0,0.0,0.0,0.0,0.0,0.0,-1.3102,0.0,0.0,0.0,0.0,0.0,-1.3295,-1.3464,-1.3752,-1.4659,-1.5591,0.0,0.0,0.0,0.0,0.0,0.0,0.0,0.0,0.0,0.0,0.0,0.0,0.0,0.0,0.0,0.0,0.0,-2.3735,-2.3967,-2.385,-2.3832,-2.4065,-2.4475,-2.455,-2.4225,-2.4878,-2.5153,-2.482,-2.5164,-2.5401,-2.5401,-2.5622,-2.5725,-2.5735,-2.6204,-2.6432,-2.6493,-2.7455,-2.8195,-2.8707,-2.8668,-2.8481,-2.822,-2.8497,-2.8422,-2.8123,-2.8477,-2.8775,-2.8977,-2.8936,-2.9103,-2.9365,-2.9218,-2.9175,-2.9175,0.0,0.0,0.0,0.0,0.0,0.0,0.0,0.0,0.0,0.0,0.0,0.0,0.0,0.0,0.0,0.0,0.0,0.0,0.0,0.0,0.0,0.0,0.0,-0.8197,-0.7524,-0.8237,-0.8277,-0.7598,-0.6935,-0.8158,-1.1071,-1.0359,0.0,0.0,0.0,0.0,0.0,0.0,-1.2282,-1.2403,-1.2549,-1.2537,-1.2498,0.0,0.0,0.0,0.0,0.0,0.0,0.0,-1.3102,0.0,0.0,0.0,0.0,0.0,-1.3206,-1.3356,-1.4095,-1.4314,0.0,0.0,0.0,0.0,0.0,0.0,0.0,0.0,0.0,0.0,0.0,0.0,0.0,0.0,0.0,0.0,0.0,0.0,-2.3156,-2.3884,-2.3524,-2.3463,-2.4219,-2.4533,-2.4637,-2.459,-2.489,-2.5034,-2.4988,-2.523,-2.5384,-2.5384,-2.5517,-2.557,-2.557,-2.5717,-2.5991,-2.6381,-2.6381,-2.6597,-2.6991,-2.6991,-2.7438,-2.8127,-2.727,-2.7362,-2.8012,-2.7232,-2.7381,-2.8086,-2.8086,-2.8604,-2.9302,-2.9283,-2.92,-2.9089,0.0,0.0,0.0,0.0,0.0,0.0,0.0,0.0,0.0,0.0,0.0,0.0,0.0,0.0,0.0,0.0,0.0,0.0,0.0,0.0,0.0,0.0,0.0,0.0,0.0,0.0,-0.8381,-0.7377,-0.7902,-0.9155,0.0,0.0,0.0,-1.35,0.0,0.0,0.0,0.0,-1.2401,-1.2179,-1.2066,-1.2113,-1.2235,0.0,0.0,0.0,0.0,0.0,0.0,0.0,0.0,0.0,0.0,0.0,0.0,-1.3341,-1.3542,-1.3974,-1.4282,0.0,0.0,0.0,0.0,0.0,0.0,0.0,0.0,0.0,0.0,0.0,0.0,0.0,0.0,0.0,0.0,0.0,0.0,-2.2261,-2.2195,-2.2427,-2.2305,-2.2358,-2.2706,-2.3005,-2.3119,-2.3119,-2.3475,-2.3606,-2.3475,-2.3761,-2.3912,-2.3912,-2.4229,-2.437,-2.4325,-2.4634,-2.4852,-2.4908,-2.5023,-2.5727,-2.6935,-2.6935,-2.6749,-2.647,-2.6767,-2.6712,-2.6488,-2.7381,-2.7863,-2.8104,-2.8046,-2.8584,-2.9291,-2.859,-2.8326,-2.8326,0.0,0.0,0.0,0.0,0.0,0.0,0.0,0.0,0.0,0.0,0.0,0.0,0.0,0.0,0.0,0.0,0.0,0.0,0.0,0.0,0.0,0.0,0.0,0.0,0.0,-0.9037,-0.9038,0.0,0.0,0.0,0.0,0.0,0.0,-1.3621,0.0,-1.3255,0.0,0.0,-1.2426,-1.1891,-1.1848,-1.1876,-1.1991,0.0,0.0,0.0,0.0,0.0,0.0,0.0,0.0,0.0,0.0,0.0,0.0,-1.3557,-1.3939,-1.4508,-1.4883,0.0,0.0,0.0,0.0,0.0,0.0,0.0,0.0,0.0,0.0,0.0,0.0,0.0,0.0,0.0,0.0,-2.1797,-2.1797,-2.1797,-2.1797,-2.1797,-2.1974,-2.2073,-2.2096,-2.2409,-2.2605,-2.2605,-2.2825,-2.2952,-2.2919,-2.3168,-2.3289,-2.3289,-2.3638,-2.3792,-2.375,-2.402,-2.4174,-2.4266,-2.4284,-2.4875,-2.5949,-2.5949,-2.5856,-2.5726,-2.621,-2.5968,-2.5299,-2.6284,-2.7065,-2.7621,-2.7582,-2.8103,-2.881,-2.8183,-2.7775,-2.7479,0.0,0.0,0.0,0.0,0.0,0.0,0.0,0.0,0.0,0.0,0.0,0.0,0.0,0.0,0.0,0.0,0.0,0.0,0.0,0.0,0.0,0.0,0.0,0.0,0.0,0.0,0.0,0.0,0.0,0.0,0.0,0.0,-1.224,-1.3589,0.0,-1.3326,0.0,-1.2831,-1.232,-1.1637,-1.1865,-1.185,-1.1777,-1.2584,0.0,0.0,0.0,0.0,0.0,0.0,0.0,0.0,0.0,0.0,-1.3515,-1.3843,-1.4336,-1.4921,0.0,0.0,0.0,0.0,0.0,0.0,0.0,0.0,0.0,0.0,0.0,0.0,0.0,0.0,0.0,0.0,-2.1751,-2.1768,-2.1797,-2.1797,-2.1797,-2.1797,-2.2192,-2.2343,-2.2169,-2.2517,-2.279,-2.2842,-2.2842,-2.2944,-2.3144,-2.3241,-2.3313,-2.3336,-2.3567,-2.37,-2.3721,-2.3792,-2.3939,-2.4192,-2.4077,-2.421,-2.4495,-2.4481,-2.4891,-2.5596,-2.5596,-2.5187,-2.4518,-2.4574,-2.5466,-2.6804,-2.6804,-2.7288,-2.7974,-2.7896,-2.7317,-2.6593,0.0,0.0,0.0,0.0,0.0,0.0,0.0,0.0,0.0,0.0,0.0,0.0,0.0,0.0,0.0,0.0,0.0,0.0,0.0,0.0,0.0,0.0,0.0,0.0,0.0,0.0,0.0,0.0,0.0,0.0,0.0,0.0,0.0,-1.4277,0.0,-1.4015,-1.3555,-1.2954,-1.232,-1.1726,-1.2236,-1.2125,-1.1719,-1.2515,-1.2726,0.0,0.0,0.0,0.0,0.0,0.0,0.0,-1.4055,-1.411,-1.3875,-1.4247,-1.4456,-1.4726,0.0,0.0,0.0,0.0,0.0,0.0,0.0,0.0,0.0,0.0,0.0,0.0,0.0,0.0,0.0,0.0,-2.1402,-2.1495,-2.1751,-2.1797,-2.1797,-2.1797,-2.1886,-2.2089,-2.2371,-2.2497,-2.2738,-2.3168,-2.3193,-2.3265,-2.3424,-2.3336,-2.3407,-2.3611,-2.3571,-2.362,-2.3792,-2.3955,-2.4095,-2.421,-2.4284,-2.4373,-2.4495,-2.4393,-2.4486,-2.476,-2.476,-2.4667,-2.4555,-2.5187,-2.5652,-2.5968,-2.5968,-2.6451,-2.7064,-2.6337,-2.5928,-2.5742,0.0,0.0,0.0,0.0,0.0,0.0,0.0,0.0,0.0,0.0,0.0,0.0,0.0,0.0,0.0,0.0,0.0,0.0,0.0,0.0,0.0,0.0,0.0,0.0,0.0,0.0,0.0,0.0,0.0,0.0,0.0,0.0,0.0,-1.4164,0.0,-1.3806,-1.3431,-1.2974,-1.2366,-1.1763,-1.2431,-1.2435,-1.215,-1.3203,-1.3391,-1.3203,-1.3773,0.0,0.0,0.0,0.0,0.0,0.0,0.0,-1.4667,-1.4963,-1.5248,-1.5562,0.0,0.0,0.0,0.0,0.0,0.0,0.0,0.0,0.0,0.0,0.0,0.0,0.0,0.0,0.0,-2.0794,-2.1205,-2.1486,-2.1317,-2.1566,-2.1797,-2.1797,-2.1899,-2.2015,-2.2147,-2.236,-2.2579,-2.2825,-2.2902,-2.307,-2.3289,-2.3313,-2.343,-2.37,-2.3664,-2.3689,-2.3795,-2.3896,-2.4018,-2.4153,-2.4229,-2.4321,-2.4445,-2.4411,-2.4429,-2.45,-2.45,-2.45,-2.4537,-2.4946,-2.5355,-2.5708,-2.5653,-2.5913,-2.6209,-2.5764,-2.5356,-2.5004,0.0,0.0,0.0,0.0,0.0,0.0,0.0,0.0,0.0,0.0,0.0,0.0,0.0,0.0,0.0,0.0,0.0,0.0,0.0,0.0,0.0,0.0,0.0,0.0,0.0,0.0,0.0,0.0,0.0,0.0,0.0,0.0,0.0,-1.3783,0.0,0.0,-1.3106,-1.2841,-1.2404,-1.1985,-1.2688,-1.2876,-1.2839,-1.4055,-1.4197,-1.3823,-1.4411,-1.4554,-1.4472,-1.4678,0.0,0.0,0.0,0.0,-1.5249,-1.5534,-1.5847,-1.6097,0.0,0.0,0.0,0.0,0.0,0.0,0.0,0.0,0.0,0.0,0.0,0.0,0.0,0.0,0.0,-2.0277,-2.0839,-2.1143,-2.0588,-2.1135,-2.1599,-2.154,-2.1828,-2.1953,-2.1781,-2.2175,-2.2415,-2.2371,-2.2561,-2.2825,-2.3126,-2.3247,-2.3435,-2.3721,-2.3728,-2.3753,-2.3795,-2.3795,-2.3896,-2.4094,-2.4133,-2.4228,-2.4412,-2.4465,-2.45,-2.45,-2.4515,-2.4532,-2.4551,-2.4566,-2.4957,-2.5573,-2.5502,-2.5484,-2.5484,-2.5501,-2.5088,-2.4545,0.0,0.0,0.0,0.0,0.0,0.0,0.0,0.0,0.0,0.0,0.0,0.0,0.0,0.0,0.0,0.0,0.0,0.0,-0.8111,0.0,0.0,-1.0378,-1.0569,0.0,0.0,0.0,0.0,0.0,0.0,0.0,0.0,0.0,0.0,-1.3783,0.0,0.0,0.0,-1.2355,-1.2313,-1.281,-1.3479,-1.3675,-1.3623,-1.431,-1.4492,-1.4405,-1.4616,-1.4641,-1.4749,-1.5847,-1.5424,0.0,0.0,0.0,-1.4514,-1.5344,-1.4872,0.0,0.0,0.0,0.0,0.0,0.0,0.0,0.0,0.0,0.0,0.0,0.0,0.0,0.0,0.0,0.0,-2.012,-1.9787,-1.9528,-1.9723,-2.0373,-2.0751,-2.0459,-2.1253,-2.1764,-2.1628,-2.1953,-2.2265,-2.2529,-2.29,-2.3146,-2.3271,-2.3399,-2.3553,-2.3774,-2.362,-2.362,-2.3795,-2.3795,-2.3896,-2.4094,-2.4284,-2.4376,-2.4412,-2.4465,-2.45,-2.4517,-2.4613,-2.4676,-2.4676,-2.4808,-2.4903,-2.5017,-2.5003,-2.4984,-2.4955,-2.4738,-2.4714,-2.4731,0.0,0.0,0.0,0.0,0.0,0.0,0.0,0.0,0.0,0.0,0.0,0.0,0.0,0.0,0.0,-0.5681,-0.6243,-0.7185,-0.8606,-0.982,-1.0641,-1.0944,-1.0733,-1.1085,0.0,0.0,0.0,0.0,0.0,0.0,0.0,-1.5243,-1.4719,0.0,0.0,0.0,0.0,0.0,0.0,-1.2953,-1.4021,-1.439,-1.4317,-1.4872,-1.5065,-1.5023,-1.5023,-1.508,-1.5253,-1.5805,-1.5628,-1.5232,-1.5894,0.0,0.0,0.0,0.0,0.0,0.0,0.0,0.0,0.0,0.0,0.0,0.0,0.0,0.0,0.0,0.0,0.0,0.0,0.0,-1.8718,-1.8949,-1.9062,-1.9267,-1.9574,-2.024,-2.0808,-2.1046,-2.151,-2.1781,-2.1705,-2.1853,-2.2027,-2.2192,-2.2358,-2.2616,-2.2883,-2.295,-2.3188,-2.362,-2.3549,-2.3531,-2.3642,-2.3732,-2.3896,-2.4094,-2.4247,-2.4339,-2.4412,-2.4481,-2.4498,-2.45,-2.4566,-2.4582,-2.4599,-2.4734,-2.4794,-2.4775,-2.4828,-2.4842,-2.4832,-2.4682,-2.4685,-2.4734,0.0,0.0,0.0,0.0,0.0,0.0,0.0,0.0,0.0,0.0,0.0,0.0,0.0,0.0,0.0,0.0,-0.6205,-0.7316,-0.9323,-1.0101,-1.0719,-1.1233,-1.0864,-1.1089,-1.2073,0.0,0.0,0.0,0.0,0.0,-1.5695,-1.5465,-1.4785,0.0,-1.3671,0.0,0.0,0.0,0.0,0.0,0.0,-1.4204,0.0,0.0,-1.4936,-1.5125,-1.515,-1.543,-1.5728,-1.561,-1.558,-1.5623,-1.5724,-1.5752,0.0,0.0,0.0,0.0,0.0,0.0,0.0,0.0,0.0,0.0,0.0,0.0,0.0,0.0,0.0,0.0,0.0,0.0,-1.8106,-1.8033,-1.8432,-1.8837,-1.9055,-1.986,-2.0593,-2.1052,-2.1536,-2.1768,-2.1678,-2.1768,-2.1811,-2.1869,-2.1998,-2.2237,-2.2581,-2.2574,-2.2786,-2.324,-2.3285,-2.3307,-2.3307,-2.362,-2.3896,-2.4094,-2.4172,-2.4284,-2.4462,-2.4528,-2.4578,-2.4613,-2.4566,-2.4566,-2.4613,-2.4749,-2.4818,-2.4847,-2.491,-2.4923,-2.4915,-2.4818,-2.479,-2.4823,0.0,0.0,0.0,0.0,0.0,0.0,0.0,0.0,0.0,0.0,0.0,0.0,0.0,-0.5064,-0.499,-0.4715,-0.654,-0.8559,-1.056,-1.0575,-1.0675,-1.1085,-1.101,0.0,-1.2541,0.0,0.0,0.0,0.0,0.0,-1.5145,-1.5181,-1.5036,-1.4716,-1.4272,-1.3736,-1.3212,0.0,0.0,0.0,0.0,0.0,0.0,0.0,0.0,0.0,0.0,-1.5413,-1.6099,-1.5593,-1.5418,-1.5418,-1.5418,-1.5285,-1.5195,0.0,0.0,0.0,0.0,0.0,0.0,0.0,0.0,0.0,0.0,0.0,0.0,0.0,0.0,0.0,0.0,0.0,0.0,-1.8049,-1.7814,-1.759,-1.7607,-1.8799,-1.9542,-1.9269,-2.0763,-2.1678,-2.134,-2.1617,-2.1797,-2.1781,-2.2275,-2.2565,-2.2591,-2.2528,-2.2518,-2.256,-2.2682,-2.2743,-2.2743,-2.3451,-2.3896,-2.4094,-2.4172,-2.4337,-2.4582,-2.4666,-2.4752,-2.4877,-2.4731,-2.4764,-2.4888,-2.5012,-2.5149,-2.5283,-2.5262,-2.5271,-2.525,-2.5057,-2.5069,-2.5153,0.0,0.0,0.0,0.0,0.0,0.0,0.0,0.0,0.0,0.0,0.0,0.0,0.0,-0.5091,-0.5438,-0.6267,-0.8025,-0.9325,-0.9919,-1.0097,-1.0259,-1.0458,-1.0508,-1.1096,-1.2244,-1.3113,0.0,0.0,0.0,-1.5768,-1.5806,-1.5643,-1.5563,-1.548,-1.5025,-1.4607,-1.4273,-1.4077,0.0,0.0,0.0,0.0,0.0,0.0,0.0,0.0,0.0,0.0,-1.5466,-1.5277,-1.4865,-1.4438,-1.4438,-1.4342,-1.431,-1.4907,0.0,0.0,0.0,0.0,0.0,0.0,0.0,0.0,0.0,0.0,0.0,0.0,0.0,0.0,0.0,0.0,0.0,-1.7616,-1.7412,-1.7576,-1.8691,-1.927,-1.9921,-2.0743,-2.1407,-2.1768,-2.1648,-2.1738,-2.1797,-2.1797,-2.2164,-2.2243,-2.1867,-2.2013,-2.2018,-2.1799,-2.1838,-2.2188,-2.2886,-2.3538,-2.3999,-2.4229,-2.4424,-2.4554,-2.4613,-2.4795,-2.4896,-2.4904,-2.4842,-2.4861,-2.4915,-2.5037,-2.5138,-2.5171,-2.5273,-2.5273,-2.5231,-2.5063,-2.5013,-2.5013,0.0,0.0,0.0,0.0,0.0,0.0,0.0,0.0,0.0,0.0,0.0,0.0,0.0,0.0,-0.6281,-0.743,-0.8448,-0.9165,-0.9451,-0.9595,-0.9852,-1.0288,-1.0366,-1.1031,-1.2415,-1.3172,0.0,0.0,0.0,0.0,0.0,0.0,-1.5856,-1.5926,-1.5622,-1.5179,0.0,0.0,0.0,-1.3883,0.0,0.0,-1.3554,0.0,0.0,0.0,0.0,0.0,0.0,-1.4836,-1.4145,-1.3462,-1.3815,0.0,0.0,0.0,0.0,0.0,0.0,0.0,0.0,0.0,0.0,0.0,0.0,0.0,0.0,0.0,0.0,0.0,0.0,0.0,0.0,-1.7322,-1.7281,-1.7642,-1.8784,-1.9453,-2.0164,-2.1078,-2.1628,-2.1986,-2.1998,-2.1998,-2.1927,-2.1743,-2.2046,0.0,-2.127,-2.1322,-2.1321,-2.1134,-2.1133,-2.1623,-2.2659,-2.3327,-2.3786,-2.4064,-2.4527,-2.4776,-2.485,-2.5,-2.5072,-2.5099,-2.5049,-2.5019,-2.4994,-2.5088,-2.5152,-2.5182,-2.5293,-2.5284,-2.5182,-2.5111,-2.5038,-2.5,0.0,0.0,0.0,0.0,0.0,0.0,0.0,0.0,0.0,0.0,0.0,0.0,0.0,0.0,0.0,-0.7997,-0.7764,-0.8095,-0.9357,-0.9181,-0.954,-1.0638,-1.0638,-1.1398,-1.3063,-1.3603,0.0,0.0,0.0,0.0,0.0,0.0,-1.587,0.0,-1.5996,-1.5409,-1.444,0.0,-1.4218,-1.3001,0.0,-1.0988,-1.1737,0.0,0.0,0.0,-1.3579,-1.4365,0.0,-1.4279,0.0,0.0,0.0,0.0,0.0,0.0,0.0,0.0,0.0,0.0,0.0,0.0,0.0,0.0,0.0,0.0,0.0,0.0,0.0,0.0,0.0,0.0,0.0,-1.7214,-1.7441,-1.7721,-1.7721,-1.9117,-2.0125,-2.001,-2.1339,-2.2286,-2.2388,-2.2388,-2.2159,-2.1645,-2.193,-2.1754,-2.0936,-2.0572,-2.0443,-2.0575,-2.0609,-2.1059,-2.198,-2.279,-2.3333,-2.3619,-2.4486,-2.5037,-2.5311,-2.5222,-2.5313,-2.5488,-2.536,-2.5233,-2.5107,-2.5187,-2.5245,-2.5322,-2.5376,-2.5312,-2.5192,-2.5209,-2.5195,-2.5191,0.0,0.0,0.0,0.0,0.0,0.0,0.0,0.0,0.0,0.0,0.0,0.0,0.0,0.0,0.0,-0.8946,-0.9294,-0.9754,-1.0247,-1.0099,-1.0217,-1.067,-1.0822,-1.1565,-1.3076,-1.3155,0.0,0.0,0.0,0.0,0.0,0.0,0.0,0.0,-1.597,-1.5564,-1.4919,-1.4897,0.0,0.0,-1.3254,-1.2922,0.0,0.0,0.0,0.0,0.0,-1.4507,-1.4372,0.0,-1.3552,-1.293,0.0,0.0,0.0,0.0,0.0,0.0,-1.467,0.0,0.0,0.0,0.0,0.0,0.0,0.0,0.0,0.0,0.0,0.0,0.0,0.0,0.0,0.0,-1.8228,-1.8326,-1.8488,-1.8927,-1.9512,-2.0202,-2.0656,-2.1226,-2.2019,-2.2065,-2.1984,0.0,-2.2278,-2.1953,-2.062,-2.0265,-2.0127,-2.0168,-2.0785,-2.1233,-2.1498,-2.2816,-2.3587,-2.3755,-2.4631,-2.5141,-2.5292,-2.5332,-2.537,-2.5434,-2.5385,-2.5321,-2.5253,-2.532,-2.5354,-2.5374,-2.5398,-2.5346,-2.5264,-2.5214,-2.5187,-2.5191,0.0,0.0,0.0,0.0,0.0,0.0,0.0,0.0,0.0,0.0,0.0,0.0,0.0,0.0,0.0,-0.9935,-1.0273,-1.0553,-1.0668,-1.0605,-1.0709,-1.1034,-1.1131,-1.1725,-1.2967,-1.3019,0.0,0.0,0.0,0.0,0.0,0.0,0.0,0.0,0.0,0.0,0.0,0.0,0.0,0.0,-1.343,0.0,0.0,-1.334,-1.3418,0.0,0.0,0.0,-1.359,-1.3768,-1.3483,0.0,0.0,0.0,0.0,0.0,0.0,0.0,0.0,0.0,0.0,0.0,0.0,0.0,-1.4485,-1.4998,-1.5465,0.0,-1.5593,0.0,0.0,0.0,0.0,0.0,-1.8313,-1.7614,-1.8415,-1.9043,-1.9637,-2.0143,-2.0516,-2.1018,-2.1799,-2.181,-2.1706,-2.1534,-2.1852,-2.1525,-2.0388,-2.0167,-2.0079,-2.0079,-2.0547,-2.0833,-2.0872,-2.2121,-2.2955,-2.3448,-2.4312,-2.4946,-2.5341,-2.537,-2.5416,-2.5432,-2.5418,-2.5379,-2.539,-2.5425,-2.5403,-2.5357,-2.5398,-2.5346,-2.5265,-2.5253,-2.5228,-2.5191,0.0,0.0,0.0,0.0,0.0,0.0,0.0,0.0,0.0,0.0,0.0,0.0,0.0,0.0,0.0,0.0,-1.0998,-1.1002,-1.1034,-1.1034,0.0,-1.157,-1.157,-1.1952,-1.2791,-1.3091,0.0,0.0,0.0,0.0,0.0,0.0,0.0,0.0,0.0,0.0,0.0,0.0,0.0,-1.369,-1.2581,-1.2443,0.0,0.0,-1.2225,-1.2673,-1.3207,-1.3151,-1.2908,-1.3276,-1.3207,0.0,0.0,0.0,0.0,0.0,-1.348,0.0,0.0,0.0,0.0,0.0,0.0,0.0,-1.4564,-1.5384,-1.5537,-1.306,-1.4632,0.0,0.0,0.0,0.0,0.0,-1.7915,-1.6456,-1.7948,-1.9319,-2.0137,-2.0011,-2.068,-2.1315,-2.1748,-2.1652,-2.1365,-2.0973,-2.0991,-2.0785,-2.0244,-2.0216,-2.0227,-2.0227,-2.0172,-2.0188,-2.0307,-2.1196,-2.2072,-2.2926,-2.3875,-2.4698,-2.5401,-2.5406,-2.5451,-2.5488,-2.5422,-2.5432,-2.548,-2.5486,-2.5418,-2.5331,-2.5382,-2.5339,-2.5233,-2.5282,-2.5269,-2.5203,-0.8396,0.0,0.0,0.0,0.0,0.0,0.0,0.0,0.0,0.0,0.0,0.0,0.0,0.0,0.0,0.0,0.0,-1.2257,-1.2636,-1.2499,-1.2397,-1.2318,-1.2471,-1.2659,-1.2861,-1.2931,0.0,0.0,0.0,0.0,0.0,0.0,0.0,0.0,0.0,0.0,0.0,0.0,0.0,-1.3177,-1.3011,0.0,-1.2891,-1.2719,-1.2724,-1.2838,-1.3254,-1.3288,-1.3094,-1.292,-1.3082,-1.3238,0.0,0.0,0.0,-1.2711,0.0,0.0,0.0,0.0,0.0,0.0,0.0,0.0,-1.5793,-1.5832,-1.5869,0.0,-1.5653,0.0,0.0,0.0,0.0,0.0,-1.7403,-1.7631,-1.8323,-1.9395,-2.0226,-2.052,-2.0741,-2.1255,-2.225,-2.1639,-2.1206,-2.1225,-2.0759,-2.0395,-2.0298,-2.033,-2.0363,-2.0363,-2.0346,-2.0369,-2.0456,-2.1859,-2.2684,-2.2991,-2.4416,-2.5196,-2.5401,-2.5464,-2.5468,-2.5425,-2.5459,-2.5425,-2.533,-2.5406,-2.5432,-2.546,-2.541,-2.5382,-2.5359,-2.5322,-2.5271,-2.519,-0.8944,0.0,0.0,0.0,0.0,0.0,0.0,0.0,0.0,0.0,0.0,0.0,0.0,0.0,0.0,0.0,0.0,0.0,0.0,0.0,-1.2826,-1.2567,-1.2612,-1.2587,-1.2389,-1.2612,0.0,0.0,0.0,0.0,0.0,0.0,0.0,0.0,0.0,0.0,0.0,0.0,-1.4694,-1.3877,-1.357,0.0,-1.2311,-1.2842,-1.2806,-1.2544,-1.319,-1.3341,-1.3129,-1.2674,-1.2627,0.0,0.0,-1.325,-1.3233,0.0,-1.3215,-1.3862,0.0,0.0,0.0,-1.409,0.0,0.0,0.0,-1.639,-1.6499,-1.6684,-1.6451,-1.5999,-1.5152,0.0,-1.4243,-1.5873,-1.5179,-1.5364,-1.8124,-1.9165,-1.979,-2.0159,-2.0289,-2.0641,-2.1383,-2.0982,-2.0712,-2.09,-2.0597,-2.0605,-2.1069,-2.0713,-2.0702,-2.1131,-2.0694,-2.048,-2.0506,-2.1704,-2.2538,-2.3014,-2.4188,-2.499,-2.5456,-2.5448,-2.5423,-2.5397,-2.5437,-2.5403,-2.5348,-2.539,-2.5418,-2.5439,-2.5382,-2.535,-2.5341,-2.5303,-2.5262,-2.5192,-0.9764,0.0,0.0,0.0,0.0,0.0,0.0,0.0,0.0,0.0,0.0,0.0,0.0,0.0,0.0,0.0,0.0,0.0,0.0,0.0,0.0,-1.2914,-1.2758,-1.2541,-1.2193,-1.2491,-1.2983,0.0,0.0,0.0,0.0,0.0,0.0,0.0,0.0,0.0,0.0,0.0,0.0,-1.4374,0.0,-1.296,-1.1827,-1.288,-1.2745,-1.2087,-1.3009,-1.3361,-1.3231,-1.2448,-1.2207,-1.2357,-1.3148,-1.2996,0.0,0.0,0.0,0.0,0.0,0.0,0.0,0.0,0.0,-1.4991,0.0,0.0,0.0,-1.6385,-1.6616,0.0,0.0,0.0,0.0,0.0,0.0,0.0,0.0,-1.8483,0.0,-1.9888,-2.0141,-2.0346,-2.0615,-2.0399,-2.032,-2.0465,-2.0486,-2.0833,-2.1578,-2.0947,-2.0883,-2.1612,-2.1035,-2.0731,-2.0761,-2.1762,-2.2617,-2.3271,-2.4097,-2.4832,-2.5511,-2.5468,-2.544,-2.5421,-2.5422,-2.5403,-2.5406,-2.539,-2.5382,-2.5374,-2.5322,-2.5293,-2.5302,-2.5303,-2.5264,-2.5233,-1.1292,0.0,0.0,0.0,0.0,0.0,0.0,0.0,0.0,0.0,0.0,0.0,0.0,0.0,0.0,0.0,0.0,0.0,-1.5752,0.0,0.0,0.0,-1.3595,-1.3339,-1.3225,-1.3267,-1.3639,-1.4356,0.0,0.0,0.0,0.0,0.0,0.0,-1.6047,0.0,0.0,0.0,-1.4347,0.0,-1.3729,-1.3248,0.0,-1.3283,-1.2787,-1.1675,-1.2508,-1.3276,-1.3704,0.0,-1.223,-1.2529,0.0,-1.1497,-1.1642,-1.0785,0.0,0.0,0.0,0.0,0.0,0.0,-1.4017,0.0,0.0,0.0,-1.5681,-1.5921,0.0,0.0,0.0,0.0,0.0,0.0,0.0,0.0,-1.5349,-1.7013,-1.8824,-2.0709,-2.1275,-2.1492,-2.1475,-2.0857,-2.0444,-2.0408,-2.0469,-2.0516,-2.0569,-2.0488,-2.0506,-2.0642,-2.1188,-2.1563,-2.1738,-2.3242,-2.4081,-2.4257,-2.506,-2.5457,-2.5492,-2.555,-2.5543,-2.5485,-2.5499,-2.5453,-2.5406,-2.534,-2.5303,-2.5303,-2.5293,-2.5303,-2.5303,-2.5303,-2.5303,-2.5293,-1.1516,0.0,0.0,0.0,0.0,0.0,0.0,0.0,0.0,0.0,0.0,0.0,0.0,0.0,0.0,0.0,0.0,-1.5059,0.0,0.0,0.0,0.0,-1.3852,-1.3474,-1.3096,-1.3335,-1.3724,-1.4344,-1.4569,0.0,0.0,0.0,0.0,0.0,-1.6336,0.0,-1.5468,0.0,-1.4876,0.0,0.0,0.0,0.0,-1.3558,-1.3682,-1.3351,-1.3439,-1.3782,-1.4029,0.0,-1.2693,0.0,0.0,0.0,0.0,0.0,0.0,0.0,0.0,0.0,0.0,0.0,0.0,0.0,-1.4251,0.0,-1.4819,0.0,0.0,0.0,0.0,0.0,0.0,0.0,-1.2743,0.0,0.0,0.0,-1.671,0.0,0.0,0.0,-2.0817,-2.0566,-1.9784,-1.8359,-1.9648,-2.0053,-1.9054,-1.9977,-2.0759,-2.1301,-2.1611,-2.1564,-2.1156,-2.2773,-2.3627,-2.366,-2.4503,-2.5114,-2.5492,-2.5524,-2.5525,-2.5492,-2.5456,-2.5456,-2.5453,-2.539,-2.5357,-2.5357,-2.5357,-2.534,-2.5303,-2.5303,-2.5303,-2.5303,0.0,0.0,0.0,0.0,0.0,0.0,0.0,0.0,0.0,0.0,0.0,0.0,-1.7254,-1.6697,0.0,0.0,-1.6292,-1.5744,0.0,0.0,-1.4084,0.0,0.0,0.0,0.0,-1.3641,-1.4113,-1.4687,-1.4853,0.0,0.0,0.0,0.0,0.0,0.0,-1.5698,-1.4776,0.0,0.0,-1.2892,-1.322,-1.3502,-1.3694,-1.388,-1.434,-1.4887,-1.4332,-1.4305,-1.4478,-1.3914,-1.3246,0.0,-1.2563,0.0,0.0,0.0,0.0,0.0,-1.1139,0.0,0.0,0.0,0.0,0.0,0.0,0.0,0.0,0.0,0.0,0.0,0.0,0.0,0.0,0.0,0.0,-1.2327,0.0,0.0,0.0,0.0,0.0,0.0,0.0,-2.0245,-1.9283,-1.6865,-1.9027,-1.9621,-1.7732,-1.9445,-2.0809,-2.153,-2.1725,-2.1539,-2.0968,-2.2355,-2.3199,-2.3467,-2.4092,-2.4803,-2.5531,-2.5526,-2.5515,-2.5499,-2.548,-2.549,-2.5523,-2.5466,-2.5425,-2.5425,-2.5425,-2.5406,-2.5348,-2.534,-2.5331,-2.5331,-1.2657,-1.2271,0.0,0.0,0.0,0.0,0.0,0.0,0.0,0.0,0.0,0.0,0.0,0.0,0.0,0.0,0.0,-1.6853,-1.7149,0.0,-1.4989,0.0,0.0,-1.4698,0.0,-1.4582,-1.5073,-1.594,-1.594,0.0,0.0,0.0,0.0,0.0,0.0,-1.5463,-1.4225,-1.4037,-1.2899,-1.1379,-1.3659,-1.488,-1.5283,0.0,-1.4456,-1.5467,-1.475,0.0,0.0,-1.4122,-1.3868,0.0,0.0,0.0,0.0,0.0,0.0,0.0,0.0,0.0,0.0,-1.1539,0.0,0.0,0.0,0.0,-1.1013,0.0,0.0,0.0,0.0,0.0,0.0,0.0,0.0,0.0,0.0,0.0,0.0,0.0,0.0,0.0,0.0,-2.0076,-1.9269,-1.68,-1.8889,-1.9266,-1.6875,-1.8941,-2.0343,-2.0632,-2.127,-2.1692,-2.1858,-2.2613,-2.3455,-2.4355,-2.4394,-2.4827,-2.5593,-2.5596,-2.5561,-2.5499,-2.5568,-2.5599,-2.5599,-2.5523,-2.5498,-2.5498,-2.5498,-2.5498,-2.5486,-2.5418,-2.5406,-2.5414,0.0,0.0,0.0,0.0,0.0,0.0,0.0,-1.7368,0.0,0.0,0.0,0.0,0.0,-1.7505,-1.7497,0.0,0.0,-1.6121,-1.6774,-1.5261,0.0,0.0,0.0,-1.4512,0.0,0.0,-1.4971,-1.568,-1.5724,-1.612,0.0,0.0,0.0,0.0,0.0,-1.4,0.0,0.0,0.0,0.0,0.0,-1.3379,-1.4381,0.0,-1.5276,-1.6069,-1.6074,-1.629,0.0,-1.5447,-1.4504,-1.3496,-1.2118,-1.0931,-0.9923,-0.96,-0.9937,-1.0499,0.0,0.0,-1.1514,-1.0852,0.0,0.0,0.0,0.0,0.0,0.0,0.0,0.0,0.0,0.0,0.0,0.0,0.0,0.0,0.0,0.0,0.0,0.0,0.0,0.0,0.0,0.0,0.0,-1.3996,-1.57,-1.6103,-1.4218,-1.8105,-2.0467,-2.0594,-2.1389,-2.1542,-2.1042,-2.2395,-2.3203,-2.3475,-2.4049,-2.4766,-2.5525,-2.5534,-2.5522,-2.5499,-2.5518,-2.556,-2.5593,-2.558,-2.5576,-2.5576,-2.5576,-2.5537,-2.5498,-2.548,-2.5473,-2.5464,-1.313,0.0,0.0,0.0,0.0,0.0,0.0,0.0,0.0,0.0,-1.7869,0.0,-1.7416,0.0,-1.704,0.0,-1.6053,-1.558,-1.6148,-1.4941,0.0,-1.5057,-1.4619,0.0,0.0,0.0,-1.4697,-1.5277,-1.5266,-1.5579,0.0,0.0,0.0,0.0,0.0,0.0,-1.168,0.0,-1.0606,0.0,0.0,-1.2144,0.0,0.0,-1.518,-1.6552,0.0,-1.7031,-1.7131,-1.6355,-1.544,-1.4303,-1.2771,-1.1504,-1.0407,-0.9909,-1.0163,-1.0776,-1.134,-1.1573,0.0,-1.0614,-1.0648,0.0,-0.8906,0.0,-0.8692,0.0,0.0,0.0,0.0,0.0,0.0,0.0,0.0,0.0,0.0,-1.4349,0.0,0.0,0.0,0.0,0.0,0.0,-1.758,-1.2871,-1.527,-1.6085,0.0,-1.8377,-2.0775,-2.0566,-2.1697,-2.1736,-2.0585,-2.1933,-2.2775,-2.3037,-2.3597,-2.4445,-2.5511,-2.5511,-2.5495,-2.5492,-2.5518,-2.5551,-2.5601,-2.5636,-2.5642,-2.5642,-2.5642,-2.5605,-2.558,-2.5542,-2.5551,-2.5549,0.0,0.0,0.0,0.0,-1.6454,0.0,0.0,0.0,-1.7949,0.0,-1.747,-1.705,-1.748,-1.7074,-1.6607,-1.6198,-1.5618,-1.5304,-1.5406,-1.4881,0.0,0.0,-1.4746,-1.4305,-1.4466,0.0,0.0,0.0,-1.4709,0.0,0.0,0.0,0.0,0.0,-1.2696,0.0,-1.0447,-1.1439,-1.0789,-0.917,-1.028,-1.1298,-1.2146,-1.2376,-1.427,-1.6828,-1.6777,-1.704,-1.7299,-1.6815,-1.6464,-1.5978,-1.4494,-1.3185,-1.2033,-1.1601,-1.1318,-1.1318,-1.203,-1.1204,-1.0261,-1.0772,-1.0076,0.0,0.0,0.0,-0.8532,0.0,0.0,0.0,0.0,0.0,0.0,0.0,0.0,0.0,0.0,0.0,0.0,0.0,0.0,0.0,0.0,-1.8849,-1.7566,-1.3495,-1.7463,0.0,0.0,-1.96,-2.1208,-2.057,-2.2103,-2.2163,-2.0572,-2.1382,-2.2211,-2.3022,-2.3121,-2.3953,-2.5434,-2.5492,-2.5511,-2.5499,-2.5568,-2.561,-2.5615,-2.5673,-2.5707,-2.5707,-2.5707,-2.5707,-2.5685,-2.5636,-2.5632,-2.5678,-1.4576,-1.5312,-1.5996,0.0,-1.7564,-1.8341,0.0,0.0,0.0,0.0,-1.7161,-1.6664,-1.6646,-1.6475,-1.6525,-1.6894,-1.6411,0.0,0.0,0.0,0.0,-1.3961,-1.3648,-1.3324,-1.2948,-1.3256,-1.3494,-1.3637,0.0,0.0,-1.4039,0.0,0.0,0.0,0.0,0.0,-0.9773,-0.9681,-0.9796,-1.0086,-1.0773,-1.1692,-1.266,0.0,-1.435,-1.5634,-1.5154,-1.6455,-1.8152,-1.6335,-1.5709,-1.5417,-1.36,-1.2299,-1.1325,-1.0805,-1.1233,-1.1918,-1.2276,-1.2387,-1.2177,-1.1273,-1.0998,-1.0513,0.0,0.0,0.0,0.0,0.0,0.0,0.0,0.0,0.0,0.0,0.0,0.0,0.0,0.0,0.0,-1.5694,0.0,0.0,-1.7653,-1.5587,-1.434,-1.4571,-1.7738,0.0,0.0,0.0,-2.1301,-2.1172,-2.1724,-2.1789,-2.1258,-2.1565,-2.1788,-2.1937,-2.3276,-2.4126,-2.4563,-2.5201,-2.5511,-2.5499,-2.5568,-2.561,-2.5615,-2.5673,-2.5707,-2.5707,-2.5707,-2.5707,-2.5705,-2.5671,-2.5625,-2.5547,-1.526,0.0,0.0,-1.7946,0.0,0.0,-1.8695,-1.8548,0.0,-1.7706,-1.7068,0.0,-1.6481,-1.6552,-1.6663,-1.6894,-1.6701,0.0,-1.6288,0.0,0.0,-1.4139,-1.3432,-1.2969,-1.2909,-1.2977,0.0,-1.2861,0.0,0.0,-1.2735,0.0,0.0,0.0,0.0,-1.0162,0.0,-0.9252,-0.9534,-1.0288,-1.1687,-1.2204,0.0,-1.2837,-1.397,-1.5194,-1.4365,-1.6097,-1.8593,-1.7267,-1.6599,-1.5978,-1.4519,-1.3256,-1.2199,-1.167,-1.2132,-1.2803,-1.2783,-1.289,-1.283,-1.1901,-1.1845,-1.1601,-0.9974,-1.0136,-1.0495,0.0,-0.9383,-0.9028,0.0,0.0,0.0,0.0,0.0,0.0,0.0,0.0,0.0,0.0,-1.6576,0.0,-1.7394,-1.6003,-1.5473,-1.6343,-1.7998,0.0,0.0,0.0,-2.1473,-2.1218,-2.196,-2.2042,-2.1374,-2.1462,-2.1881,-2.2601,-2.3265,-2.3995,-2.4776,-2.5279,-2.5507,-2.5517,-2.5601,-2.5625,-2.5613,-2.5676,-2.5707,-2.5707,-2.5707,-2.5707,-2.5705,-2.5696,-2.5629,-2.5547,0.0,0.0,0.0,0.0,0.0,0.0,0.0,-1.8185,0.0,-1.7623,0.0,-1.6578,-1.6608,-1.6833,-1.6879,-1.6692,0.0,-1.6802,-1.6703,-1.5099,-1.4328,-1.4755,-1.3387,-1.2745,-1.308,-1.2628,-1.2304,0.0,0.0,0.0,0.0,0.0,0.0,0.0,0.0,0.0,0.0,-0.9787,-1.0066,-1.0639,-1.2762,-1.2839,-1.1762,-1.241,-1.374,-1.5157,-1.4454,-1.6203,-1.8793,-1.8442,-1.7848,-1.7029,-1.6095,-1.4869,-1.37,-1.3195,-1.3423,-1.3752,-1.3396,-1.3205,-1.3004,-1.2686,-1.2822,-1.2742,-1.2004,-1.201,-1.2148,-1.1945,-1.0903,-1.0339,-1.1141,0.0,0.0,0.0,0.0,0.0,0.0,0.0,0.0,0.0,0.0,0.0,-1.7256,-1.8,-1.8403,-1.8186,0.0,0.0,0.0,0.0,-2.169,-2.1267,-2.2545,-2.2602,-2.1314,-2.1396,-2.2183,-2.363,-2.3165,-2.3794,-2.5356,-2.5441,-2.5498,-2.5517,-2.5651,-2.5649,-2.5616,-2.5659,-2.5707,-2.5707,-2.5709,-2.5709,-2.5705,-2.5696,-2.5658,-2.5593,0.0,0.0,0.0,0.0,0.0,-1.8491,-1.7573,-1.7205,-1.7104,-1.7332,-1.6546,-1.5992,-1.6106,-1.6163,-1.6576,-1.7492,-1.7298,0.0,0.0,0.0,0.0,-1.2721,-1.1808,-1.0989,-1.0311,-1.0664,-1.0871,0.0,0.0,0.0,0.0,0.0,0.0,0.0,0.0,0.0,-1.0764,-1.0974,0.0,-1.338,-1.347,-1.3378,-1.3265,-1.4629,-1.5057,-1.5004,-1.5993,-1.7499,-1.8777,-1.6996,-1.6804,-1.7098,-1.5966,-1.4994,-1.4201,-1.4097,-1.4226,-1.4261,-1.3695,-1.4075,-1.4459,-1.3961,-1.4367,-1.4857,-1.4596,-1.4952,-1.5251,-1.505,-1.3714,-1.2623,-1.2865,0.0,0.0,0.0,0.0,0.0,0.0,0.0,0.0,0.0,0.0,-1.8189,-1.6781,-1.7325,-1.7996,0.0,0.0,0.0,0.0,0.0,-2.1959,0.0,-2.3105,-2.2882,0.0,0.0,-2.2037,-2.1719,-2.3122,-2.4039,-2.4539,-2.5194,-2.5535,-2.5586,-2.5601,-2.5605,-2.5616,-2.5659,-2.5707,-2.5709,-2.5699,-2.5694,-2.5693,-2.5637,-2.5616,-2.5595,0.0,0.0,0.0,0.0,0.0,0.0,0.0,-1.6739,-1.6188,-1.6938,-1.6652,-1.6367,-1.6322,-1.6638,-1.712,-1.7751,-1.7835,-1.7772,-1.7518,-1.5906,-1.3156,-0.9116,-0.8103,-0.5879,-0.2167,-0.2366,-0.2183,-0.1486,0.0,0.0,0.0,0.0,0.0,0.0,0.0,-1.0485,0.0,0.0,0.0,-1.3924,-1.4485,-1.4568,-1.4419,-1.5325,-1.5555,-1.5575,-1.6635,-1.772,-1.8489,-1.758,-1.7441,-1.7585,-1.7024,-1.6145,-1.5332,-1.5332,-1.5421,-1.5466,-1.5096,-1.4994,-1.5061,-1.536,-1.546,-1.5656,-1.6392,-1.6762,-1.6952,-1.6875,-1.5812,-1.4538,-1.3258,-1.3379,0.0,0.0,0.0,0.0,0.0,0.0,-1.8068,0.0,0.0,0.0,0.0,0.0,0.0,0.0,0.0,0.0,0.0,0.0,-2.1692,0.0,0.0,0.0,-2.2627,0.0,-2.2488,-2.3225,-2.3726,-2.4279,-2.4949,-2.541,-2.5609,-2.56,-2.5644,-2.5646,-2.5654,-2.5683,-2.5691,-2.5696,-2.57,-2.5696,-2.5698,-2.5618,-2.5593,-2.5605,0.0,-1.7214,0.0,0.0,-1.5448,0.0,-1.3827,-1.3412,-1.4026,-1.6352,-1.6668,-1.6593,-1.6397,-1.7039,-1.7565,-1.7782,-1.8165,-1.821,-1.7702,-1.6046,-1.2838,-0.78,-0.5353,-0.1735,0.3332,0.4833,0.6081,0.0,0.0,0.0,0.0,0.0,0.0,0.0,0.0,0.0,0.0,0.0,-1.3585,-1.4147,-1.522,-1.5468,-1.5244,-1.5635,-1.5888,-1.6182,-1.6983,-1.7706,-1.826,-1.8521,-1.8394,-1.8108,-1.7828,-1.7076,-1.6269,-1.6095,-1.6151,-1.6151,-1.582,-1.5564,-1.5572,-1.6346,-1.646,-1.6718,-1.812,-1.843,-1.8452,-1.8651,-1.7785,-1.6309,-1.3992,-1.4716,0.0,0.0,0.0,0.0,0.0,0.0,0.0,0.0,0.0,0.0,-1.6984,0.0,0.0,0.0,0.0,0.0,-2.036,0.0,0.0,0.0,0.0,-2.2672,-2.2827,0.0,-2.3293,-2.482,-2.4415,-2.467,-2.5526,-2.5625,-2.5651,-2.5625,-2.5681,-2.5701,-2.5691,-2.5691,-2.5696,-2.5702,-2.5702,-2.5698,-2.5664,-2.562,-2.5597,-2.5595,0.0,0.0,0.0,0.0,0.0,0.0,0.0182,-0.3134,-0.885,-1.54,-1.6046,-1.5859,-1.5699,-1.6307,-1.7009,-1.7749,-1.8018,-1.7959,-1.7544,-1.6573,-1.5,-1.2807,-0.6399,-0.2368,-0.13,0.4628,0.7772,0.0,0.0,0.5651,0.0,0.0,0.0,0.0,0.0,0.0,0.0,-1.4157,-1.4663,-1.5153,-1.5153,-1.5289,-1.5546,-1.6373,-1.6532,-1.6476,-1.7491,-1.8064,-1.8405,-1.8535,-1.8574,-1.8341,-1.7352,-1.668,-1.6139,-1.5412,-1.5322,-1.5164,-1.4165,-1.5274,-1.6625,-1.6163,-1.765,-1.9445,-2.0317,-2.0464,-2.0637,-2.1361,-1.9991,-1.8158,-1.6468,-1.6581,-1.6905,0.0,0.0,0.0,0.0,0.0,-1.928,-1.8802,0.0,0.0,-1.8303,-1.8568,0.0,0.0,-1.7356,0.0,0.0,0.0,0.0,-2.1912,-2.3077,-2.2998,-2.1588,-2.3546,-2.431,-2.3922,-2.4839,-2.539,-2.5583,-2.5605,-2.5642,-2.5696,-2.5703,-2.5702,-2.5699,-2.5699,-2.5702,-2.5703,-2.5699,-2.5663,-2.5615,-2.559,-2.5595,-2.5598,0.0,0.0,0.0,0.0,0.0,0.0,0.0,-0.0161,-0.2708,-1.3418,-1.509,-1.5225,-1.5136,-1.565,-1.6171,-1.65,-1.7022,-1.5971,-1.2804,-1.2427,-0.9186,-0.2126,0.1011,0.5057,1.0347,1.3547,1.6061,0.0,0.0,0.0,0.0,0.0,0.0,0.0,0.0,-1.3246,-1.4586,-1.5151,-1.5776,-1.6373,-1.6244,-1.6095,-1.6001,-1.6886,-1.6957,-1.6815,-1.7972,-1.8603,-1.8964,-1.9405,-1.9266,-1.8717,-1.7828,-1.7092,-1.6366,-1.5632,-1.5242,-1.5129,-1.5395,-1.5886,-1.6712,-1.811,-1.8795,-1.9582,-2.1305,-2.1673,-2.181,-2.2436,-2.1233,-1.9446,-1.7477,-1.7437,-1.7719,-1.7745,0.0,0.0,0.0,0.0,0.0,-1.9797,0.0,-2.006,0.0,-1.9647,0.0,0.0,0.0,0.0,0.0,0.0,0.0,-2.2954,0.0,-2.3878,-2.3444,-2.4383,-2.4827,-2.4778,-2.5197,-2.5469,-2.5602,-2.5643,-2.5662,-2.5703,-2.57,-2.5702,-2.5701,-2.5703,-2.5703,-2.5702,-2.5699,-2.5683,-2.5659,-2.5662,-2.5631,-2.5593,-0.4998,0.0,-0.3638,0.0,-0.0262,-0.0934,0.2108,0.6639,0.5414,-0.6592,-1.0119,-1.2376,-1.4651,-1.4212,-1.3916,-1.4283,-1.3565,-1.162,-0.8078,-0.804,-0.4711,0.3031,0.5139,0.0,1.5256,1.8427,2.1186,2.365,2.4571,0.0,0.0,0.0,0.0,0.0,-1.2752,-1.4519,-1.6033,-1.6456,-1.6957,-1.7545,-1.7491,-1.7247,-1.6985,-1.7863,-1.8018,-1.7924,-1.9111,-1.9791,-2.0169,-2.0539,-2.032,-1.9697,-1.8507,-1.7477,-1.6528,-1.5596,-1.4903,-1.471,-1.5731,-1.604,-1.6635,-1.9075,-1.9677,-2.0137,-2.2027,-2.2514,-2.2642,-2.2856,-2.1966,-2.0607,-1.8825,-1.8527,-1.8608,-1.865,0.0,0.0,0.0,-2.1004,0.0,-2.0458,-2.0873,-2.0823,-1.9928,-2.0553,0.0,0.0,0.0,0.0,0.0,0.0,0.0,0.0,0.0,0.0,-2.4385,-2.4847,-2.5186,-2.5406,-2.5459,-2.5545,-2.5622,-2.565,-2.5657,-2.5671,-2.5659,-2.5642,-2.5664,-2.5675,-2.5677,-2.5697,-2.5697,-2.5701,-2.5703,-2.5703,-2.5677,-2.5637,-0.4687,-0.6901,-0.6036,0.3822,0.2994,0.5522,1.9101,2.0185,1.6044,0.6586,0.0165,-0.649,-1.4251,-1.1672,-0.9825,-1.0957,-0.6949,-0.4385,-0.4449,-0.4341,-0.3773,0.0,0.0,0.6651,0.7606,1.5886,2.0666,2.1639,0.0,0.0,1.645,0.0,-0.5981,-1.4596,-1.4156,-1.5635,-1.8363,-1.8177,-1.8264,-1.8607,-1.8811,-1.8767,-1.8664,-1.9486,-1.9882,-2.0208,-2.1201,-2.186,-2.2211,-2.1877,-2.1769,-2.1368,-1.9184,-1.7665,-1.6443,-1.5083,-1.4075,-1.3579,-1.4266,-1.5286,-1.6612,-1.8309,-2.0184,-2.1866,-2.2613,-2.3047,-2.3182,-2.278,-2.2258,-2.1688,-2.1007,-2.0265,-1.9808,-1.9864,0.0,0.0,0.0,-2.0034,0.0,-2.0783,-1.9621,-1.9566,-2.1663,-2.122,0.0,0.0,0.0,0.0,0.0,0.0,0.0,-2.228,-2.3598,0.0,-2.3411,-2.4807,-2.5459,-2.5405,-2.56,-2.5703,-2.5699,-2.5551,-2.5537,-2.5598,-2.5532,-2.5537,-2.5593,-2.5593,-2.564,-2.5707,-2.5707,-2.5698,-2.5703,-2.5702,-2.5702,-2.57,0.2043,0.2523,0.4499,1.094,1.4151,1.6624,1.9073,1.5344,1.0866,0.7063,0.352,-0.0566,-0.5612,-0.5849,-0.5519,0.0,-0.4657,-0.3128,0.0,-0.0164,0.1461,0.4996,0.6566,0.8157,0.9908,1.3144,1.6009,1.8454,0.0,0.0,0.0,-0.3972,-1.1872,-1.5018,-1.7181,-1.8904,-2.0144,-1.9855,-2.0096,-2.0636,-2.0726,-2.0489,-2.0229,-2.136,-2.16,-2.1392,-2.1961,-2.2414,-2.2741,-2.2603,-2.2538,-2.241,-2.1579,-1.9231,-1.6571,-1.5622,-1.4888,-1.4654,-1.5734,-1.6955,-1.8318,-2.0107,-2.0863,-2.1483,-2.2783,-2.3541,-2.3785,-2.3065,-2.271,-2.2255,-2.1393,-2.0734,-2.042,-2.0699,-2.0299,0.0,-2.1181,0.0,-2.1597,-2.2184,-2.201,-2.213,-2.2932,-2.2934,0.0,0.0,0.0,0.0,0.0,0.0,0.0,0.0,-2.4484,0.0,-2.4754,-2.5297,-2.5564,-2.5541,-2.5606,-2.5615,-2.5562,-2.5525,-2.5506,-2.5523,-2.5506,-2.5505,-2.5532,-2.5532,-2.5542,-2.5556,-2.5556,-2.5589,-2.5629,-2.5632,-2.5629,-2.5631,0.4889,0.6234,0.8144,1.2056,1.5376,1.6275,1.2768,0.8776,0.5873,0.4988,0.3507,0.2016,0.0562,-0.0196,0.0,-0.1523,0.0086,0.2049,0.417,0.4562,0.6079,0.9061,0.8455,0.8781,1.0352,1.1582,0.0,1.4896,1.6934,1.354,0.4963,-0.4839,-1.1407,-1.5138,-1.8151,-2.015,-2.126,-2.1121,-2.1459,-2.2145,-2.2354,-2.218,-2.1872,-2.2722,-2.296,-2.2867,-2.3087,-2.3437,-2.3784,-2.3583,-2.3489,-2.3454,-2.3173,-2.0916,-1.8252,-1.7516,-1.676,-1.6373,-1.7596,-1.8273,-1.9125,-2.1084,-2.1502,-2.1745,-2.2999,-2.366,-2.3783,-2.2933,-2.2745,-2.2548,-2.1967,-2.1536,-2.1308,-2.1586,-2.1205,-2.1142,-2.1905,0.0,-2.2422,0.0,0.0,-2.3132,0.0,-2.3689,-2.3749,0.0,0.0,0.0,0.0,0.0,-2.426,-2.4526,-2.4948,-2.5252,-2.5391,-2.55,-2.557,-2.5561,-2.5561,-2.5535,-2.5492,-2.5468,-2.5461,-2.5476,-2.5777,-2.5735,-2.5485,-2.5815,-2.5758,-2.5504,-2.5529,-2.5554,-2.5604,-2.5629,-2.5634,-2.5644,0.4216,0.4857,0.5778,0.0,0.8521,0.6972,0.2458,0.1797,0.1715,0.1443,0.1119,0.1714,0.396,0.4577,0.3622,0.0657,0.0,0.0,0.8679,0.9145,0.9562,0.971,0.8837,0.8633,0.9106,1.0853,1.1629,1.1359,1.3018,1.0217,0.328,-0.0365,-0.6732,-1.5185,-1.7649,-1.988,-2.1833,-2.2029,-2.2474,-2.3118,-2.3667,-2.373,-2.3521,-2.3668,-2.4024,-2.4476,-2.4466,-2.4774,-2.5148,-2.4698,-2.4522,-2.4471,-2.4094,-2.2728,-2.1161,-2.0449,-1.9329,-1.8521,-1.9574,-1.9406,-1.9405,-2.1486,-2.2214,-2.2598,-2.327,-2.3526,-2.341,-2.2642,-2.2579,-2.2677,-2.2643,-2.2513,-2.2427,-2.2582,-2.2263,-2.2194,-2.2695,-2.2505,-2.26,0.0,0.0,0.0,-2.4031,-2.3683,-2.3765,0.0,0.0,0.0,0.0,0.0,-2.4461,-2.4891,-2.511,-2.5288,-2.5418,-2.5468,-2.5499,-2.5492,-2.5485,-2.5485,-2.5478,-2.5421,-2.5434,-2.552,-2.6207,-2.6111,-2.5534,-2.6288,-2.6161,-2.5492,-2.5562,-2.5587,-2.5593,-2.5654,-2.5683,-2.5698,0.0,0.0,0.335,0.5723,0.5684,0.455,0.2153,0.1797,0.1777,0.1719,0.1627,0.1708,0.2009,0.3094,0.3735,0.3572,0.6169,0.8084,0.8725,0.8474,0.8527,0.9033,0.8402,0.8203,0.858,0.8933,0.961,1.0694,0.7525,0.4631,0.1866,-0.6159,-1.2071,-1.607,-1.9497,-2.1752,-2.3005,-2.3169,-2.345,-2.3897,-2.4413,-2.4603,-2.4587,-2.4859,-2.5044,-2.5161,-2.5044,-2.5124,-2.524,-2.4963,-2.4882,-2.4863,-2.483,-2.4537,-2.3747,-2.1362,-2.0495,-2.0313,-2.0265,-2.1132,-2.216,-2.2746,-2.3213,-2.3575,-2.3753,-2.3844,-2.3795,-2.3405,-2.3341,-2.3346,-2.3293,-2.3302,-2.3338,-2.3479,-2.3286,-2.3181,-2.3289,-2.3415,-2.3575,0.0,-2.3817,-2.4044,-2.458,-2.4467,-2.4558,0.0,0.0,-2.5092,-2.505,-2.5005,-2.4981,-2.5059,-2.5255,-2.5396,-2.5486,-2.5485,-2.5464,-2.5426,-2.5367,-2.534,-2.534,-2.5341,-2.5697,-2.6294,-2.5812,-2.588,-2.6285,-2.5823,-2.5542,-2.5432,-2.544,-2.5476,-2.5519,-2.5488,-2.5531,-2.5613,0.2426,0.1975,0.2389,0.4856,0.4976,0.4087,0.2107,0.1797,0.1797,0.1797,0.1797,0.1741,0.1572,0.2732,0.4213,0.5964,0.6961,0.7729,0.8368,0.815,0.8256,0.889,0.8408,0.8256,0.8573,0.8633,0.8822,0.9126,0.6459,0.3738,0.091,-0.511,-1.035,-1.4815,-1.8292,-2.0935,-2.283,-2.3217,-2.3614,-2.4054,-2.4523,-2.4718,-2.4768,-2.5166,-2.5336,-2.5343,-2.5266,-2.5262,-2.5289,-2.5172,-2.5048,-2.4913,-2.4951,-2.4923,-2.4548,-2.2896,-2.2458,-2.2474,-2.2284,-2.2671,-2.3225,-2.3529,-2.4001,-2.4329,-2.4238,-2.4208,-2.4118,-2.3871,-2.3771,-2.3751,-2.3852,-2.395,-2.4063,-2.419,-2.4116,-2.4078,-2.4134,-2.4116,-2.4153,-2.421,-2.4431,-2.464,-2.4823,-2.4917,-2.5068,-2.531,-2.5214,0.0,-2.5242,-2.5157,-2.5128,-2.5149,-2.5279,-2.536,-2.5359,-2.5395,-2.5395,-2.535,-2.5332,-2.5303,-2.5303,-2.5293,-2.5562,-2.6005,-2.5927,-2.5927,-2.6005,-2.5938,-2.5707,-2.5398,-2.5397,-2.5434,-2.5498,-2.5492,-2.555,-2.5643,0.2873,0.2233,0.2259,0.473,0.5136,0.4412,0.2125,0.1797,0.1685,0.1403,0.1403,0.1403,0.1515,0.2567,0.4323,0.7015,0.7622,0.7848,0.7735,0.7931,0.8243,0.8738,0.8586,0.8527,0.8672,0.8784,0.8408,0.7492,0.694,0.4537,0.0327,-0.1845,-0.6442,-1.2937,-1.5931,-1.9078,-2.2134,-2.2805,-2.3415,-2.397,-2.4407,-2.4572,-2.4576,-2.503,-2.5226,-2.5271,-2.5271,-2.5279,-2.5292,-2.5253,-2.5022,-2.4755,-2.4721,-2.4561,-2.4364,-2.4251,-2.4204,-2.4244,-2.4374,-2.3957,-2.3591,-2.4148,-2.461,-2.4884,-2.4733,-2.4586,-2.4432,-2.4197,-2.4096,-2.4116,-2.4327,-2.4485,-2.4628,-2.476,-2.4795,-2.4845,-2.4934,0.0,-2.458,-2.4695,-2.4829,-2.4957,-2.4985,-2.5187,-2.5391,-2.5585,-2.5376,-2.5277,-2.531,-2.5139,-2.508,-2.5208,-2.5249,-2.5264,-2.5222,-2.5264,-2.5303,-2.5303,-2.5303,-2.5303,-2.5303,-2.5303,-2.536,-2.5534,-2.614,-2.6063,-2.5553,-2.616,-2.6025,-2.5427,-2.5423,-2.5459,-2.5514,-2.5576,-2.5629,-2.5692,0.1983,0.1863,0.2316,0.4152,0.4442,0.3877,0.2094,0.1797,0.1234,-0.028,-0.0505,-0.028,0.0224,0.1345,0.2625,0.4048,0.646,0.7628,0.7036,0.7568,0.7836,0.7557,0.8315,0.8527,0.8031,0.761,0.745,0.7492,0.4989,0.2623,0.0327,-0.334,-0.7783,-1.2892,-1.5159,-1.8372,-2.2134,-2.277,-2.3407,-2.4116,-2.4745,-2.486,-2.4704,-2.5057,-2.5173,-2.5141,-2.5141,-2.5205,-2.5274,-2.5046,-2.4784,-2.4502,-2.4265,-2.4079,-2.3897,-2.3814,-2.3786,-2.3896,-2.4358,-2.4608,-2.4771,-2.505,-2.5084,-2.5072,-2.5101,-2.496,-2.4736,-2.4499,-2.4593,-2.4731,-2.4739,-2.4891,-2.505,-2.5198,-2.5252,-2.525,-2.5178,0.0,-2.5153,-2.5111,-2.5124,-2.5216,-2.5382,-2.5398,-2.5446,-2.5585,-2.5518,-2.5432,-2.539,-2.5301,-2.5236,-2.5197,-2.5203,-2.5231,-2.5282,-2.5293,-2.5303,-2.5303,-2.5303,-2.5303,-2.5303,-2.5303,-2.5687,-2.637,-2.5774,-2.586,-2.6437,-2.5823,-2.5581,-2.556,-2.55,-2.5526,-2.5577,-2.5529,-2.5597,-2.5697,0.1797,0.1692,0.1808,0.2623,0.2721,0.2475,0.1682,0.0855,0.0056,-0.0785,-0.1457,-0.1737,-0.1512,0.0778,0.222,0.2119,0.5634,0.7246,0.5664,0.6154,0.675,0.7348,0.7765,0.7623,0.6866,0.6386,0.505,0.2803,0.244,0.0225,-0.3596,-0.4388,-0.8282,-1.4686,-1.5814,-1.8735,-2.2825,-2.328,-2.3768,-2.4234,-2.4611,-2.4788,-2.4818,-2.4981,-2.5056,-2.5069,-2.4907,-2.4902,-2.4942,-2.4712,-2.4398,-2.4099,-2.3988,-2.3891,-2.3852,-2.3826,-2.3952,-2.4155,-2.4341,-2.4805,-2.5213,-2.5234,-2.525,-2.529,-2.5344,-2.5254,-2.513,-2.5062,-2.51,-2.5164,-2.5129,-2.5194,-2.5286,-2.5339,-2.541,-2.5422,-2.5376,-2.5418,-2.5414,-2.5266,-2.5357,-2.541,-2.5339,-2.5409,-2.5457,-2.5437,-2.5302,-2.5255,-2.5341,-2.5203,-2.516,-2.5192,-2.5201,-2.5241,-2.5312,-2.5312,-2.5302,-2.5302,-2.5302,-2.5302,-2.5312,-2.534,-2.556,-2.5927,-2.5572,-2.565,-2.603,-2.5658,-2.5553,-2.5597,-2.5576,-2.5596,-2.565,-2.5625,-2.565,-2.5699,0.1797,0.1601,0.1389,0.1389,0.1389,0.1389,0.1389,-0.0154,-0.1233,-0.0954,-0.1962,-0.2691,-0.2691,0.0221,0.1825,0.0952,0.4707,0.6372,0.4625,0.512,0.5828,0.6583,0.5756,0.5004,0.4437,0.3105,0.0761,-0.2575,-0.1857,-0.3802,-0.8151,-0.7171,-1.0345,-1.6884,-1.7235,-1.9693,-2.3603,-2.3946,-2.4257,-2.453,-2.4666,-2.4809,-2.4949,-2.4962,-2.5,-2.5031,-2.4738,-2.466,-2.4642,-2.4336,-2.4024,-2.3764,-2.366,-2.3678,-2.372,-2.3738,-2.4045,-2.4379,-2.4385,-2.4834,-2.5282,-2.5197,-2.5272,-2.539,-2.5451,-2.5448,-2.5427,-2.5492,-2.5453,-2.5426,-2.544,-2.5445,-2.544,-2.5434,0.0,-2.5527,-2.5512,-2.5566,-2.5547,-2.5405,-2.5517,-2.5508,-2.5293,-2.5407,-2.5427,-2.5339,-2.5171,-2.5145,-2.5292,-2.5141,-2.5087,-2.5201,-2.5201,-2.5222,-2.5293,-2.5312,-2.5322,-2.5322,-2.5341,-2.5361,-2.5351,-2.5398,-2.5418,-2.5425,-2.5486,-2.5512,-2.5531,-2.5577,-2.5615,-2.5622,-2.5624,-2.5774,-2.5952,-2.5749,-2.5797,-2.5951,0.1797,0.1601,0.1389,0.1389,0.1389,0.1389,0.1389,-0.0868,-0.2186,-0.1065,-0.1962,-0.2691,-0.2691,-0.0447,0.1008,0.0898,0.3234,0.468,0.4519,0.5513,0.5567,0.4298,0.1114,-0.043,0.0047,-0.409,-0.6422,-0.6654,-0.9256,-1.094,-1.167,-1.3574,-1.6055,-1.8899,-1.9226,-2.1161,-2.4151,-2.4501,-2.4858,-2.5226,-2.5311,-2.5234,-2.5094,-2.5138,-2.5068,-2.4902,-2.4756,-2.47,-2.4591,-2.3966,-2.3726,-2.3642,-2.3271,-2.3164,-2.3164,-2.3247,-2.361,-2.4118,-2.4484,-2.4804,-2.5041,-2.5097,-2.5206,-2.5332,-2.5398,-2.5393,-2.5422,-2.5492,-2.5497,-2.5508,-2.5561,-2.5599,-2.5556,-2.5498,0.0,0.0,-2.5584,-2.5599,-2.5624,-2.5657,-2.5626,-2.5578,-2.5481,-2.5446,-2.541,-2.5395,-2.5332,-2.5274,-2.5303,-2.5233,-2.519,-2.5198,-2.5198,-2.5209,-2.5212,-2.5332,-2.5378,-2.5387,-2.5468,-2.5492,-2.5486,-2.5493,-2.548,-2.5492,-2.5492,-2.5538,-2.5595,-2.559,-2.5642,-2.5698,-2.5685,-2.6143,-2.6707,-2.5917,-2.6122,-2.6694,0.1797,0.1601,0.1435,0.1632,0.1346,0.0569,-0.093,-0.2969,-0.4132,-0.3683,-0.4018,-0.3913,-0.2802,-0.1903,-0.0728,0.0785,0.039,-0.0111,-0.0499,-0.0111,0.0553,0.1502,-0.1245,-0.3911,-0.6252,-0.8658,-1.0549,-1.1929,-1.2743,-1.3941,-1.5535,-1.5956,-1.7765,-2.0661,-2.1171,-2.2736,-2.5003,-2.51,-2.5216,-2.5357,-2.5387,-2.5341,-2.5273,-2.5126,-2.5,-2.4864,-2.4556,-2.4408,-2.4265,-2.3883,-2.3759,-2.3717,-2.3422,-2.3422,-2.3558,-2.3602,-2.3813,-2.4039,-2.4248,-2.462,-2.4896,-2.4762,-2.4993,-2.5225,-2.5216,-2.5277,-2.535,-2.5413,-2.5445,-2.5457,-2.5473,-2.5544,-2.5574,-2.5507,0.0,-2.5599,-2.5549,-2.5495,-2.5488,-2.5498,-2.5482,-2.5459,-2.5383,-2.5383,-2.5376,-2.5284,-2.5284,-2.5303,-2.5303,-2.5243,-2.519,-2.5203,-2.5203,-2.5206,-2.5192,-2.5284,-2.533,-2.533,-2.5456,-2.5499,-2.5506,-2.5546,-2.5552,-2.5556,-2.5613,-2.5632,-2.569,-2.6253,-2.647,-2.6562,-2.7091,-2.7491,-2.7656,-2.6793,-2.7026,-2.7636,0.1515,0.135,0.1049,0.0496,0.0056,-0.0784,-0.2465,-0.4021,-0.5128,-0.5297,-0.5297,-0.4632,-0.2914,-0.2691,-0.2128,-0.0615,-0.2015,-0.3469,-0.4625,-0.6275,-0.6101,-0.3641,-0.6041,-0.9105,-1.2711,-1.3777,-1.517,-1.7052,-1.6878,-1.7805,-1.9706,-1.9245,-2.0279,-2.2559,-2.2851,-2.3867,-2.5303,-2.5312,-2.533,-2.5367,-2.5378,-2.5406,-2.5378,-2.516,-2.5037,-2.493,-2.4505,-2.4338,-2.4229,-2.3837,-2.3795,-2.3858,-2.3576,-2.3664,-2.3837,-2.3917,-2.3976,-2.4036,-2.4094,-2.4459,-2.479,-2.461,-2.4832,-2.5111,-2.513,-2.5205,-2.5293,-2.534,-2.5376,-2.5386,-2.5401,-2.5482,-2.5527,-2.5481,-2.5516,-2.5527,-2.5473,-2.542,-2.5408,-2.5406,-2.5379,-2.5356,-2.5307,-2.533,-2.5313,-2.5252,-2.5273,-2.5293,-2.5273,-2.5222,-2.5209,-2.5191,-2.5191,-2.5206,-2.5233,-2.5292,-2.5343,-2.5352,-2.5505,-2.5565,-2.556,-2.5617,-2.5636,-2.5619,-2.5681,-2.5868,-2.6149,-2.6751,-2.7166,-2.7461,-2.8049,-2.8447,-2.8574,-2.77,-2.7928,-2.8525,0.0898,0.0898,0.0112,-0.2296,-0.2691,-0.2691,-0.2691,-0.3744,-0.4684,-0.5242,-0.5297,-0.4632,-0.2914,-0.2691,-0.297,-0.353,-0.3585,-0.457,-0.6972,-1.2087,-1.3956,-1.1418,-1.4009,-1.6638,-1.9011,-1.996,-2.0813,-2.1694,-2.2367,-2.3177,-2.4079,-2.4078,-2.4269,-2.4565,-2.423,-2.4392,-2.4898,-2.5046,-2.5173,-2.5293,-2.5367,-2.5404,-2.5387,-2.5322,-2.5262,-2.5134,-2.467,-2.4586,-2.4578,-2.3774,-2.3774,-2.4039,-2.3642,-2.3685,-2.3917,-2.3996,-2.4054,-2.4094,-2.4094,-2.4392,-2.4707,-2.4707,-2.4808,-2.4942,-2.5137,-2.5191,-2.5225,-2.5283,-2.5303,-2.5313,-2.539,-2.5406,-2.5406,-2.5406,-2.5406,-2.5406,-2.5406,-2.5406,-2.5406,-2.5387,-2.535,-2.5293,-2.5293,-2.5244,-2.5222,-2.5292,-2.5311,-2.5271,-2.5198,-2.5201,-2.5209,-2.5191,-2.5191,-2.5248,-2.5303,-2.5372,-2.5428,-2.5504,-2.5642,-2.5701,-2.571,-2.5696,-2.5703,-2.5707,-2.5707,-2.6182,-2.7009,-2.7011,-2.7519,-2.8299,-2.8242,-2.8745,-2.9396,-2.8538,-2.8727,-2.9294,0.0898,-0.0448,-0.1847,-0.2577,-0.2691,-0.2691,-0.2691,-0.4021,-0.5132,-0.5297,-0.5297,-0.5077,-0.4577,-0.3805,-0.3416,-0.3583,-0.3585,-0.4736,-0.7467,-1.0265,-1.1805,-1.1868,-1.4043,-1.604,-1.788,-1.9214,-2.0292,-2.1071,-2.1795,-2.2312,-2.2623,-2.2663,-2.2863,-2.3141,-2.3466,-2.393,-2.4494,-2.4611,-2.4782,-2.4968,-2.513,-2.5201,-2.5187,-2.516,-2.4968,-2.4685,-2.4487,-2.4353,-2.4211,-2.3837,-2.3899,-2.4078,-2.3855,-2.371,-2.3696,-2.4099,-2.4173,-2.4133,-2.4266,-2.4408,-2.4493,-2.4493,-2.4804,-2.5101,-2.5,-2.5101,-2.5203,-2.5236,-2.5236,-2.5228,-2.5261,-2.5313,-2.5331,-2.5331,-2.5331,-2.5274,-2.5147,-2.508,-2.5005,-2.4917,-2.4975,-2.5012,-2.5024,-2.5138,-2.5212,-2.5222,-2.5282,-2.5271,-2.5198,-2.5201,-2.5209,-2.5191,-2.5214,-2.555,-2.629,-2.5712,-2.5427,-2.5504,-2.5648,-2.5693,-2.571,-2.5701,-2.5705,-2.5707,-2.5707,-2.6197,-2.7041,-2.7656,-2.8393,-2.9188,-2.9793,-3.0149,-3.0238,-2.936,-2.958,-3.018,-0.0336,-0.168,-0.241,-0.1455,-0.2073,-0.2691,-0.2691,-0.4187,-0.5297,-0.5297,-0.5297,-0.5462,-0.595,-0.4574,-0.319,-0.2237,-0.3241,-0.5171,-0.8055,-0.9197,-1.0328,-1.161,-1.3627,-1.5543,-1.7299,-1.8579,-1.9555,-2.028,-2.1118,-2.1535,-2.1549,-2.1916,-2.2262,-2.2547,-2.2923,-2.343,-2.4026,-2.4185,-2.4473,-2.478,-2.4949,-2.5056,-2.5101,-2.5082,-2.4847,-2.4516,-2.4407,-2.4265,-2.4155,-2.3899,-2.3899,-2.4019,-2.4057,-2.3941,-2.3886,-2.4336,-2.4355,-2.4266,-2.4459,-2.4476,-2.4407,-2.4493,-2.4764,-2.498,-2.4915,-2.4947,-2.4993,-2.4993,-2.4993,-2.5107,-2.5416,-2.5247,-2.5278,-2.5933,-2.5786,-2.5647,-2.5829,-2.584,-2.5642,-2.5233,-2.5295,-2.5262,-2.4966,-2.5409,-2.5855,-2.6192,-2.5953,-2.5759,-2.5723,-2.5423,-2.522,-2.5214,-2.5532,-2.6023,-2.6695,-2.6513,-2.6488,-2.6564,-2.6325,-2.6205,-2.62,-2.5859,-2.5707,-2.5726,-2.6058,-2.6693,-2.7534,-2.8427,-2.926,-3.0013,-3.0528,-3.0699,-3.0593,-3.0075,-3.0212,-3.0587,-0.1961,-0.2354,-0.168,0.0505,-0.1119,-0.2747,-0.2914,-0.4301,-0.5297,-0.5297,-0.5297,-0.5786,-0.6977,-0.5007,-0.274,-0.0616,-0.2899,-0.5714,-0.8593,-0.8804,-0.942,-1.0897,-1.2938,-1.4949,-1.6964,-1.7954,-1.8803,-1.9489,-2.0418,-2.0845,-2.0761,-2.1592,-2.2152,-2.2485,-2.2537,-2.294,-2.3577,-2.3773,-2.4173,-2.4644,-2.4812,-2.4943,-2.5032,-2.498,-2.4804,-2.4554,-2.4374,-2.4302,-2.4265,-2.3981,-2.3919,-2.3998,-2.4229,-2.432,-2.4371,-2.4642,-2.4575,-2.4476,-2.4657,-2.4575,-2.4493,-2.4657,-2.4764,-2.4813,-2.4865,-2.485,-2.482,-2.482,-2.4861,-2.5142,-2.5874,-2.5418,-2.543,-2.6956,-2.6591,-2.6381,-2.7071,-2.7167,-2.6868,-2.6066,-2.6098,-2.5901,-2.5224,-2.6046,-2.6929,-2.7742,-2.7059,-2.6622,-2.6627,-2.5866,-2.5425,-2.545,-2.6129,-2.665,-2.6931,-2.7726,-2.8146,-2.8193,-2.7379,-2.6995,-2.6966,-2.6095,-2.5707,-2.5748,-2.6626,-2.7462,-2.8271,-2.9151,-2.9974,-3.0686,-3.0629,-3.0617,-3.0607,-3.0604,-3.0595,-3.0607,0.0224,0.0112,0.028,0.0785,-0.1119,-0.3135,-0.4522,-0.5077,-0.5297,-0.5297,-0.5297,-0.5786,-0.6977,-0.5007,-0.358,-0.3511,-0.4125,-0.5714,-0.8593,-0.8804,-0.9316,-1.0474,-1.2395,-1.4111,-1.544,-1.7164,-1.8472,-1.9406,-1.9803,-2.0135,-2.0441,-2.0861,-2.1244,-2.1612,-2.2022,-2.2573,-2.3224,-2.3534,-2.3846,-2.4192,-2.4526,-2.4623,-2.4556,-2.4642,-2.4545,-2.4374,-2.4373,-2.4372,-2.4389,-2.4476,-2.4442,-2.4373,-2.4441,-2.4491,-2.4572,-2.4804,-2.4746,-2.4673,-2.4818,-2.4814,-2.479,-2.4723,-2.5161,-2.5477,-2.4885,-2.5211,-2.5649,-2.5649,-2.6139,-2.6645,-2.6883,-2.677,-2.6803,-2.7213,-2.7135,-2.7027,-2.7043,-2.699,-2.6861,-2.6559,-2.6637,-2.6653,-2.6503,-2.7009,-2.7478,-2.7788,-2.7627,-2.7533,-2.7595,-2.6774,-2.661,-2.7287,-2.6891,-2.734,-2.8718,-2.8975,-2.8793,-2.8189,-2.7371,-2.7008,-2.6966,-2.6095,-2.5693,-2.5757,-2.6628,-2.7489,-2.835,-2.9213,-3.0016,-3.0699,-3.0674,-3.0656,-3.0598,-3.0607,-3.0607,-3.0598,0.0898,0.0898,0.0898,0.0898,-0.1343,-0.336,-0.3968,-0.523,-0.6164,-0.6164,-0.6164,-0.6381,-0.7031,-0.5281,-0.4135,-0.4463,-0.5769,-0.7176,-0.8699,-0.9646,-1.0666,-1.1882,-1.288,-1.3909,-1.4949,-1.6629,-1.7882,-1.8774,-1.9581,-1.9975,-2.001,-2.0597,-2.1007,-2.1339,-2.1764,-2.2292,-2.2884,-2.3224,-2.3526,-2.3842,-2.4284,-2.4426,-2.4407,-2.4495,-2.4374,-2.4228,-2.4321,-2.4373,-2.4389,-2.4408,-2.4459,-2.4508,-2.462,-2.4682,-2.479,-2.4987,-2.4921,-2.4837,-2.5006,-2.4921,-2.4888,-2.5192,-2.5527,-2.5646,-2.5217,-2.5688,-2.6247,-2.6247,-2.6562,-2.697,-2.7321,-2.71,-2.7119,-2.786,-2.7676,-2.7565,-2.7894,-2.7929,-2.7738,-2.7324,-2.7375,-2.755,-2.7744,-2.8347,-2.8855,-2.9079,-2.9025,-2.8865,-2.8573,-2.7739,-2.7451,-2.7884,-2.7926,-2.8381,-2.9295,-2.9747,-2.9783,-2.9435,-2.8589,-2.8218,-2.8201,-2.7344,-2.6942,-2.6989,-2.7868,-2.8475,-2.8945,-2.9819,-3.036,-3.0657,-3.0645,-3.0636,-3.0598,-3.0598,-3.0598,-3.0598,0.0898,0.0898,0.0898,0.0898,-0.1174,-0.2854,-0.2858,-0.5273,-0.7085,-0.7085,-0.7348,-0.7402,-0.7139,-0.5882,-0.5062,-0.5062,-0.7283,-0.8938,-0.9735,-1.095,-1.2281,-1.355,-1.369,-1.4108,-1.5017,-1.6293,-1.7338,-1.8135,-1.9479,-2.001,-1.9833,-2.0565,-2.1023,-2.1245,-2.1661,-2.2101,-2.2561,-2.296,-2.3294,-2.3599,-2.4058,-2.4266,-2.4319,-2.4319,-2.4229,-2.4113,-2.4266,-2.4409,-2.4493,-2.4301,-2.4388,-2.462,-2.479,-2.4893,-2.4961,-2.5125,-2.5057,-2.4974,-2.5144,-2.5094,-2.5145,-2.5791,-2.5998,-2.6024,-2.6024,-2.6425,-2.6851,-2.6979,-2.7126,-2.7435,-2.8132,-2.7766,-2.7725,-2.9016,-2.8565,-2.832,-2.9159,-2.914,-2.8809,-2.8209,-2.8398,-2.8708,-2.9061,-2.9935,-3.0603,-3.0897,-3.0698,-3.0306,-2.9761,-2.8916,-2.841,-2.8373,-2.914,-2.9555,-2.9551,-3.0271,-3.0678,-3.0781,-3.0191,-2.9814,-2.9563,-2.8834,-2.8426,-2.8335,-2.9218,-2.957,-2.957,-3.0469,-3.0743,-3.0626,-3.0613,-3.0617,-3.0598,-3.0588,-3.0569,-3.0588,0.0898,0.0898,0.0898,0.0898,0.0561,-0.0559,-0.3079,-0.5555,-0.7085,-0.7085,-0.8349,-0.8718,-0.7241,-0.73,-0.7461,-0.7461,-0.7788,-0.9652,-1.3494,-1.2681,-1.2538,-1.3634,-1.4001,-1.4606,-1.5472,-1.6335,-1.7216,-1.8182,-1.9072,-1.9777,-2.0235,-2.0681,-2.0878,-2.0909,-2.1705,-2.2113,-2.2292,-2.2975,-2.333,-2.3445,-2.3795,-2.3958,-2.3978,-2.3978,-2.3978,-2.4056,-2.4302,-2.4626,-2.4903,-2.4875,-2.4898,-2.4953,-2.5025,-2.5057,-2.5082,-2.5101,-2.5088,-2.5082,-2.5101,-2.5634,-2.6173,-2.6152,-2.701,-2.783,-2.7771,-2.7701,-2.7842,-2.8517,-2.9237,-2.9995,-3.088,-3.0852,-3.0809,-3.1298,-3.0517,-2.9955,-3.0324,-2.9728,-2.9225,-2.9114,-2.988,-3.0509,-3.0762,-3.1721,-3.2398,-3.2557,-3.1976,-3.1555,-3.1476,-3.0687,-3.0269,-3.0327,-3.0492,-3.0564,-3.0509,-3.0683,-3.0753,-3.0713,-3.1365,-3.0901,-2.9502,-2.9391,-2.893,-2.8268,-2.9198,-2.959,-2.9648,-3.0527,-3.0808,-3.0691,-3.0687,-3.0656,-3.0598,-3.053,-3.0501,-3.0617,0.0954,0.0898,0.0898,0.0898,-0.0503,-0.2068,-0.3416,-0.5609,-0.7456,-0.8349,-0.9138,-0.8981,-0.7295,-0.7574,-0.7901,-0.7901,-0.7901,-0.8741,-1.0699,-1.2573,-1.3513,-1.3252,-1.4226,-1.4854,-1.5094,-1.5929,-1.6857,-1.7853,-1.8793,-1.9288,-1.9406,-2.0208,-2.0545,-2.0561,-2.1166,-2.1612,-2.2027,-2.2849,-2.3182,-2.3223,-2.3689,-2.3896,-2.3896,-2.3896,-2.3937,-2.4036,-2.4173,-2.4493,-2.4832,-2.4832,-2.4917,-2.5012,-2.5025,-2.5082,-2.5107,-2.5107,-2.5107,-2.5107,-2.5107,-2.5717,-2.642,-2.6734,-2.7606,-2.8408,-2.8604,-2.9045,-2.9339,-2.904,-2.9641,-3.032,-3.0674,-3.1066,-3.1334,-3.144,-3.1078,-3.084,-3.1066,-3.0771,-3.0594,-3.0793,-3.1196,-3.1581,-3.1903,-3.2844,-3.3311,-3.3029,-3.3156,-3.3074,-3.2667,-3.2305,-3.2113,-3.2151,-3.1753,-3.148,-3.1421,-3.0979,-3.0739,-3.0701,-3.1557,-3.1578,-3.0902,-3.1395,-3.1406,-3.1046,-3.0962,-3.0957,-3.0984,-3.0881,-3.0794,-3.0695,-3.0731,-3.0694,-3.0598,-3.053,-3.0491,-3.0549]}]]